     2              OBSERVATION DATA    GPS                 RINEX VERSION / TYPE
TRRINEXO-V2.3.1-LH UCLA/SCEC 27-FEB-1994                    PGM / RUN BY / DATE
                                                            COMMENT
Original Marker Name: 0148                                  COMMENT
Campaign Name: Northridge 1994                              COMMENT
4-Character Station Name: 0148                              COMMENT
6-Character Antenna Code: TRMSST                            COMMENT
Vertical Measurement Point: BGP                             COMMENT
Vertical Offset to Rinex Ref. Point: 0.0597                 COMMENT
Radial Measurement Point: NGP                               COMMENT
Radial Offset to Rinex Ref. Point: 0.2334                   COMMENT
Antenna Height from Field Measurement: 1.7300 m             COMMENT
Original XYZ: -2507651.3920 -4651173.6811 3560062.5845      COMMENT
New XYZ position is based on association with SCEC monument COMMENT
E1C7Z2Y1+0011. Position of that monument is believed to be  COMMENT
valid to within 1 m horizontally; vertical accuracy         COMMENT
should be no worse than 3-times this value.                 COMMENT
                                                            COMMENT
Revised Rinex header created by UCSD GPS archive for        COMMENT
GSAC on 10-Apr-1999 (1999:100) 02:04:42 GMT                 COMMENT
For assistance contact dagnew@ucsd.edu or hjohnson@ucsd.edu COMMENT
                                                            COMMENT
BURBANK I-7 1953                                            MARKER NAME
UNKNOWN OBSERVER CALIF DEPT TRANSPORTATION DISTRICT 7       OBSERVER / AGENCY
1964 TRIMBLE 4000 SST 4.81                                  REC # / TYPE / VERS
2757 TR 4000SST L1/L2 GEO                                   ANT # / TYPE
 -2507669.0000 -4651242.0000  3560102.0000                  APPROX POSITION XYZ
        1.6545        0.0000        0.0000                  ANTENNA: DELTA H/E/N
     1     2     0                                          WAVELENGTH FACT L1/2
     3    C1    L1    L2                                    # / TYPES OF OBSERV
    30                                                      INTERVAL
  1994     2    15    17     0    0.000000                  TIME OF FIRST OBS
  1994     2    15    23     1    0.000000                  TIME OF LAST OBS
     0                                                      # OF SATELLITES
                                                            END OF HEADER
 94  2 15 17  0  0.0000000  0  6 25  1 14 15 22 29
  21338162.000       32730.50117
  24724512.047       44206.59315
  21628462.930      -28206.35517
  21551978.414       35369.44117
  23650843.125      -37962.41915
  23019216.328      -21759.68216
 94  2 15 17  0 30.0000000  0  6 25  1 14 15 22 29
  21350625.914       98238.807 7     25532.02017
  24741281.117      132361.824 5        -0.30815
  21617718.008      -84678.579 7    -22006.33916
  21565465.563      106237.984 7     27631.28417
  23636366.969     -114041.851 5
  23010908.281      -65457.799 6    -17044.52315
 94  2 15 17  1  0.0000000  0  6 25  1 14 15 22 29
  21363118.258      163854.332 7     76660.951 7
  24757998.742      220229.470 4
  21606963.992     -141170.149 7    -66025.747 7
  21578993.984      177330.455 7     83027.994 6
  23621855.531     -190280.717 3    -29717.33213
  23002559.078     -109328.469 6    -51229.482 5
 94  2 15 17  1 30.0000000  0  6 25  1 14 15 22 29
  21375630.305      229628.262 7    127913.341 8
  24774662.422      307843.110 2
  21596218.953     -197638.229 7   -110026.842 7
  21592568.414      248684.601 7    138628.616 6
  23607315.305     -266651.311 5    -89226.868 5
  22994185.766     -153321.652 6    -85509.862 5
 94  2 15 17  2  0.0000000  0  6 25  1 14 15 22 29
  21388187.727      295612.464 8    179329.563 8
  24791289.320      395214.549 1     34017.72911
  21585484.578     -254054.412 7   -153987.516 7
  21606202.086      320326.683 7    194453.584 7
  23592771.305     -343114.057 5   -148808.200 5
  22985799.492     -197403.798 6   -119859.568 5
 94  2 15 17  2 30.0000000  0  5 25 14 15 22 29
  21400790.414      361851.211 8    230944.114 8
  21574760.914     -310407.807 7   -197899.256 7
  21619891.531      392280.281 7    250521.278 7
  23578204.461     -419622.635 5   -208425.247 4
  22977397.555     -241538.351 6   -154250.124 5
 94  2 15 17  3  0.0000000  0  5 25 14 15 22 29
  21413447.734      428396.853 7    282797.827 8
  21564048.008     -366677.861 7   -241746.055 7
  21633656.047      464579.431 7    306858.236 7
  23563659.711     -496143.750 5   -268052.081 2
  22968997.133     -285697.013 6   -188659.483 5
 94  2 15 17  3 30.0000000  0  5 25 14 15 22 29
  21426184.625      495300.849 7    334930.768 8
  21553365.398     -422830.500 7   -285501.372 7
  21647484.383      537255.722 7    363489.092 7
  23549108.164     -572636.093 5   -327656.485 3
  22960589.750     -329866.037 6   -223076.880 5
 94  2 15 17  4  0.0000000  0  5 25 14 15 22 29
  21438984.836      562569.107 7    387347.535 9
  21542709.516     -478843.007 7   -329147.461 7
  21661382.297      610331.822 7    420431.474 6
  23534548.820     -649063.249 5   -387210.136 4
  22952185.367     -374023.402 6   -257485.217 5
 94  2 15 17  4 30.0000000  0  5 25 14 15 22 29
  21451858.211      630194.952 7    440042.957 9
  21532080.898     -534674.862 7   -372652.820 7
  21675372.961      683827.541 7    477700.846 6
  23520018.242     -725422.739 5   -446711.028 4
  22943792.141     -418142.693 6   -291863.870 5
 94  2 15 17  5  0.0000000  0  5 25 14 15 22 29
  21464787.133      698157.472 7    493000.714 8
  21521499.008     -590282.289 7   -415983.281 7
  21689437.250      757747.826 7    535301.019 6
  23505500.703     -801713.992 6   -506158.741 4
  22935401.688     -462206.338 6   -326199.194 5
 94  2 15 17  5 30.0000000  0  5 25 14 15 22 29
  21477776.945      766418.181 7    546190.831 9
  21510969.602     -645652.787 7   -459129.132 8
  21703589.250      832089.405 7    593229.502 7
  23490997.586     -877924.872 5   -565543.813 5
  22927043.125     -506202.165 6   -360481.643 5
 94  2 15 17  6  0.0000000  0  6 25  1 14 15 22 29
  21490814.688      834918.403 7    599567.575 8
  24923390.344       43206.08711
  21500469.164     -700827.188 7   -502122.184 7
  21717806.266      906820.633 7    651461.584 7
  23476502.859     -954089.238 5   -624892.615 4
  22918661.633     -550146.667 6   -394724.136 5
 94  2 15 17  6 30.0000000  0  5 25 14 15 22 29
  21503894.727      903653.573 7    653127.411 8
  21490002.367     -755822.804 7   -544975.914 7
  21732098.641      981920.636 7    709981.031 7
  23462018.727    -1030230.936 5   -684223.785 4
  22910316.242     -594056.004 6   -428939.231 5
 94  2 15 17  7  0.0000000  0  5 25 14 15 22 29
  21517019.227      972623.942 8    706870.505 8
  21479560.563     -810684.654 7   -587725.392 7
  21746450.359     1057368.218 7    768771.311 7
  23447525.266    -1106350.924 5   -743538.121 4
  22901961.500     -637960.519 6   -463150.553 5
 94  2 15 17  7 30.0000000  0  5 25 14 15 22 29
  21530186.273     1041842.494 7    760806.990 8
  21469138.555     -865464.874 7   -630411.301 7
  21760879.336     1133144.445 7    827817.703 6
  23433043.273    -1182467.769 6   -802849.920 5
  22893598.781     -681898.015 6   -497387.558 5
 94  2 15 17  8  0.0000000  0  5 25 14 15 22 29
  21543412.203     1111331.556 7    814954.279 8
  21458729.016     -920183.998 7   -673049.562 7
  21775355.211     1209232.911 7    887107.378 6
  23418558.453    -1258595.496 5   -862170.137 5
  22885229.930     -725885.421 6   -531663.429 5
 94  2 15 17  8 30.0000000  0  5 25 14 15 22 29
  21556691.195     1181110.273 7    869327.272 8
  21448334.883     -974819.454 7   -715622.646 7
  21789896.898     1285624.610 7    946633.359 6
  23404068.422    -1334728.079 5   -921494.076 5
  22876843.750     -769935.156 6   -565987.886 5
 94  2 15 17  9  0.0000000  0  5 25 14 15 22 29
  21570018.586     1251172.153 7    923920.890 7
  21437950.063    -1029355.592 7   -758118.355 7
  21804487.133     1362319.571 7   1006395.618 7
  23389583.367    -1410858.801 5   -980816.640 5
  22868459.125     -814050.319 6   -600363.343 5
 94  2 15 17  9 30.0000000  0  5 25 14 15 22 29
  21583404.617     1321497.993 7    978720.227 8
  21427593.180    -1083772.121 7   -800520.850 7
  21819141.773     1439311.966 7   1066389.646 7
  23375096.906    -1486991.741 6  -1040141.031 4
  22860041.227     -858227.742 6   -634787.296 5
 94  2 15 17 10  0.0000000  0  5 25 14 15 22 29
  21596837.383     1392060.788 7   1033704.174 7
  21417270.531    -1138038.623 7   -842806.423 7
  21833845.836     1516600.218 7   1126614.214 7
  23360617.367    -1563111.052 6  -1099454.758 4
  22851627.195     -902453.713 6   -669249.072 5
 94  2 15 17 10 30.0000000  0  5 25 14 15 22 29
  21610299.383     1462837.824 7   1088855.062 8
  21406975.781    -1192138.268 7   -884962.010 7
  21848609.828     1594184.164 7   1187069.189 7
  23346139.680    -1639212.154 6  -1158754.206 5
  22843197.133     -946728.615 6   -703749.006 5
 94  2 15 17 11  0.0000000  0  5 25 14 15 22 29
  21623805.695     1533810.562 7   1144158.460 7
  21396708.461    -1246091.051 7   -927003.158 7
  21863426.656     1672063.794 7   1247754.570 6
  23331655.148    -1715284.078 5  -1218030.895 5
  22834777.242     -991047.936 6   -738283.520 5
 94  2 15 17 11 30.0000000  0  5 25 14 15 22 29
  21637352.391     1604985.824 7   1199619.642 8
  21386473.297    -1299893.672 7   -968927.269 7
  21878310.125     1750239.351 6   1308670.551 6
  23317191.617    -1791298.002 6  -1277262.455 5
  22826328.680    -1035403.640 6   -772846.451 5
 94  2 15 17 12  0.0000000  0  5 25 14 15 22 29
  21650936.516     1676360.590 7   1255236.319 8
  21376259.766    -1353551.996 7  -1010738.965 7
  21893238.289     1828707.755 6   1369814.739 6
  23302738.055    -1867236.966 6  -1336435.596 5
  22817893.086    -1079795.779 6   -807437.707 5
 94  2 15 17 12 30.0000000  0  5 25 14 15 22 29
  21664556.289     1747948.475 7   1311019.032 8
  21366073.148    -1407067.910 7  -1052439.698 7
  21908225.063     1907475.857 6   1431192.437 6
  23288302.688    -1943102.337 5  -1395551.470 4
  22809430.398    -1124219.029 6   -842053.211 5
 94  2 15 17 13  0.0000000  0  5 25 14 15 22 29
  21678218.320     1819760.430 7   1366976.349 8
  21355918.063    -1460448.864 7  -1094035.249 7
  21923278.172     1986542.986 6   1492803.139 6
  23273878.695    -2018889.396 5  -1454606.258 4
  22800972.664    -1168665.460 6   -876686.793 5
 94  2 15 17 13 30.0000000  0  5 25 14 15 22 29
  21691934.383     1891808.160 7   1423117.394 8
  21345782.109    -1513677.511 7  -1135512.119 7
  21938381.289     2065917.211 7   1554653.127 7
  23259476.438    -2094592.975 6  -1513596.009 5
  22792506.500    -1213128.712 6   -911333.488 6
 94  2 15 17 14  0.0000000  0  5 25 14 15 22 29
  21705689.547     1964087.888 7   1479439.211 8
  21335687.117    -1566754.891 7  -1176871.135 7
  21953544.266     2145604.745 7   1616747.272 6
  23245078.875    -2170241.033 5  -1572542.455 5
  22784042.234    -1257604.760 6   -945990.164 5
 94  2 15 17 14 30.0000000  0  5 25 14 15 22 29
  21719480.406     2036582.230 7   1535928.261 8
  21325609.688    -1619712.359 7  -1218136.680 7
  21968751.789     2225571.440 6   1679058.918 6
  23230687.898    -2245879.903 5  -1631481.782 5
  22775577.117    -1302126.929 6   -980682.750 6
 94  2 15 17 15  0.0000000  0  5 25 14 15 22 29
  21733324.656     2109330.648 7   1592615.305 8
  21315559.602    -1672510.487 7  -1259278.109 7
  21984037.430     2305841.246 7   1741606.769 6
  23216302.203    -2321470.580 5  -1690383.526 3
  22767111.773    -1346670.155 6  -1015391.777 6
 94  2 15 17 15 30.0000000  0  5 25 14 15 22 29
  21747217.406     2182323.081 7   1649492.473 8
  21305549.414    -1725137.625 7  -1300286.246 7
  21999365.273     2386412.643 6   1804389.629 6
  23201928.117    -2397009.273 5  -1749244.859 4
  22758612.953    -1391235.393 6  -1050117.965 6
 94  2 15 17 16  0.0000000  0  5 25 14 15 22 29
  21761151.219     2255563.564 7   1706562.935 8
  21295571.156    -1777581.299 7  -1341151.442 7
  22014760.914     2467285.034 7   1867407.016 6
  23187562.797    -2472488.142 5  -1808059.594 5
  22750145.391    -1435803.081 6  -1084846.021 5
 94  2 15 17 16 30.0000000  0  5 25 14 15 22 29
  21775141.602     2329078.175 7   1763846.988 7
  21285627.852    -1829803.058 7  -1381843.753 7
  22030213.922     2548475.580 7   1930672.323 6
  23173217.203    -2547853.438 5  -1866785.767 5
  22741663.375    -1480342.220 6  -1119551.842 5
 94  2 15 17 17  0.0000000  0  5 25 14 15 22 29
  21789174.633     2402830.346 7   1821316.172 7
  21275729.172    -1881808.079 7  -1422367.148 7
  22045717.406     2629968.300 7   1994173.088 6
  23158914.469    -2623104.318 6  -1925422.735 4
  22733187.289    -1524864.588 6  -1154244.613 5
 94  2 15 17 17 30.0000000  0  5 25 14 15 22 29
  21803250.953     2476776.216 8   1878936.272 8
  21265873.313    -1933631.908 7  -1462749.360 7
  22061273.586     2711735.706 7   2057887.895 6
  23144605.258    -2698264.515 6  -1983989.060 4
  22724711.172    -1569396.927 6  -1188945.139 5
 94  2 15 17 18  0.0010000  0  5 25 14 15 22 29
  21817369.021     2550979.381 7   1936756.867 7
  21256059.021    -1985224.245 7  -1502951.212 8
  22076896.474     2793829.402 6   2121856.940 6
  23130321.271    -2773278.446 5  -2042441.535 5
  22716249.325    -1613892.511 6  -1223617.017 5
 94  2 15 17 18 30.0010000  0  5 25 14 15 22 29
  21831531.458     2625391.212 7   1994740.066 7
  21246268.075    -2036627.926 7  -1543006.027 7
  22092568.544     2876196.289 7   2186038.868 6
  23116070.849    -2848179.152 6  -2100805.774 5
  22707781.599    -1658402.216 6  -1258299.930 6
 94  2 15 17 19  0.0010000  0  5 25 14 15 22 29
  21845733.052     2700020.440 7   2052892.648 8
  21236529.294    -2087852.754 7  -1582921.489 7
  22108298.169     2958843.328 7   2250439.091 6
  23101841.599    -2922963.775 6  -2159079.464 5
  22699307.341    -1702929.245 6  -1292996.334 6
 94  2 15 17 19 30.0010000  0  5 25 14 15 22 29
  21859982.466     2774901.361 7   2111241.389 7
  21226820.731    -2138870.273 7  -1622675.406 7
  22124085.778     3041785.851 7   2315069.577 6
  23087639.841    -2997617.784 6  -2217251.360 5
  22690830.263    -1747447.288 6  -1327685.726 6
 94  2 15 17 20  0.0010000  0  5 25 14 15 22 29
  21874283.169     2850046.167 7   2169795.727 7
  21217153.060    -2189655.726 7  -1662248.511 7
  22139918.481     3125026.978 7   2379932.727 6
  23073457.052    -3072138.621 6  -2275319.541 5
  22682366.474    -1791945.904 6  -1362359.966 6
 94  2 15 17 20 30.0010000  0  5 25 14 15 22 29
  21888631.520     2925453.541 7   2228554.665 7
  21207534.599    -2240200.173 7  -1701633.790 7
  22155813.927     3208567.592 6   2445029.261 6
  23059297.661    -3146519.812 6  -2333278.961 5
  22673902.661    -1836429.000 6  -1397022.103 6
 94  2 15 17 21  0.0010000  0  5 25 14 15 22 29
  21903027.849     3001108.522 7   2287506.548 7
  21197961.685    -2290498.737 7  -1740827.497 7
  22171779.599     3292400.328 7   2510353.413 6
  23045175.333    -3220762.539 6  -2391130.431 5
  22665436.521    -1880902.955 6  -1431677.152 6
 94  2 15 17 21 30.0010000  0  5 25 14 15 22 29
  21917463.575     3076998.465 7   2346641.500 7
  21188442.138    -2340547.630 7  -1779826.630 7
  22187786.114     3376522.032 6   2575902.728 6
  23031071.028    -3294871.124 6  -2448877.372 5
  22656978.052    -1925364.368 6  -1466322.427 6
 94  2 15 17 22  0.0010000  0  5 25 14 15 22 29
  21931954.567     3153122.222 7   2405958.673 7
  21178967.935    -2390336.953 7  -1818623.530 8
  22203843.138     3460951.917 6   2641692.183 6
  23017000.239    -3368805.434 6  -2506488.519 5
  22648513.396    -1969804.971 6  -1500951.456 6
 94  2 15 17 22 30.0010000  0  5 25 14 15 22 29
  21946473.255     3229426.762 7   2465416.697 7
  21169529.130    -2439920.409 7  -1857260.014 7
  22219969.302     3545650.058 7   2707690.676 6
  23002958.177    -3442589.718 5  -2563982.735 5
  22640058.935    -2014257.883 6  -1535590.089 6
 94  2 15 17 23  0.0010000  0  5 25 14 15 22 29
  21961034.099     3305921.503 7   2525022.936 7
  21160136.700    -2489279.102 7  -1895721.331 7
  22236132.645     3630634.221 6   2773912.050 6
  22988941.106    -3516198.187 5  -2621339.986 4
  22631608.864    -2058694.833 6  -1570216.288 6
 94  2 15 17 23 30.0010000  0  5 25 14 15 22 29
  21975623.396     3382609.114 7   2584779.471 7
  21150791.255    -2538406.009 7  -1934002.057 8
  22252360.411     3715902.108 6   2840354.502 6
  22974981.911    -3589635.959 6  -2678564.212 5
  22623153.013    -2103131.386 6  -1604842.171 5
 94  2 15 17 24  0.0010000  0  5 25 14 15 22 29
  21990254.583     3459505.156 7   2644698.415 7
  21141486.216    -2587278.172 7  -1972084.293 7
  22268639.208     3801455.955 6   2907019.753 6
  22961037.185    -3662887.470 6  -2735643.306 5
  22614695.099    -2147570.901 6  -1639470.353 6
 94  2 15 17 24 30.0010000  0  5 25 14 15 22 29
  22004932.825     3536625.334 7   2704791.991 7
  21132241.294    -2635883.862 7  -2009958.836 7
  22284980.544     3887295.189 6   2973907.431 6
  22947135.544    -3735964.027 5  -2792586.074 5
  22606239.177    -2192003.509 6  -1674093.144 6
 94  2 15 17 25  0.0010000  0  5 25 14 15 22 29
  22019650.466     3613986.948 7   2765073.720 7
  21123046.036    -2684198.421 7  -2047606.563 8
  22301366.927     3973420.508 6   3041017.993 6
  22933264.216    -3808863.318 6  -2849390.602 5
  22597791.638    -2236425.886 6  -1708708.010 6
 94  2 15 17 25 30.0010000  0  5 25 14 15 22 29
  22034426.966     3691600.466 7   2825551.729 7
  21113908.606    -2732224.784 7  -2085029.723 7
  22317817.036     4059827.537 6   3108348.079 6
  22919418.161    -3881589.762 6  -2906060.619 5
  22589332.927    -2280831.546 6  -1743309.826 6
 94  2 15 17 26  0.0010000  0  5 25 14 15 22 29
  22049242.450     3769461.657 7   2886222.720 7
  21104815.771    -2779987.629 7  -2122247.524 7
  22334301.239     4146511.591 6   3175894.046 6
  22905617.817    -3954133.588 6  -2962588.351 5
  22580887.888    -2325200.086 6  -1777882.712 6
 94  2 15 17 26 30.0010000  0  5 25 14 15 22 29
  22064101.106     3847562.453 7   2947080.429 7
  21095776.731    -2827498.696 7  -2159269.145 8
  22350845.239     4233467.318 6   3243651.661 6
  22891845.005    -4026490.395 6  -3018970.199 5
  22572450.099    -2369531.205 6  -1812426.437 5
 94  2 15 17 27  0.0010000  0  5 25 14 15 22 29
  22079010.435     3925910.383 7   3008130.710 7
  21086784.481    -2874754.088 7  -2196091.549 7
  22367454.356     4320700.632 6   3311625.606 6
  22878116.778    -4098634.554 6  -3075186.360 5
  22564016.786    -2413829.268 6  -1846944.404 5
 94  2 15 17 27 30.0010000  0  5 25 14 15 22 29
  22093963.935     4004500.405 7   3069369.625 7
  21077839.864    -2921769.949 7  -2232727.273 7
  22384104.685     4408211.959 6   3379816.179 6
  22864424.520    -4170559.851 6  -3131232.081 5
  22555599.372    -2458104.014 6  -1881444.188 5
 94  2 15 17 28  0.0010000  0  5 25 14 15 22 29
  22108959.013     4083311.010 7   3130780.424 7
  21068933.224    -2968539.866 7  -2269171.382 8
  22400804.880     4495995.216 6   3448218.634 6
  22850784.028    -4242267.050 6  -3187107.872 6
  22547175.435    -2502367.055 6  -1915934.886 6
 94  2 15 17 28 30.0010000  0  5 25 14 15 22 29
  22124002.270     4162333.155 7   3192356.071 7
  21060093.396    -3015039.760 7  -2305405.081 8
  22417565.528     4584051.086 6   3516833.529 6
  22837181.411    -4313756.843 6  -3242814.169 6
  22538760.286    -2546614.832 6  -1950413.706 6
 94  2 15 17 29  0.0010000  0  5 25 14 15 22 29
  22139080.231     4241564.867 7   3254095.020 7
  21051292.716    -3061262.750 7  -2341422.997 8
  22434370.388     4672379.521 6   3585660.799 6
  22823617.771    -4385032.844 6  -3298353.889 5
  22530340.880    -2590832.192 6  -1984868.796 6
 94  2 15 17 29 30.0010000  0  5 25 14 15 22 29
  22154198.552     4321006.335 7   3315997.407 7
  21042551.380    -3107178.299 7  -2377201.337 8
  22451238.208     4760981.521 6   3654701.225 6
  22810093.927    -4456094.573 6  -3353726.687 5
  22521943.145    -2634994.845 6  -2019281.262 6
 94  2 15 17 30  0.0010000  0  5 25 14 15 22 29
  22169350.716     4400653.008 7   3378059.683 7
  21033876.669    -3152763.946 7  -2412722.650 8
  22468141.114     4849850.628 6   3723949.822 6
  22796609.497    -4526932.245 6  -3408924.905 5
  22513552.552    -2679082.882 6  -2053635.580 6
 94  2 15 17 30 30.0010000  0  5 25 14 15 22 29
  22184553.575     4480529.106 7   3440300.758 7
  21025275.403    -3198008.829 7  -2447978.400 8
  22485106.435     4938986.514 6   3793406.286 6
  22783181.841    -4597526.376 6  -3463933.337 5
  22505175.810    -2723084.603 6  -2087922.618 5
 94  2 15 17 31  0.0010000  0  5 25 14 15 22 29
  22199801.489     4560649.493 7   3502732.166 7
  21016726.505    -3242904.668 7  -2482962.180 8
  22502114.364     5028386.089 6   3863068.215 6
  22769804.177    -4667870.054 6  -3518746.590 6
  22496815.747    -2767008.470 6  -2122149.001 5
 94  2 15 17 31 30.0010000  0  5 25 14 15 22 29
  22215094.122     4641016.162 7   3565355.503 7
  21008252.130    -3287448.770 7  -2517671.857 8
  22519185.997     5118052.802 6   3932938.320 6
  22756463.067    -4737949.546 6  -3573353.991 6
  22488470.880    -2810856.451 6  -2156316.285 6
 94  2 15 17 32  0.0010000  0  5 25 14 15 22 29
  22230431.708     4721620.746 7   3628164.219 7
  20999835.075    -3331668.047 7  -2552128.464 8
  22536292.981     5207982.571 6   4003013.380 6
  22743175.106    -4807766.866 6  -3627757.148 5
  22480145.317    -2854647.543 6  -2190439.211 6
 94  2 15 17 32 30.0010000  0  5 25 14 15 22 29
  22245811.458     4802458.421 7   3691154.569 7
  20991479.989    -3375574.356 7  -2586341.184 9
  22553460.536     5298172.908 6   4073291.518 6
  22729940.427    -4877325.584 6  -3681958.791 6
  22471829.747    -2898405.188 7  -2224536.095 8
 94  2 15 17 33  0.0010000  0  5 25 14 15 22 29
  22261237.716     4883506.996 7   3754309.254 7
  20983185.208    -3419169.331 7  -2620311.287 7
  22570666.138     5388622.764 6   4143771.836 6
  22716749.849    -4946633.600 6  -3735965.045 6
  22463494.419    -2942140.240 6  -2258615.351 6
 94  2 15 17 33 30.0010000  0  5 25 14 15 22 29
  22276701.200     4964756.797 7   3817620.723 7
  20974949.435    -3462451.819 7  -2654037.917 8
  22587930.442     5479335.753 6   4214457.204 6
  22703605.013    -5015684.588 6  -3789771.037 6
  22455174.896    -2985851.206 6  -2292675.885 6
 94  2 15 17 34  0.0010000  0  5 25 14 15 22 29
  22292193.802     5046200.010 7   3881082.922 6
  20966770.396    -3505423.577 7  -2687522.414 8
  22605242.646     5570304.691 6   4285341.995 6
  22690521.888    -5084481.927 6  -3843379.368 5
  22446853.997    -3029547.033 6  -2326724.570 6
 94  2 15 17 34 30.0010000  0  5 25 14 15 22 29
  22307732.239     5127843.512 7   3944701.190 7
  20958654.122    -3548079.006 7  -2720760.415 8
  22622604.153     5661528.827 6   4356425.686 6
  22677473.513    -5153017.851 6  -3896784.045 5
  22438543.224    -3073219.194 6  -2360754.821 6
 94  2 15 17 35  0.0010000  0  6 25 18 14 15 22 29
  22323305.028     5209680.692 7   4008470.380 7
  24956676.294          -0.63314
  20950596.958    -3590417.104 7  -2753751.167 7
  22640010.497     5753000.669 6   4427702.350 6
  22664484.481    -5221297.984 6  -3949989.396 6
  22430247.661    -3116861.251 6  -2394761.635 6
 94  2 15 17 35 30.0010000  0  6 25 18 14 15 22 29
  22338918.146     5291733.849 7   4072407.837 7
  24942859.966      -72614.838 4
  20942596.911    -3632439.702 7  -2786496.042 7
  22657464.466     5844723.965 6   4499174.958 5
  22651548.638    -5289297.656 6  -4002976.181 6
  22421945.349    -3160452.408 6  -2428728.787 6
 94  2 15 17 36  0.0010000  0  5 25 14 15 22 29
  22354575.192     5374006.191 7   4136516.110 6
  20934661.419    -3674150.874 7  -2818998.269 7
  22674969.778     5936690.547 6   4570837.130 6
  22638654.528    -5357000.697 6  -4055731.810 5
  22413666.044    -3203979.412 6  -2462645.936 6
 94  2 15 17 36 30.0010000  0  5 25 14 15 22 29
  22370272.763     5456497.542 7   4200795.039 6
  20926796.474    -3715520.576 7  -2851234.424 7
  22692515.146     6028900.673 6   4642689.121 6
  22625836.872    -5424391.240 6  -4108243.982 5
  22405395.450    -3247430.972 6  -2496504.299 6
 94  2 15 17 37  0.0010000  0  6 25 18 14 15 22 29
  22386013.700     5539204.008 7   4265241.577 6
  24901359.669      -72703.119 3
  20918990.419    -3756524.256 7  -2883185.372 7
  22710102.708     6121351.378 6   4714728.515 6
  22613073.239    -5491462.090 6  -4160506.999 6
  22397145.349    -3290800.588 7  -2530298.789 6
 94  2 15 17 37 30.0010000  0  6 25 18 14 15 22 29
  22401792.419     5622131.860 7   4329860.622 7
  24887534.927     -145403.235 4
  20911256.841    -3797151.735 7  -2914843.153 7
  22727742.145     6214044.769 6   4786957.042 6
  22600371.630    -5558201.944 6  -4212512.097 6
  22388908.661    -3334083.378 7  -2564025.638 6
 94  2 15 17 38  0.0010000  0  6 25 18 14 15 22 29
  22417611.060     5705269.419 7   4394643.084 6
  24873699.278     -218094.180 3    -28321.04511
  20903600.333    -3837380.213 7  -2946190.025 7
  22745429.653     6306978.293 6   4859372.684 6
  22587733.599    -5624627.257 6  -4264272.150 6
  22380682.130    -3377293.999 6  -2597696.255 6
 94  2 15 17 38 30.0010000  0  6 25 18 14 15 22 29
  22433476.513     5788617.063 7   4459589.252 6
  24859865.591     -290780.161 3    -84959.551 1
  20896019.310    -3877203.051 7  -2977220.850 7
  22763168.747     6400149.991 6   4931973.954 6
  22575143.653    -5690759.513 6  -4315803.775 6
  22372478.192    -3420443.774 7  -2631319.460 6
 94  2 15 17 39  0.0010000  0  6 25 18 14 15 22 29
  22449378.661     5872190.980 7   4524711.735 6
  24846038.083     -363471.548 4   -141602.207 1
  20888524.224    -3916640.504 7  -3007951.339 7
  22780943.692     6493557.487 6   5004758.917 6
  22562611.919    -5756603.596 6  -4367110.904 5
  22364267.692    -3463529.791 6  -2664893.001 6
 94  2 15 17 39 30.0010000  0  6 25 18 14 15 22 29
  22465325.919     5955989.426 7   4590009.161 7
  24832190.083     -436185.938 4   -198262.785 1
  20881079.599    -3955711.497 7  -3038396.275 7
  22798751.333     6587201.542 6   5077728.236 6
  22550146.114    -5822147.635 6  -4418184.183 6
  22356086.435    -3506556.365 6  -2698420.197 6
 94  2 15 17 40  0.0010000  0  6 25 18 14 15 22 29
  22481316.833     6040001.498 7   4655473.039 6
  24818346.411     -508937.059 3
  20873718.731    -3994424.471 7  -3068562.263 7
  22816610.153     6681075.476 6   5150876.615 6
  22537728.942    -5887391.564 6  -4469023.605 6
  22347914.739    -3549526.353 7  -2731903.315 6
 94  2 15 17 40 30.0010000  0  6 25 18 14 15 22 29
  22497336.021     6124225.755 7   4721102.281 6
  24804502.372     -581735.592 5    -28368.06711
  20866417.685    -4032794.639 7  -3098461.092 7
  22834516.989     6775178.606 6   5224203.668 5
  22525379.888    -5952313.755 6  -4519612.291 6
  22339747.958    -3592422.570 6  -2765328.933 6
 94  2 15 17 41  0.0010000  0  6 25 18 14 15 22 29
  22513403.013     6208644.344 7   4786882.944 6
  24790638.935     -654581.781 5    -85131.328 1
  20859178.122    -4070827.275 7  -3128096.922 7
  22852475.981     6869506.590 6   5297705.921 5
  22513081.692    -6016900.611 6  -4569939.744 6
  22331600.606    -3635240.057 7  -2798693.232 6
 94  2 15 17 41 30.0010000  0  6 25 18 14 15 22 29
  22529496.458     6293233.108 7   4852796.199 6
  24776777.380     -727450.719 5   -141912.312 2
  20852009.083    -4108512.881 7  -3157462.353 7
  22870471.520     6964060.710 6   5371384.365 5
  22500861.583    -6081147.451 6  -4620002.232 6
  22323457.427    -3677987.552 6  -2832002.971 6
 94  2 15 17 42  0.0010000  0  6 25 18 14 15 22 29
  22545629.396     6377992.588 7   4918842.467 6
  24762893.778     -800327.330 3   -198699.313 1
  20844906.489    -4145830.817 7  -3186541.257 7
  22888496.778     7058834.694 6   5445234.099 5
  22488697.083    -6145072.531 7  -4669813.962 6
  22315344.497    -3720660.001 6  -2865254.218 6
 94  2 15 17 42 30.0010000  0  6 25 18 14 15 22 29
  22561791.981     6462937.162 7   4985032.989 6
  24749059.747     -873183.653 5   -255470.469 2
  20837882.653    -4182760.147 7  -3215317.363 7
  22906570.997     7153831.012 6   5519257.120 5
  22476590.341    -6208668.510 6  -4719369.246 6
  22307234.028    -3763248.245 6  -2898439.880 6
 94  2 15 17 43  0.0010000  0  6 25 18 14 15 22 29
  22577992.372     6548066.414 7   5051367.407 6
  24735187.466     -946013.873 3   -312221.242 2
  20830927.685    -4219287.649 7  -3243780.355 7
  22924693.388     7249041.527 6   5593446.998 5
  22464552.810    -6271947.477 6  -4768677.518 6
  22299151.669    -3805767.453 7  -2931571.743 6
 94  2 15 17 43 30.0010000  0  6 25 18 14 15 22 29
  22594231.020     6633402.899 7   5117863.321 6
  24721326.646    -1018808.235 4   -368944.197 1
  20824056.013    -4255396.707 7  -3271917.279 7
  22942851.208     7344468.730 6   5667805.794 6
  22452570.419    -6334897.973 6  -4817729.869 6
  22291076.997    -3848213.561 7  -2964646.652 6
 94  2 15 17 44  0.0010000  0  6 25 18 14 15 22 29
  22610512.794     6718962.769 7   5184533.282 6
  24707482.349    -1091580.812 5   -425650.074 1
  20817268.356    -4291086.604 7  -3299727.618 7
  22961055.778     7440105.646 6   5742327.973 5
  22440662.388    -6397501.827 6  -4866512.051 6
  22283014.778    -3890579.311 7  -2997658.941 6
 94  2 15 17 44 30.0010000  0  6 25 18 14 15 22 29
  22626834.849     6804740.567 7   5251373.077 6
  24693630.208    -1164333.036 4   -482340.069 1
  20810548.177    -4326368.644 7  -3327220.109 7
  22979299.505     7535953.989 6   5817014.870 5
  22428823.591    -6459735.176 6  -4915005.540 6
  22274965.005    -3932870.318 7  -3030612.983 6
 94  2 15 17 45  0.0010000  0  6 25 18 14 15 22 29
  22643198.114     6890724.953 6   5318373.840 6
  24679797.122    -1237082.695 3   -539028.080 1
  20803914.685    -4361258.235 7  -3354406.812 7
  22997580.427     7632011.731 6   5891864.963 5
  22417049.552    -6521585.787 7  -4963200.826 6
  22266930.919    -3975093.875 7  -3063514.453 6
 94  2 15 17 45 30.0010000  0  6 25 18 14 15 22 29
  22659599.614     6976907.143 7   5385528.697 6
  24665930.966    -1309827.341 2   -595712.281 2
  20797346.200    -4395766.931 7  -3381296.717 7
  23015894.278     7728275.175 6   5966875.327 5
  22405351.044    -6583033.716 6  -5011082.291 6
  22258908.192    -4017253.551 7  -3096366.148 6
 94  2 15 17 46  0.0010000  0  6 25 18 14 15 22 29
  22676028.645     7063268.327 7   5452823.078 6
  24652105.606    -1382573.181 3   -652397.365 1
  20790851.114    -4429894.636 7  -3407889.761 7
  23034246.638     7824740.950 6   6042043.387 5
  22393739.583    -6644075.909 7  -5058647.671 6
  22250893.013    -4059358.139 6  -3129174.928 6
 94  2 15 17 46 30.0010000  0  6 25 18 14 15 22 29
  22692498.739     7149793.060 7   5520244.892 6
  24638262.981    -1455317.517 3   -709081.292 1
  20784431.950    -4463638.842 7  -3434183.953 7
  23052648.958     7921407.133 6   6117367.568 5
  22382202.872    -6704723.400 6  -5105905.412 6
  22242889.200    -4101414.203 6  -3161945.896 6
 94  2 15 17 47  0.0010000  0  6 25 18 14 15 22 29
  22708996.185     7236487.629 7   5587799.058 6
  24624422.786    -1528058.764 3   -765762.706 1
  20778084.372    -4496983.576 7  -3460166.862 7
  23071078.583     8018270.237 6   6192845.209 5
  22370726.919    -6764978.591 6  -5152857.504 6
  22234904.224    -4143412.216 7  -3194671.624 6
 94  2 15 17 47 30.0010000  0  6 25 18 14 15 22 29
  22725525.747     7323356.390 7   5655488.952 6
  24610592.231    -1600792.599 2   -822438.319 1
  20771819.622    -4529904.106 7  -3485819.222 7
  23089545.771     8115329.169 6   6268475.458 5
  22359336.278    -6824852.419 6  -5199512.437 6
  22226922.247    -4185343.451 7  -3227345.327 6
 94  2 15 17 48  0.0010000  0  6 25 18 14 15 22 29
  22742085.278     7410396.690 6   5723312.482 6
  24596737.489    -1673532.396 3   -879118.691 1
  20765636.825    -4562386.812 7  -3511130.450 7
  23108056.497     8212580.736 6   6344255.790 5
  22348016.802    -6884367.458 7  -5245887.776 6
  22218961.974    -4227198.421 7  -3259959.601 6
 94  2 15 17 48 30.0010000  0  6 25 18 14 15 22 29
  22758688.864     7497620.207 7   5791278.808 6
  24582872.341    -1746281.042 3   -935805.899 1
  20759543.950    -4594423.345 7  -3536093.988 7
  23126595.130     8310020.890 6   6420183.114 5
  22336753.247    -6943535.610 6  -5291992.813 6
  22211003.849    -4268960.300 7  -3292501.332 6
 94  2 15 17 49  0.0010000  0  6 25 18 14 15 22 29
  22775320.138     7585036.223 7   5859395.137 6
  24569056.521    -1819044.734 3   -992504.818 1
  20753535.349    -4625999.164 7  -3560698.531 7
  23145172.646     8407646.408 6   6496254.828 5
  22325564.036    -7002354.170 6  -5337825.489 6
  22203079.950    -4310616.501 6  -3324960.721 6
 94  2 15 17 49 30.0010000  0  6 25 18 14 15 22 29
  22791995.560     7672635.777 7   5927654.489 6
  24555192.403    -1891828.164 4  -1049219.196 1
  20747611.825    -4657109.607 7  -3584940.452 7
  23163787.231     8505458.047 6   6572471.579 5
  22314435.903    -7060815.433 6  -5383379.674 6
  22195172.263    -4352172.315 7  -3357341.880 6
 94  2 15 17 50  0.0010000  0  6 25 18 14 15 22 29
  22808696.481     7760420.047 6   5996057.750 6
  24541343.052    -1964620.746 4  -1105940.626 1
  20741780.731    -4687762.462 7  -3608825.808 7
  23182434.997     8603454.283 6   6648832.147 5
  22303383.981    -7118901.153 7  -5428641.310 6
  22187281.747    -4393624.462 7  -3389642.238 6
 94  2 15 17 50 30.0010000  0  6 25 18 14 15 22 29
  22825436.763     7848388.081 6   6064604.204 6
  24527494.919    -2037408.604 5  -1162658.348 1
  20736030.489    -4717973.069 8  -3632366.554 7
  23201112.810     8701629.509 6   6725332.201 5
  22292403.513    -7176587.876 6  -5473592.007 6
  22179416.333    -4434972.741 6  -3421861.684 6
 94  2 15 17 51  0.0010000  0  6 25 18 14 15 22 29
  22842209.380     7936528.041 6   6133284.629 6
  24513633.661    -2110184.999 3  -1219367.130 1
  20730364.669    -4747758.340 7  -3655575.884 7
  23219821.192     8799982.308 6   6801970.623 5
  22281507.927    -7233849.475 6  -5518211.419 6
  22171561.442    -4476228.009 7  -3454008.670 6
 94  2 15 17 51 30.0010000  0  6 25 18 14 15 22 29
  22859007.239     8024828.734 6   6202090.301 6
  24499797.067    -2182938.229 4  -1276057.906 1
  20724772.247    -4777133.604 7  -3678465.724 7
  23238577.849     8898510.364 6   6878745.647 5
  22270698.794    -7290680.191 7  -5562495.108 6
  22163738.411    -4517395.169 7  -3486086.953 6
 94  2 15 17 52  0.0010000  0  6 25 18 14 15 22 29
  22875846.622     8113301.050 6   6271029.709 6
  24485965.075    -2255655.153 5  -1332720.439 1
  20719262.927    -4806106.449 7  -3701041.981 7
  23257369.028     8997213.081 6   6955656.750 5
  22259971.481    -7347073.012 7  -5606437.564 6
  22155912.474    -4558463.646 6  -3518088.355 7
 94  2 15 17 52 30.0010000  0  6 25 18 14 15 22 29
  22892712.685     8201928.885 7   6340090.310 6
  24472120.716    -2328358.422 5  -1389372.295 1
  20713822.020    -4834676.616 7  -3723304.449 7
  23276177.380     9096082.071 5   7032697.446 5
  22249313.638    -7403037.300 6  -5650046.117 6
  22148119.731    -4599449.842 7  -3550025.692 7
 94  2 15 17 53  0.0010000  0  6 25 18 14 15 22 29
  22909610.700     8290708.959 7   6409269.525 6
  24458280.427    -2401049.717 5  -1446014.874 1
  20708468.278    -4862821.855 7  -3745235.815 8
  23295033.552     9195117.934 6   7109868.113 5
  22238742.614    -7458585.205 7  -5693330.180 7
  22140333.653    -4640358.604 7  -3581902.643 7
 94  2 15 17 53 30.0010000  0  6 25 18 14 15 22 29
  22926534.388     8379648.687 7   6478573.152 6
  24444461.716    -2473724.147 4  -1502644.302 1
  20703196.622    -4890521.550 7  -3766820.018 8
  23313904.622     9294317.774 6   7187166.611 5
  22228250.591    -7513728.420 6  -5736298.948 6
  22132558.341    -4681193.628 7  -3613722.141 7
 94  2 15 17 54  0.0010000  0  6 25 18 14 15 22 29
  22943492.099     8468756.460 6   6548007.719 6
  24430641.591    -2546379.799 4
  20698014.927    -4917763.428 7  -3788047.469 7
  23332814.458     9393682.329 6   7264593.405 5
  22217839.880    -7568449.324 6  -5778938.596 6
  22124805.825    -4721953.610 7  -3645483.203 6
 94  2 15 17 54 30.0010000  0  6 25 18 14 15 22 29
  22960475.356     8558023.251 7   6617566.176 6
  24416817.372    -2619015.932 4        -0.12311
  20692921.677    -4944534.515 7  -3808908.052 7
  23351754.153     9493205.772 6   7342144.007 5
  22207504.130    -7622755.941 7  -5821255.439 6
  22117062.591    -4762640.576 6  -3677187.335 6
 94  2 15 17 55  0.0010000  0  6 25 18 14 15 22 29
  22977496.177     8647462.177 6   6687258.822 6
  24403000.888    -2691613.207 4    -56569.439 2
  20687913.278    -4970838.331 7  -3829404.541 8
  23370720.302     9592886.930 5   7419817.548 5
  22197244.997    -7676640.121 6  -5863243.097 6
  22109339.802    -4803247.774 7  -3708829.297 6
 94  2 15 17 55 30.0010000  0  6 25 18 14 15 22 29
  22994550.481     8737078.998 6   6757090.056 6
  24389199.122    -2764178.886 5   -113114.132 1
  20682997.794    -4996682.393 7  -3849542.786 8
  23389713.888     9692722.550 5   7497611.417 5
  22187075.669    -7730086.115 6  -5904889.280 6
  22101619.685    -4843773.673 7  -3740407.936 6
 94  2 15 17 56  0.0010000  0  6 25 18 14 15 22 29
  23011633.474     8826853.093 7   6827043.856 6
  24375375.341    -2836733.241 3   -169650.037 1
  20678161.216    -5022075.182 7  -3869329.383 8
  23408744.021     9792705.939 6   7575520.413 4
  22176990.950    -7783095.874 6  -5946195.596 6
  22093925.208    -4884205.973 7  -3771913.641 6
 94  2 15 17 56 30.0010000  0  6 25 18 14 15 22 29
  23028747.685     8916778.954 6   6897115.911 6
  24361575.888    -2909275.258 5   -226176.275 1
  20673419.552    -5047010.053 7  -3888759.139 7
  23427799.302     9892837.618 5   7653545.002 5
  22166980.192    -7835680.663 7  -5987170.751 7
  22086252.653    -4924541.112 7  -3803343.613 6
 94  2 15 17 57  0.0010000  0  6 25 18 14 15 22 29
  23045883.481     9006857.132 6   6967306.629 6
  24347788.075    -2981817.579 5   -282702.728 2
  20668760.138    -5071488.735 7  -3907833.450 7
  23446888.700     9993116.879 6   7731684.584 4
  22157054.958    -7887830.450 7  -6027806.925 6
  22078599.036    -4964775.486 7  -3834695.063 6
 94  2 15 17 57 30.0010000  0  6 25 18 14 15 22 29
  23063054.052     9097069.835 6   7037602.215 6
  24333963.442    -3054362.128 4   -339230.976 2
  20664191.177    -5095502.675 7  -3926545.611 7
  23465989.442    10093540.895 6   7809936.918 4
  22147219.833    -7939533.331 7  -6068094.844 6
  22070965.036    -5004899.008 7  -3865960.154 6
 94  2 15 17 58  0.0010000  0  6 25 18 14 15 22 29
  23080246.122     9187413.267 6   7107999.653 6
  24320167.075    -3126891.033 3   -395747.041 1
  20659710.896    -5119047.884 7  -3944892.538 7
  23485131.849    10194107.555 6   7888300.437 5
  22137462.427    -7990789.319 7  -6108034.572 6
  22063352.528    -5044899.444 7  -3897129.334 7
 94  2 15 17 58 30.0010000  0  6 25 18 14 15 22 29
  23097466.450     9277904.228 7   7178512.047 6
  24306363.192    -3199394.732 4   -452243.396 2
  20655322.771    -5142118.634 7  -3962869.755 7
  23504295.239    10294814.821 5   7966773.526 5
  22127801.755    -8041578.811 7  -6147610.787 6
  22055762.864    -5084794.113 7  -3928216.118 6
 94  2 15 17 59  0.0010000  0  6 25 18 14 15 22 29
  23114717.606     9368557.502 6   7249150.939 6
  24292570.981    -3271882.761 4   -508727.517 1
  20651025.622    -5164709.183 7  -3980472.796 7
  23523481.067    10395659.009 5   8045353.301 5
  22118226.091    -8091889.113 6  -6186813.599 6
  22048187.310    -5124582.530 7  -3959220.081 6
 94  2 15 17 59 30.0010000  0  6 25 18 14 15 22 29
  23132000.294     9459371.306 6   7319914.919 6
  24278791.427    -3344347.479 5   -565193.481 2
  20646813.841    -5186821.354 7  -3997703.059 7
  23542704.302    10496634.932 5   8124035.749 5
  22108750.974    -8141719.828 7  -6225642.710 6
  22040639.153    -5164273.789 7  -3990148.326 7
 94  2 15 18  0  0.0010000  0  6 25 18 14 15 22 29
  23149310.146     9550360.257 6   7390815.348 6
  24264996.591    -3416794.223 3   -621645.499 4
  20642696.349    -5208462.762 7  -4014566.495 7
  23561934.013    10597742.326 5   8202820.606 5
  22099350.442    -8191080.187 7  -6264105.296 6
  22033097.278    -5203869.990 7  -4021002.545 7
 94  2 15 18  0 30.0010000  0  6 25 18 14 15 22 29
  23166658.411     9641527.136 6   7461854.424 6
  24251220.325    -3489226.592 4   -678086.293 2
  20638670.075    -5229622.493 7  -4031054.608 7
  23581201.192    10698983.658 5   8281709.851 3
  22090043.755    -8239975.471 7  -6302205.526 7
  22025577.724    -5243375.396 7  -4051785.973 7
 94  2 15 18  1  0.0010000  0  6 25 18 14 15 22 29
  23184038.185     9732868.560 6   7533029.532 5
  24237450.099    -3561619.362 5   -734496.203 2
  20634736.364    -5250302.942 7  -4047169.243 7
  23600494.583    10800361.434 5   8360705.394 4
  22080833.747    -8288416.529 7  -6339951.775 6
  22018082.614    -5282761.296 7  -4082476.280 6
 94  2 15 18  1 30.0010000  0  6 25 18 14 15 22 29
  23201447.575     9824358.272 6   7604320.168 5
  24223694.021    -3633952.451 5   -790859.624 2
  20630888.130    -5270511.751 7  -4062916.353 7
  23619810.466    10901869.831 5   8439802.712 4
  22071694.560    -8336410.944 7  -6377350.009 7
  22010610.708    -5322020.585 7  -4113067.928 6
 94  2 15 18  2  0.0010000  0  6 25 18 14 15 22 29
  23218890.872     9915986.218 6   7675718.520 5
  24209914.067    -3706225.343 3   -847176.064 2
  20627136.958    -5290235.669 7  -4078285.648 7
  23639161.981    11003502.195 5   8518996.688 4
  22062648.864    -8383969.227 7  -6414408.417 6
  22003172.606    -5361151.345 7  -4143559.431 7
 94  2 15 18  2 30.0010000  0  6 25 18 14 15 22 29
  23236347.997    10007744.428 6   7747218.376 5
  24196182.942    -3778431.018 3   -903440.180 1
  20623477.731    -5309452.083 7  -4093259.498 7
  23658514.911    11105256.419 5   8598285.527 2
  22053686.294    -8431071.679 7  -6451111.591 6
  21995744.122    -5400157.083 7  -4173953.526 7
 94  2 15 18  3  0.0010000  0  6 25 18 14 15 22 29
  23253837.692    10099629.764 6   7818817.272 5
  24182455.083    -3850577.699 5   -959658.349 2
  20619921.794    -5328158.428 7  -4107835.889 7
  23677893.271    11207130.331 5   8677667.681 5
  22044806.083    -8477692.237 6  -6487439.322 7
  21988352.716    -5439033.503 7  -4204246.837 7
 94  2 15 18  3 30.0010000  0  6 25 18 14 15 22 29
  23271340.622    10191637.042 6   7890511.202 5
  24168733.646    -3922699.983 4  -1015857.508 3
  20616458.122    -5346344.917 7  -4122007.173 7
  23697308.239    11309117.179 5   8757137.864 4
  22036038.192    -8523816.402 7  -6523380.215 6
  21980973.810    -5477801.265 7  -4234455.482 7
 94  2 15 18  4  0.0010000  0  6 25 18 14 15 22 29
  23288875.958    10283775.905 6   7962307.630 5
  24155012.075    -3994820.191 5  -1072055.025 2
  20613100.021    -5364011.394 7  -4135773.245 7
  23716733.020    11411213.824 5   8836693.598 3
  22027357.521    -8569429.055 7  -6558922.500 6
  21973613.903    -5516470.368 7  -4264587.243 7
 94  2 15 18  4 30.0010000  0  6 25 18 14 15 22 29
  23306433.286    10376054.130 6   8034212.712 5
  24141280.669    -4066944.258 5  -1128255.567 2
  20609832.810    -5381178.309 7  -4149150.058 7
  23736186.856    11513417.130 5   8916332.380 2
  22018768.028    -8614520.756 7  -6594058.863 7
  21966271.427    -5555041.017 7  -4294642.268 7
 94  2 15 18  5  0.0010000  0  6 25 18 14 15 22 29
  23324023.411    10468474.563 6   8106228.546 5
  24127563.013    -4139064.482 5  -1184453.059 2
  20606659.513    -5397859.986 7  -4162148.780 7
  23755665.552    11615724.510 5   8996052.315 4
  22010289.052    -8659109.085 7  -6628803.046 7
  21958946.185    -5593512.771 7  -4324620.247 7
 94  2 15 18  5 30.0010000  0  6 25 18 14 15 22 29
  23341638.700    10561036.187 6   8178354.419 6
  24113836.067    -4211162.747 5  -1240633.496 2
  20603572.169    -5414058.859 7  -4174771.308 7
  23775131.169    11718132.351 5   9075850.496 4
  22001902.935    -8703203.360 7  -6663162.207 7
  21951652.919    -5631891.493 7  -4354525.740 6
 94  2 15 18  6  0.0010000  0  6 25 18 14 15 22 29
  23359280.708    10653730.343 6   8250583.585 6
  24100129.013    -4283220.057 5  -1296782.048 2
  20600584.614    -5429769.048 7  -4187013.029 7
  23794654.271    11820638.683 5   9155725.439 4
  21993602.317    -8746805.479 7  -6697137.866 6
  21944367.122    -5670173.102 7  -4384355.561 6
 94  2 15 18  6 30.0010000  0  6 25 18 14 15 22 29
  23376939.833    10746556.950 6   8322915.934 5
  24086423.653    -4355226.638 3  -1352891.019 2
  20597686.786    -5444977.826 7  -4198864.025 7
  23814175.036    11923243.304 5   9235676.945 4
  21985399.747    -8789911.681 7  -6730727.069 6
  21937105.177    -5708348.318 7  -4414102.464 6
 94  2 15 18  7  0.0010000  0  6 25 18 14 15 22 29
  23394622.989    10839501.028 6   8395339.836 6
  24072731.106    -4427184.864 5  -1408962.335 1
  20594887.872    -5459668.397 7  -4210311.227 7
  23833710.302    12025940.623 5   9315700.712 3
  21977290.997    -8832514.815 7  -6763924.303 6
  21929859.856    -5746416.799 7  -4443766.225 7
 94  2 15 18  7 30.0010000  0  6 25 18 14 15 22 29
  23412336.083    10932559.093 6   8467852.548 6
  24059054.169    -4499105.027 5  -1465003.963 3
  20592197.075    -5473821.195 7  -4221339.399 7
  23853271.153    12128729.746 5   9395795.992 5
  21969289.083    -8874598.496 7  -6796716.733 6
  21922630.177    -5784371.726 7  -4473341.525 7
 94  2 15 18  8  0.0010000  0  6 25 18 14 15 22 29
  23430065.692    11025735.487 6   8540457.453 6
  24045367.396    -4570994.915 5  -1521022.004 4
  20589609.013    -5487429.473 7  -4231943.269 7
  23872853.638    12231606.201 5   9475959.336 5
  21961368.013    -8916168.449 6  -6829108.864 7
  21915440.286    -5822199.684 7  -4502817.839 6
 94  2 15 18  8 30.0010000  0  6 25 18 14 15 22 29
  23447820.606    11119038.024 6   8613160.681 6
  24031697.278    -4642851.207 4  -1577013.890 4
  20587123.989    -5500502.253 7  -4242129.861 7
  23892440.810    12334568.903 5   9556189.895 2
  21953555.521    -8957238.199 7  -6861111.246 7
  21908261.825    -5859895.949 7  -4532191.539 7
 94  2 15 18  9  0.0010000  0  6 25 18 14 15 22 29
  23465600.442    11212465.774 6   8685961.442 6
  24018010.669    -4714662.643 4  -1632970.858 2
  20584738.427    -5513048.402 7  -4251906.089 7
  23912055.575    12437614.395 5   9636484.922 3
  21945836.591    -8997812.615 7  -6892727.636 7
  21901114.731    -5897467.056 7  -4561467.749 7
 94  2 15 18  9 30.0010000  0  6 25 18 14 15 22 29
  23483402.622    11306020.522 6   8758861.167 6
  24004369.724    -4786426.326 4  -1688890.565 1
  20582445.708    -5525074.811 7  -4261277.326 7
  23931681.646    12540736.722 5   9716839.852 2
  21938208.927    -9037892.868 6  -6923958.963 7
  21893988.317    -5934914.952 7  -4590647.919 7
 94  2 15 18 10  0.0010000  0  6 25 18 14 15 22 29
  23501227.942    11399700.900 6   8831858.767 6
  23990729.692    -4858136.083 4  -1744768.248 1
  20580255.903    -5536588.882 7  -4270249.359 7
  23951311.458    12643936.661 5   9797255.221 5
  21930672.497    -9077469.442 7  -6954797.809 7
  21886884.356    -5972235.896 7  -4619729.181 7
 94  2 15 18 10 30.0010000  0  6 25 18 14 15 22 29
  23519080.294    11493493.322 6   8904943.695 5
  23977089.794    -4929800.685 5  -1800610.747 3
  20578159.286    -5547608.890 7  -4278836.411 7
  23970970.567    12747206.958 5   9877725.451 4
  21923246.185    -9116526.909 7  -6985232.176 7
  21879801.942    -6009446.607 7  -4648724.555 7
 94  2 15 18 11  0.0010000  0  6 25 18 14 15 22 29
  23536947.981    11587406.732 6   8978122.874 5
  23963456.489    -5001428.283 5  -1856424.376 4
  20576154.927    -5558128.186 7  -4287033.289 7
  23990641.763    12850547.608 5   9958250.574 2
  21915919.231    -9155036.505 7  -7015239.613 6
  21872746.153    -6046546.856 7  -4677633.839 7
 94  2 15 18 11 30.0010000  0  6 25 18 14 15 22 29
  23554842.677    11681425.475 6   9051384.135 5
  23949828.349    -5073037.238 3  -1912223.565 3
  20574253.466    -5568134.335 7  -4294830.300 7
  24010319.278    12953956.788 5  10038828.955 4
  21908691.286    -9193002.124 7  -7044823.167 7
  21865707.091    -6083529.440 7  -4706451.453 7
 94  2 15 18 12  0.0010000  0  6 25 18 14 15 22 29
  23572747.302    11775543.876 6   9124723.056 5
  23936207.481    -5144636.972 5  -1968015.569 2
  20572441.255    -5577640.868 7  -4302238.008 7
  24029988.333    13057428.355 5  10119455.949 2
  21901574.521    -9230440.432 7  -7073995.844 7
  21858690.497    -6120396.341 7  -4735178.933 7
 94  2 15 18 12 30.0010000  0  6 25 18 14 15 22 29
  23590678.646    11869765.765 6   9198142.606 5
  23922593.841    -5216209.865 5  -2023786.575 1
  20570734.067    -5586633.076 7  -4309244.930 7
  24049688.731    13160964.554 5  10200133.406 2
  21894541.646    -9267352.482 6  -7102758.438 6
  21851698.052    -6157142.978 7  -4763812.708 6
 94  2 15 18 13  0.0010000  0  6 25 18 14 15 22 29
  23608626.849    11964069.506 6   9271625.951 5
  23908968.903    -5287751.951 5  -2079533.618 1
  20569120.286    -5595090.945 7  -4315835.504 7
  24069420.052    13264557.051 5  10280854.714 4
  21887622.122    -9303754.230 7  -7131123.449 7
  21844728.427    -6193761.984 7  -4792346.960 7
 94  2 15 18 13 30.0010000  0  6 25 18 14 15 22 29
  23626585.849    12058438.103 5   9345159.837 6
  23895369.435    -5359249.889 5  -2135246.281 2
  20567618.435    -5603007.738 8  -4322004.446 7
  24089140.372    13368204.643 5  10361618.931 4
  21880783.333    -9339645.881 7  -7159090.958 7
  21837792.231    -6230251.991 7  -4820780.726 7
 94  2 15 18 14  0.0010000  0  6 25 18 14 15 22 29
  23644553.646    12152890.474 5   9418759.039 6
  23881768.661    -5430675.565 5  -2190902.624 2
  20566213.419    -5610383.754 7  -4327751.997 7
  24108876.192    13471908.177 5  10442426.683 4
  21874060.341    -9375007.039 7  -7186645.075 7
  21830866.075    -6266611.642 7  -4849112.917 7
 94  2 15 18 14 30.0010000  0  6 25 18 14 15 22 29
  23662545.911    12247424.938 5   9492422.211 5
  23868193.575    -5502029.547 5  -2246503.090 2
  20564914.114    -5617210.440 7  -4333071.511 7
  24128619.106    13575661.425 5  10523273.186 2
  21867432.856    -9409819.172 7  -7213771.389 7
  21823971.091    -6302846.644 7  -4877347.974 7
 94  2 15 18 15  0.0010000  0  6 25 18 14 15 22 29
  23680553.544    12342046.950 5   9566153.588 5
  23854630.263    -5573328.654 5  -2302060.881 2
  20563718.052    -5623496.451 7  -4337969.741 7
  24148361.177    13679461.298 5  10604156.055 2
  21860915.958    -9444073.520 7  -7240463.085 7
  21817101.622    -6338959.277 7  -4905487.704 7
 94  2 15 18 15 30.0010000  0  6 25 18 14 15 22 29
  23698582.536    12436782.175 6   9639973.193 5
  23841068.567    -5644570.197 5  -2357573.746 2
  20562621.685    -5629257.397 7  -4342458.804 7
  24168145.036    13783305.345 5  10685073.338 1
  21854507.786    -9477772.413 7  -7266721.950 7
  21810252.794    -6374956.405 7  -4933537.420 7
 94  2 15 18 16  0.0010000  0  6 25 18 14 15 22 29
  23716633.083    12531635.886 6   9713885.060 5
  23827526.661    -5715771.409 5  -2413055.114 2
  20561626.005    -5634501.361 8  -4346545.022 7
  24187893.114    13887188.533 3  10766021.110 1
  21848195.419    -9510929.589 7  -7292558.734 7
  21803428.349    -6410832.618 7  -4961492.920 7
 94  2 15 18 16 30.0010000  0  6 25 18 14 15 22 29
  23734698.794    12626593.049 6   9787877.571 5
  23813975.442    -5786953.403 5  -2468521.581 3
  20560728.294    -5639215.114 7  -4350218.075 7
  24207698.364    13991106.413 2
  21841982.872    -9543556.989 7  -7317982.662 7
  21796621.786    -6446596.236 7  -4989360.682 7
 94  2 15 18 17  0.0010000  0  5 25 18 14 22 29
  23752787.622    12721648.951 6   9861946.994 5
  23800433.778    -5858109.102 5  -2523967.582 2
  20559933.653    -5643393.099 7  -4353473.665 7
  21835876.005    -9575666.817 7  -7343003.285 6
  21789832.052    -6482242.079 7  -5017136.685 7
 94  2 15 18 17 30.0010000  0  5 25 18 14 22 29
  23770900.216    12816806.235 6   9936095.472 5
  23786895.231    -5929225.767 5  -2579383.157 1
  20559241.489    -5647024.602 7  -4356303.424 7
  21829855.919    -9607254.062 7  -7367616.718 7
  21783073.247    -6517763.606 7  -5044815.792 7
 94  2 15 18 18  0.0010000  0  5 25 18 14 22 29
  23789024.185    12912043.975 6  10010306.596 6
  23773376.458    -6000308.917 5  -2634772.537 1
  20558653.919    -5650107.122 7  -4358705.418 7
  21823950.896    -9638307.024 7  -7391813.808 7
  21776341.458    -6553174.120 7  -5072408.388 7
 94  2 15 18 18 30.0010000  0  5 25 18 14 22 29
  23807159.364    13007371.088 6  10084587.369 6
  23759860.888    -6071334.103 5  -2690116.806 1
  20558176.513    -5652624.448 7  -4360667.003 7
  21818149.700    -9668801.432 7  -7415575.677 7
  21769622.239    -6588473.168 7  -5099914.180 7
 94  2 15 18 19  0.0010000  0  5 25 18 14 22 29
  23825320.153    13102792.384 6  10158941.522 5
  23746361.192    -6142296.113 5  -2745411.842 4
  20557798.349    -5654590.512 7  -4362199.002 7
  21812458.724    -9698724.977 7  -7438892.713 7
  21762928.224    -6623642.577 7  -5127318.916 7
 94  2 15 18 19 30.0010000  0  5 25 18 14 22 29
  23843492.942    13198308.050 6  10233369.234 5
  23732860.161    -6213199.968 5  -2800661.573 3
  20557529.302    -5656006.356 7  -4363302.282 7
  21806876.708    -9728063.562 7  -7461753.924 7
  21756257.661    -6658691.146 7  -5154629.484 7
 94  2 15 18 20  0.0010000  0  5 25 18 14 22 29
  23861688.810    13293916.198 6  10307869.024 5
  23719373.224    -6284043.301 5  -2855864.162 2
  20557367.794    -5656858.677 7  -4363966.432 6
  21801404.333    -9756804.232 7  -7484149.201 7
  21749618.802    -6693606.083 7  -5181835.945 7
 94  2 15 18 20 30.0010000  0  5 25 18 14 22 29
  23879895.146    13389622.768 5  10382445.520 6
  23705913.903    -6354831.109 5  -2911023.415 3
  20557314.700    -5657147.821 7  -4364191.746 6
  21796045.380    -9784959.299 7  -7506088.213 7
  21742995.849    -6728367.368 7  -5208922.663 7
 94  2 15 18 21  0.0010000  0  5 25 18 14 22 29
  23898130.388    13485421.087 6  10457093.482 5
  23692450.099    -6425569.352 5  -2966144.084 3
  20557365.271    -5656891.391 7  -4363991.953 7
  21790797.505    -9812544.812 7  -7527583.392 7
  21736414.833    -6762977.353 7  -5235891.481 7
 94  2 15 18 21 30.0010000  0  5 25 18 14 22 29
  23916372.231    13581303.238 5  10531806.743 5
  23678992.560    -6496259.389 5  -3021227.189 3
  20557517.075    -5656090.813 8  -4363368.137 7
  21785654.927    -9839570.920 7  -7548642.667 7
  21729851.130    -6797453.312 7  -5262755.858 7
 94  2 15 18 22  0.0010000  0  5 25 18 14 22 29
  23934636.669    13677261.063 6  10606578.994 5
  23665552.263    -6566908.156 5  -3076278.104 3
  20557773.817    -5654749.682 7  -4362323.113 7
  21780613.005    -9866054.596 7  -7569279.257 7
  21723320.263    -6831783.848 7  -5289506.943 7
 94  2 15 18 22 30.0010000  0  5 25 18 14 22 29
  23952915.817    13773303.501 5  10681417.171 5
  23652123.770    -6637502.350 5  -3131286.522 5
  20558133.380    -5652873.256 7  -4360860.974 7
  21775673.458    -9892003.710 7  -7589499.305 7
  21716816.560    -6865967.988 7  -5316143.943 7
 94  2 15 18 23  0.0010000  0  5 25 18 14 22 29
  23971206.364    13869410.611 5  10756305.763 5
  23638711.169    -6708052.551 5  -3186260.675 5
  20558590.771    -5650461.917 7  -4358982.028 7
  21770843.005    -9917406.397 7  -7609293.562 7
  21710332.294    -6900015.435 7  -5342674.414 7
 94  2 15 18 23 30.0010000  0  5 25 18 14 22 29
  23989502.036    13965583.008 5  10831245.133 3
  23625284.567    -6778560.803 5  -3241202.168 4
  20559154.208    -5647491.228 7  -4356667.227 7
  21766120.278    -9942243.089 7  -7628646.820 7
  21703882.231    -6933921.739 7  -5369094.906 7
 94  2 15 18 24  0.0010000  0  5 25 18 14 22 29
  24007823.685    14061825.335 5  10906239.092 2
  23611865.536    -6849020.198 5  -3296105.487 4
  20559823.817    -5643949.567 7  -4353907.505 6
  21761501.341    -9966507.625 7  -7647554.220 7
  21697456.481    -6967678.080 7  -5395398.554 8
 94  2 15 18 24 30.0010000  0  5 25 18 14 22 29
  24026141.356    14158135.689 5  10981286.005 2
  23598465.146    -6919437.408 5  -3350975.989 4
  20560607.825    -5639839.732 7  -4350705.042 6
  21756994.255    -9990188.382 7  -7666006.710 8
  21691061.099    -7001300.739 7  -5421598.034 7
 94  2 15 18 25  0.0010000  0  5 25 18 14 22 29
  24044482.927    14254506.295 5  11056379.855 4
  23585074.060    -6989814.632 5  -3405815.354 5
  20561502.638    -5635141.879 7  -4347044.386 7
  21752595.747   -10013269.526 7  -7683992.007 7
  21684681.833    -7034792.317 7  -5447695.366 7
 94  2 15 18 25 30.0010000  0  6 25 18 14 19 22 29
  24062838.442    14350939.965 5  11131522.863 4
  23571698.731    -7060146.981 5  -3460619.739 4
  20562506.185    -5629864.020 7  -4342931.777 7
  25073448.583      -89787.892 4
  21748316.708   -10035758.280 7  -7701515.689 7
  21678335.177    -7068160.878 7  -5473696.831 7
 94  2 15 18 26  0.0010000  0  6 25 18 14 19 22 29
  24081197.841    14447429.037 5  11206709.072 5
  23558319.833    -7130436.239 5  -3515390.547 3
  20563614.661    -5624024.282 7  -4338381.351 7
  25056410.224     -179422.128 3        -0.05012
  21744157.677   -10057659.592 7  -7718581.595 7
  21672011.583    -7101402.942 7  -5499599.745 7
 94  2 15 18 26 30.0010000  0  6 25 18 14 19 22 29
  24099566.505    14543980.561 5  11281943.908 5
  23544955.888    -7200679.424 6  -3570125.435 2
  20564835.591    -5617639.229 7  -4333406.009 7
  25039365.849     -268913.609 3    -69733.572 2
  21740095.552   -10078961.602 7  -7735180.590 8
  21665711.302    -7134516.008 7  -5525402.114 7
 94  2 15 18 27  0.0010000  0  6 25 18 14 19 22 29
  24117951.771    14640590.429 6  11357224.240 5
  23531600.653    -7270859.746 5  -3624811.358 4
  20566151.692    -5610716.284 7  -4328011.540 7
  25022365.724     -358254.336 4   -139349.544 2
  21736159.099   -10099672.711 7  -7751319.087 7
  21659438.044    -7167498.572 7  -5551102.832 7
 94  2 15 18 27 30.0010000  0  6 25 18 14 19 22 29
  24136355.833    14737270.439 5  11432559.208 6
  23518253.286    -7340970.281 5  -3679442.961 3
  20567571.841    -5603276.181 7  -4322214.074 7
  25005393.927     -447439.558 3   -208844.428 2
  21732329.974   -10119802.099 7  -7767004.293 7
  21653184.310    -7200344.575 7  -5576697.131 7
 94  2 15 18 28  0.0010000  0  6 25 18 14 19 22 29
  24154762.771    14834015.378 5  11507944.753 5
  23504929.888    -7411005.447 6  -3734015.792 2
  20569083.310    -5595312.486 7  -4316008.608 7
  24988457.731     -536475.394 4   -278222.837 1
  21728603.364   -10139362.079 7  -7782245.813 7
  21646961.271    -7233044.866 7  -5602177.859 7
 94  2 15 18 28 30.0010000  0  6 25 18 14 19 22 29
  24173188.396    14930823.688 5  11583379.708 5
  23491619.427    -7480961.210 6  -3788526.657 3
  20570705.630    -5586802.618 7  -4309377.548 6
  24971541.341     -625341.902 3   -347469.361 2
  21724993.161   -10158349.562 7  -7797041.261 7
  21640766.880    -7265591.337 7  -5627538.759 7
 94  2 15 18 29  0.0010000  0  6 25 18 14 19 22 29
  24191615.825    15027676.932 5  11658849.639 5
  23478308.528    -7550850.440 5  -3842985.781 2
  20572428.591    -5577724.786 7  -4302303.951 7
  24954662.653     -714030.916 3   -416577.531 1
  21721487.966   -10176774.013 7  -7811397.918 7
  21634602.825    -7297979.605 7  -5652776.375 7
 94  2 15 18 29 30.0010000  0  6 25 18 14 19 22 29
  24210053.724    15124575.191 5  11734354.607 5
  23465023.200    -7620677.644 5  -3897396.556 4
  20574268.146    -5568066.156 7  -4294777.766 7
  24937821.536     -802553.198 4   -485555.868 2
  21718088.083   -10194624.220 7  -7825307.138 7
  21628475.638    -7330197.878 7  -5677881.527 7
 94  2 15 18 30  0.0010000  0  6 25 18 14 19 22 29
  24228501.481    15221506.668 5  11809885.505 5
  23451748.349    -7690446.976 5  -3951762.236 5
  20576216.606    -5557812.697 7  -4286788.083 7
  24920999.583     -890907.372 2   -554403.173 1
  21714803.864   -10211885.333 7  -7838757.357 7
  21622373.349    -7362247.541 7  -5702855.287 7
 94  2 15 18 30 30.0010000  0  6 25 18 14 19 22 29
  24246950.036    15318477.389 5  11885447.076 5
  23438483.778    -7760161.775 5  -4006085.416 4
  20578281.505    -5546968.836 7  -4278338.353 7
  24904227.091     -979095.405 4   -623121.088 2
  21711640.060   -10228538.425 7  -7851733.779 8
  21616301.911    -7394142.901 7  -5727708.834 8
 94  2 15 18 31  0.0010000  0  6 25 18 14 19 22 29
  24265414.849    15415489.871 5  11961041.084 5
  23425231.716    -7829812.558 5  -4060358.716 4
  20580454.810    -5535554.676 7  -4269444.225 7
  24887478.052    -1067127.179 4   -691717.228 2
  21708576.747   -10244596.395 7  -7864246.496 7
  21610264.747    -7425893.264 7  -5752449.384 7
 94  2 15 18 31 30.0010000  0  6 25 18 14 19 22 29
  24283892.380    15512560.159 6  12036680.137 5
  23411989.060    -7899384.949 5  -4114570.917 4
  20582733.872    -5523577.110 7  -4260111.085 7
  24870744.989    -1154996.818 3   -760187.018 1
  21705636.388   -10260051.265 7  -7876289.219 7
  21604247.200    -7457504.194 7  -5777081.276 7
 94  2 15 18 32  0.0010000  0  6 25 18 14 19 22 29
  24302369.153    15609687.545 6  12112363.727 5
  23398762.974    -7968884.111 5  -4168726.051 3
  20585120.997    -5511030.871 7  -4250334.821 7
  24854057.075    -1242691.093 3   -828520.170 3
  21702811.802   -10274906.469 7  -7887864.680 7
  21598265.739    -7488972.416 7  -5801601.978 7
 94  2 15 18 32 30.0010000  0  6 25 18 14 19 22 29
  24320856.239    15706879.629 5  12188097.694 5
  23385562.888    -8038310.684 6  -4222824.632 4
  20587611.708    -5497913.528 7  -4240113.537 7
  24837407.099    -1330201.110 4   -896709.767 2
  21700100.239   -10289171.359 7  -7898980.163 7
  21592303.325    -7520294.849 7  -5826009.060 8
 94  2 15 18 33  0.0010000  0  6 25 18 14 19 22 29
  24339364.958    15804134.593 6  12263880.659 5
  23372355.606    -8107665.294 6  -4276867.166 5
  20590217.599    -5484216.073 7  -4229440.211 7
  24820798.919    -1417524.250 4   -964753.818 1
  21697495.942   -10302857.930 7  -7909645.011 7
  21586366.950    -7551460.996 7  -5850294.378 7
 94  2 15 18 33 30.0010000  0  6 25 18 14 19 22 29
  24357886.020    15901452.467 5  12339712.680 5
  23359168.278    -8176951.410 5  -4330856.286 5
  20592947.575    -5469920.676 7  -4218300.961 7
  24804221.333    -1504660.709 5  -1032652.246 4
  21695001.817   -10315947.950 7  -7919844.994 7
  21580474.591    -7582464.945 7  -5874453.281 7
 94  2 15 18 34  0.0010000  0  6 25 18 14 19 22 29
  24376413.122    15998816.533 5  12415580.691 5
  23346000.942    -8246168.830 5  -4384791.871 4
  20595782.606    -5455022.916 7  -4206692.330 7
  24787653.653    -1591618.682 3  -1100411.707 2
  21692621.060   -10328443.841 7  -7929582.029 7
  21574601.122    -7613300.690 7  -5898481.136 7
 94  2 15 18 34 30.0010000  0  6 25 18 14 19 22 29
  24394957.356    16096211.530 5  12491472.791 5
  23332843.435    -8315325.377 5  -4438680.029 5
  20598721.513    -5439549.977 7  -4194635.520 7
  24771156.966    -1678419.804 5  -1168048.894 2
  21690359.872   -10340350.171 7  -7938859.678 7
  21568764.903    -7643984.597 7  -5922390.676 8
 94  2 15 18 35  0.0010000  0  6 25 18 14 19 22 29
  24413488.849    16193636.139 5  12567387.923 5
  23319695.685    -8384410.268 6  -4492512.394 4
  20601777.747    -5423499.379 7  -4182128.574 7
  24754638.794    -1765074.532 3  -1235572.032 4
  21688210.708   -10351645.432 7  -7947661.158 7
  21562948.310    -7674511.715 7  -5946178.036 8
 94  2 15 18 35 30.0010000  0  6 25 18 14 19 22 29
  24432026.880    16291080.054 5  12643318.118 5
  23306565.981    -8453428.945 5  -4546293.134 5
  20604944.450    -5406883.177 7  -4169180.899 7
  24738206.114    -1851580.112 5  -1302978.862 2
  21686181.036   -10362320.111 7  -7955979.079 7
  21557173.442    -7704890.839 7  -5969850.083 7
 94  2 15 18 36  0.0010000  0  6 25 18 14 19 22 29
  24450586.997    16388552.989 5  12719270.966 5
  23293438.435    -8522386.386 6  -4600026.210 5
  20608210.052    -5389710.532 7  -4155799.635 7
  24721765.153    -1937916.065 5  -1370253.568 3
  21684266.403   -10372356.224 7  -7963799.418 7
  21551418.942    -7735122.861 7  -5993407.481 8
 94  2 15 18 36 30.0010000  0  6 25 18 14 19 22 29
  24469138.427    16486070.086 5  12795258.217 5
  23280325.606    -8591286.935 6  -4653714.912 5
  20611575.685    -5371982.305 7  -4141985.457 7
  24705362.427    -2024070.792 5  -1437386.976 2
  21682479.325   -10381750.209 7  -7971119.382 7
  21545694.771    -7765210.440 7  -6016852.359 8
 94  2 15 18 37  0.0010000  0  6 25 18 14 19 22 29
  24487704.153    16583638.616 5  12871285.550 5
  23267228.849    -8660118.787 6  -4707350.024 5
  20615065.942    -5353675.575 7  -4127720.483 7
  24689010.216    -2110020.255 4  -1504360.528 2
  21680816.130   -10390504.127 7  -7977940.616 7
  21539999.364    -7795145.665 7  -6040178.506 8
 94  2 15 18 37 30.0010000  0  6 25 18 14 19 22 29
  24506286.364    16681260.638 5  12947354.462 5
  23254138.114    -8728888.713 5  -4760936.945 5
  20618659.138    -5334785.945 7  -4113001.317 7
  24672701.122    -2195740.651 5  -1571155.479 4
  21679272.864   -10398628.994 7  -7984271.647 7
  21534334.091    -7824920.338 7  -6063379.529 7
 94  2 15 18 38  0.0010000  0  6 25 18 14 19 22 29
  24524872.528    16778935.821 5  13023464.888 3
  23241055.833    -8797589.560 6  -4814470.073 5
  20622367.560    -5315306.905 7  -4097822.855 7
  24656431.505    -2281239.459 3  -1637777.893 1
  21677839.685   -10406141.355 7  -7990125.414 7
  21528700.466    -7854523.646 7  -6086447.031 8
 94  2 15 18 38 30.0010000  0  6 25 18 14 19 22 29
  24543462.122    16876649.475 5  13099605.274 3
  23228004.950    -8866213.541 5  -4867943.261 5
  20626185.880    -5295228.594 7  -4082177.426 7
  24640196.044    -2366528.853 5  -1704237.073 2
  21676529.247   -10413064.725 7  -7995520.238 7
  21523096.575    -7883951.543 7  -6109377.864 8
 94  2 15 18 39  0.0010000  0  6 25 18 14 19 22 29
  24562056.474    16974379.526 5  13175758.414 3
  23214964.356    -8934760.627 5  -4921356.544 5
  20630121.567    -5274554.649 7  -4066067.882 7
  24624001.903    -2451619.948 4  -1770541.700 1
  21675315.872   -10419405.426 7  -8000461.035 7
  21517531.888    -7913209.455 7  -6132176.216 7
 94  2 15 18 39 30.0010000  0  6 25 18 14 19 22 29
  24580663.880    17072118.813 5  13251918.711 3
  23201932.888    -9003232.369 6  -4974711.095 5
  20634165.958    -5253297.201 7  -4049503.648 7
  24607847.075    -2536534.413 5  -1836708.791 1
  21674218.528   -10425157.578 7  -8004943.213 8
  21512000.755    -7942302.399 7  -6154846.017 8
 94  2 15 18 40  0.0010000  0  6 25 18 14 19 22 29
  24599257.528    17169857.378 5  13328078.546 5
  23188924.974    -9071615.761 5  -5027996.787 5
  20638321.481    -5231453.497 7  -4032482.596 7
  24591724.435    -2621283.752 4  -1902747.182 2
  21673240.997   -10430321.904 7  -8008967.345 8
  21506487.794    -7971235.061 7  -6177390.971 8
 94  2 15 18 40 30.0010000  0  6 25 18 14 19 22 29
  24617856.724    17267594.367 5  13404237.165 5
  23175923.200    -9139912.431 6  -5081214.960 5
  20642590.333    -5209025.918 7  -4015006.577 7
  24575624.974    -2705858.469 5  -1968649.505 1
  21672368.192   -10434880.835 7  -8012519.754 8
  21501013.544    -8000007.681 7  -6199811.163 7
 94  2 15 18 41  0.0010000  0  6 25 18 14 19 22 29
  24636457.731    17365337.941 5  13480400.842 5
  23162945.833    -9208120.898 6  -5134364.364 5
  20646967.333    -5186018.100 8  -3997078.441 7
  24559581.911    -2790255.448 4  -2034413.416 4
  21671623.028   -10438829.405 7  -8015596.552 7
  21495567.817    -8028613.736 7  -6222101.575 8
 94  2 15 18 41 30.0010000  0  6 25 18 14 19 22 29
  24655060.036    17463108.355 5  13556585.423 3
  23149982.302    -9276240.943 6  -5187444.906 5
  20651456.747    -5162432.242 7  -3978699.868 7
  24543552.567    -2874464.622 5  -2100030.907 2
  21670984.419   -10442163.981 7  -8018194.916 7
  21490158.145    -8057046.950 7  -6244257.340 8
 94  2 15 18 42  0.0010000  0  6 25 18 14 19 22 29
  24673673.208    17560917.152 5  13632799.998 4
  23137039.825    -9344280.821 6  -5240462.948 5
  20656054.841    -5138267.752 7  -3959870.427 7
  24527550.021    -2958464.040 3  -2165485.038 3
  21670460.669   -10444883.815 7  -8020314.259 7
  21484780.552    -8085306.309 7  -6266277.599 7
 94  2 15 18 42 30.0010000  0  6 25 18 14 19 22 29
  24692296.122    17658772.794 5  13709051.007 5
  23124109.583    -9412247.877 6  -5293424.256 5
  20660761.075    -5113542.465 7  -3940604.006 7
  24511621.060    -3042259.486 5  -2230780.146 3
  21670069.950   -10446983.249 7  -8021950.171 7
  21479436.458    -8113390.164 7  -6288161.085 8
 94  2 15 18 43  0.0010000  0  6 25 18 14 19 22 29
  24710922.302    17756679.798 5  13785342.029 5
  23111178.817    -9480138.663 6  -5346326.116 5
  20665570.567    -5088260.333 7  -3920903.648 7
  24495703.669    -3125847.807 3  -2295913.879 2
  21669784.763   -10448465.611 7  -8023105.240 7
  21474124.817    -8141310.144 7  -6309916.939 8
 94  2 15 18 43 30.0010000  0  6 25 18 14 19 22 29
  24729572.989    17854622.028 5  13861660.600 4
  23098275.192    -9547960.828 6  -5399174.532 5
  20670484.622    -5062429.522 7  -3900775.776 7
  24479844.286    -3209224.358 5  -2360882.591 3
  21669617.880   -10449330.558 7  -8023779.226 7
  21468839.052    -8169067.591 7  -6331546.104 8
 94  2 15 18 44  0.0010000  0  6 25 18 14 19 22 29
  24748205.028    17952575.224 5  13937987.591 3
  23085373.169    -9615716.488 5  -5451971.081 4
  20675506.177    -5036051.518 7  -3880221.520 7
  24464009.700    -3292391.527 3  -2425688.117 2
  21669573.013   -10449577.543 7  -8023971.694 7
  21463592.466    -8196662.593 7  -6353048.697 8
 94  2 15 18 44 30.0010000  0  6 25 18 14 19 22 29
  24766845.731    18050530.958 5  14014316.619 4
  23072512.755    -9683390.108 6  -5504703.741 5
  20680629.599    -5009108.091 7  -3859226.657 7
  24448227.099    -3375350.236 5  -2490331.222 3
  21669645.224   -10449206.839 7  -8023682.809 7
  21458373.239    -8224079.307 7  -6374412.346 8
 94  2 15 18 45  0.0010000  0  6 25 18 14 19 22 29
  24785479.911    18148486.303 5  14090645.294 5
  23059644.599    -9750980.648 6  -5557371.654 5
  20685870.435    -4981573.742 7  -3837771.340 7
  24432490.606    -3458087.451 4  -2554801.657 4
  21669834.396   -10448212.133 7  -8022907.725 7
  21453189.216    -8251311.952 7  -6395632.596 8
 94  2 15 18 45 30.0010000  0  6 25 18 14 19 22 29
  24804127.427    18246438.402 5  14166971.528 4
  23046800.083    -9818487.582 6  -5609974.431 5
  20691226.724    -4953433.873 7  -3815844.182 7
  24416791.677    -3540608.380 5  -2619103.601 4
  21670145.731   -10446593.675 7  -8021646.592 7
  21448051.349    -8278344.991 7  -6416697.294 8
 94  2 15 18 46  0.0010000  0  6 25 18 14 19 22 29
  24822769.271    18344402.827 4  14243307.364 4
  23033972.216    -9885901.198 6  -5662504.479 5
  20696700.458    -4924679.074 7  -3793437.879 7
  24401118.981    -3622932.208 4  -2683251.993 5
  21670574.060   -10444347.075 7  -8019895.984 7
  21442945.185    -8305177.873 7  -6437606.025 8
 94  2 15 18 46 30.0010000  0  6 25 18 14 19 22 29
  24841413.036    18442385.987 5  14319657.795 5
  23021159.114    -9953221.940 6  -5714962.176 5
  20702286.489    -4895305.315 7  -3770549.259 7
  24385483.989    -3705077.770 5  -2747261.428 4
  21671112.528   -10441476.120 7  -8017658.902 8
  21437873.833    -8331825.234 7  -6458370.190 8
 94  2 15 18 47  0.0010000  0  7 25 18 14  4 19 22 29
  24860065.536    18540391.870 4  14396025.937 4
  23008368.380   -10020450.317 6  -5767347.907 5
  20707998.692    -4865323.486 7  -3747186.821 7
  25233301.786      -18128.360 3
  24369876.958    -3787046.039 3  -2811132.787 2
  21671779.372   -10437977.019 7  -8014932.336 7
  21432833.497    -8358296.185 7  -6478996.910 8
 94  2 15 18 47 30.0010000  0  7 25 18 14  4 19 22 29
  24878717.763    18638417.619 5  14472409.473 4
  22995589.739   -10087568.731 6  -5819647.912 5
  20713814.224    -4834749.465 7  -3723362.930 7
  25229931.927      -35756.706 3        -0.24511
  24354325.364    -3868843.103 5  -2874870.700 5
  21672572.271   -10433850.137 7  -8011716.584 8
  21427831.231    -8384587.199 7  -6499483.405 8
 94  2 15 18 48  0.0010000  0  7 25 18 14  4 19 22 29
  24897375.435    18736457.376 5  14548803.942 4
  22982842.177   -10154569.178 6  -5871856.026 5
  20719740.114    -4803593.967 7  -3699085.947 7
  25226682.349      -52870.888 4    -13335.963 1
  24338776.966    -3950468.960 5  -2938475.216 3
  21673472.075   -10429094.318 7  -8008010.799 8
  21422858.645    -8410704.373 7  -6519834.452 8
 94  2 15 18 48 30.0010000  0  7 25 18 14  4 19 22 29
  24916014.442    18834489.963 3  14625192.854 4
  22970108.130   -10221468.176 6  -5923985.074 5
  20725782.731    -4771871.121 7  -3674366.877 7
  25223525.638      -69482.845 4    -26280.432 1
  24323294.122    -4031909.497 5  -3001935.300 4
  21674491.419   -10423723.213 7  -8003825.531 7
  21417921.231    -8436666.310 7  -6540064.533 8
 94  2 15 18 49  0.0010000  0  7 25 18 14  4 19 22 29
  24934686.974    18932514.642 3  14701575.568 2
  22957404.950   -10288261.815 6  -5976032.029 5
  20731920.317    -4739587.770 7  -3649211.047 7
  25220470.396      -85600.313 4    -38839.516 1
  24307834.310    -4113143.893 5  -3065234.795 3
  21675640.622   -10417728.027 7  -7999153.962 7
  21413012.466    -8462453.564 7  -6560158.480 8
 94  2 15 18 49 30.0010000  0  7 25 18 14  4 19 22 29
  24953341.981    19030532.785 5  14777953.248 3
  22944709.864   -10354952.455 6  -6027998.727 5
  20738168.544    -4706745.844 7  -3623619.972 7
  25217492.013     -101212.680 3    -51005.029 2
  24292416.153    -4194166.021 5  -3128368.886 4
  21676898.872   -10411104.108 7  -7993992.488 7
  21408133.263    -8488064.311 7  -6580114.931 8
 94  2 15 18 50  0.0010000  0  7 25 18 14  4 19 22 29
  24971984.427    19128555.955 3  14854334.848 4
  22932043.091   -10421556.817 6  -6079898.203 5
  20744528.544    -4673334.925 7  -3597585.533 7
  25214604.450     -116315.786 3    -62773.775 1
  24277044.685    -4274959.373 5  -3191324.702 2
  21678278.638   -10403852.678 7  -7988342.008 7
  21403301.372    -8513493.523 7  -6599929.906 7
 94  2 15 18 50 30.0010000  0  7 25 18 14  4 19 22 29
  24990643.599    19226583.267 5  14930719.634 3
  22919375.599   -10488086.113 6  -6131739.192 5
  20750997.841    -4639349.854 7  -3571103.684 7
  25211836.052     -130923.818 3    -74156.704 1
  24261709.169    -4355514.520 5  -3254094.876 2
  21679772.638   -10395971.351 7  -7982200.718 7
  21398497.497    -8538737.725 7  -6619600.701 7
 94  2 15 18 51  0.0010000  0  7 25 18 14  4 19 22 29
  25009297.013    19324619.085 5  15007110.907 4
  22906737.817   -10554540.078 6  -6183521.468 5
  20757570.021    -4604793.225 7  -3544176.452 7
  25209154.099     -145031.311 3    -85149.589 1
  24246423.021    -4435845.056 5  -3316690.092 2
  21681394.091   -10387460.834 7  -7975569.166 7
  21393731.661    -8563782.812 7  -6639116.351 8
 94  2 15 18 51 30.0010000  0  7 25 18 14  4 19 22 29
  25027951.708    19422661.607 4  15083507.588 4
  22894103.052   -10620922.873 6  -6235248.285 5
  20764260.481    -4569654.325 7  -3516795.520 7
  25206576.442     -158639.317 4    -95753.199 1
  24231181.622    -4515954.721 5  -3379113.119 2
  21683126.974   -10378327.155 7  -7968452.012 7
  21389001.896    -8588628.757 7  -6658476.839 8
 94  2 15 18 52  0.0010000  0  6 18 14  4 19 22 29
  22881479.997   -10687240.846 6  -6286924.604 5
  20771061.224    -4533926.379 7  -3488955.591 7
  25204054.880     -171760.965 3   -105977.936 1
  24215976.122    -4595861.182 5  -3441377.858 3
  21684983.474   -10368585.122 7  -7960860.823 7
  21384310.810    -8613279.718 7  -6677685.381 7
 94  2 15 18 52 30.0010000  0  6 18 14  4 19 22 29
  22868879.716   -10753485.362 6  -6338543.636 5
  20777968.981    -4497612.456 7  -3460659.064 7
  25201655.606     -184389.279 3   -115818.277 1
  24200810.372    -4675566.338 5  -3503485.712 4
  21686955.950   -10358230.605 7  -7952792.375 7
  21379658.974    -8637740.476 7  -6696745.701 8
 94  2 15 18 53  0.0010000  0  6 18 14  4 19 22 29
  22856282.130   -10819645.086 6  -6390096.632 5
  20784990.380    -4460723.715 7  -3431914.612 7
  25199347.935     -196500.152 3   -125255.367 1
  24185674.981    -4755076.971 5  -3565441.964 4
  21689046.614   -10347268.092 7  -7944250.163 7
  21375037.427    -8662007.778 7  -6715655.314 8
 94  2 15 18 53 30.0010000  0  6 18 14  4 19 22 29
  22843708.677   -10885711.854 6  -6441577.226 5
  20792114.677    -4423270.218 7  -3402730.088 7
  25197143.653     -208083.044 3   -134281.060 1
  24170574.349    -4834380.228 4  -3627236.722 4
  21691243.724   -10335708.802 7  -7935242.933 7
  21370452.763    -8686097.561 7  -6734426.574 8
 94  2 15 18 54  0.0010000  0  6 18 14  4 19 22 29
  22831153.849   -10951670.701 6  -6492973.686 6
  20799347.247    -4385267.273 7  -3373117.438 7
  25195052.294     -219119.423 4   -142880.894 1
  24155533.325    -4913466.565 5  -3688862.338 5
  21693557.864   -10323550.925 7  -7925769.270 7
  21365904.075    -8710010.853 7  -6753060.303 8
 94  2 15 18 54 30.0010000  0  6 18 14  4 19 22 29
  22818628.981   -11017505.881 6  -6544273.824 5
  20806682.505    -4346725.926 7  -3343085.250 7
  25193066.599     -229599.224 5   -151047.008 1
  24140532.255    -4992323.442 5  -3750309.250 5
  21695982.200   -10310778.913 7  -7915817.074 7
  21361389.450    -8733742.474 7  -6771552.500 8
 94  2 15 18 55  0.0010000  0  6 18 14  4 19 22 29
  22806129.450   -11083207.793 6  -6595470.094 5
  20814118.817    -4307634.515 7  -3312624.461 7
  25191176.669     -239526.832 4   -158782.841 1
  24125574.903    -5070940.616 5  -3811569.319 5
  21698532.661   -10297383.758 7  -7905379.326 7
  21356906.958    -8757282.962 7  -6789895.732 8
 94  2 15 18 55 30.0010000  0  6 18 14  4 19 22 29
  22793647.677   -11148788.992 6  -6646572.274 5
  20821665.950    -4267987.479 7  -3281730.699 7
  25189364.497     -248940.368 3   -166118.152 2
  24110662.825    -5149314.102 5  -3872639.520 5
  21701205.747   -10283365.546 7  -7894456.057 7
  21352467.130    -8780641.478 7  -6808097.177 8
 94  2 15 18 56  0.0010000  0  6 18 14  4 19 22 29
  22781193.216   -11214245.990 6  -6697577.697 5
  20829322.278    -4227757.638 7  -3250382.782 7
  25187676.450     -257855.505 3   -173065.074 1
  24095784.224    -5227456.563 5  -3933529.726 5
  21703993.513   -10268701.436 7  -7883029.484 7
  21348058.606    -8803795.235 7  -6826139.064 8
 94  2 15 18 56 30.0010000  0  6 18 14  4 19 22 29
  22768758.942   -11279598.669 6  -6748501.843 5
  20837087.942    -4186934.013 7  -3218572.213 7
  25186069.903     -266290.817 3   -179638.160 1
  24080952.583    -5305373.057 5  -3994243.813 4
  21706910.606   -10253396.968 7  -7871103.957 8
  21343690.278    -8826746.033 7  -6844022.798 8
 94  2 15 18 57  0.0010000  0  6 18 14  4 19 22 29
  22756336.497   -11344860.413 6  -6799355.116 5
  20844972.560    -4145515.176 7  -3186297.823 7
  25184554.833     -274248.039 3   -185838.601 1
  24066170.294    -5383067.279 5  -4054784.747 4
  21709932.091   -10237472.261 7  -7858695.146 8
  21339367.161    -8849497.856 7  -6861751.501 8
 94  2 15 18 57 30.0010000  0  6 18 14  4 19 22 29
  22743934.458   -11410027.745 6  -6850134.831 6
  20852967.646    -4103501.481 7  -3153559.903 7
  25183132.880     -281730.139 3   -191668.897 1
  24051436.528    -5460554.022 5  -4115163.973 3
  21713081.481   -10220943.175 7  -7845815.376 8
  21335071.411    -8872049.597 7  -6879324.280 8
 94  2 15 18 58  0.0010000  0  6 18 14  4 19 22 29
  22731554.224   -11475103.639 6  -6900843.329 6
  20861074.106    -4060895.282 7  -3120360.295 7
  25181815.763     -288724.872 3   -197119.340 1
  24036714.677    -5537843.662 5  -4175389.626 3
  21716343.513   -10203812.853 7  -7832467.132 8
  21330820.052    -8894394.239 7  -6896735.676 8
 94  2 15 18 58 30.0010000  0  6 18 14  4 19 22 29
  22719191.333   -11540083.734 6  -6951477.114 5
  20869291.817    -4017711.864 7  -3086710.899 7
  25180565.396     -295221.167 3   -202181.489 1
  24022038.396    -5614912.525 5  -4235443.198 3
  21719720.122   -10186072.083 7  -7818643.203 8
  21326606.919    -8916532.599 7  -6913986.349 8
 94  2 15 18 59  0.0010000  0  6 18 14  4 19 22 29
  22706836.591   -11604956.065 6  -7002026.951 5
  20877620.583    -3973950.902 7  -3052611.486 7
  25179420.091     -301225.878 3   -206860.530 2
  24007420.810    -5691771.643 5  -4295333.365 4
  21723214.083   -10167710.797 7  -7804335.734 7
  21322431.146    -8938456.649 7  -6931070.051 8
 94  2 15 18 59 30.0010000  0  6 18 14  4 19 22 29
  22694520.442   -11669721.276 6  -7052493.354 6
  20886053.966    -3929615.853 7  -3018064.716 7
  25178380.435     -306745.981 3   -211161.965 2
  23992848.388    -5768422.712 5  -4355061.365 4
  21726822.747   -10148711.132 7  -7789530.847 7
  21318302.052    -8960158.765 7  -6947980.776 8
 94  2 15 19  0  0.0010000  0  6 18 14  4 19 22 29
  22682214.356   -11734393.808 6  -7102887.510 6
  20894598.731    -3884718.710 7  -2983079.968 7
  25177417.763     -311771.317 3   -215077.897 1
  23978301.310    -5844870.700 5  -4414631.154 4
  21730569.763   -10129055.568 7  -7774214.861 7
  21314221.403    -8981643.790 7  -6964722.351 8
 94  2 15 19  0 30.0010000  0  6 18 14  4 19 22 29
  22669922.771   -11798965.679 6  -7153203.235 6
  20903240.005    -3839276.622 7  -2947670.581 7
  25176552.716     -316303.442 4   -218609.510 1
  23963791.310    -5921105.458 5  -4474034.770 3
  21734429.700   -10108754.732 7  -7758396.057 7
  21310166.755    -9002917.966 7  -6981299.649 8
 94  2 15 19  1  0.0010000  0  6 18 14  4 19 22 29
  22657654.435   -11863422.669 6  -7203429.427 5
  20911999.294    -3793271.105 7  -2911822.160 7
  25175794.122     -320329.136 5   -221746.503 1
  23949331.247    -5997126.885 5  -4533272.125 4
  21738416.450   -10087824.073 7  -7742086.505 7
  21306159.630    -9023977.506 7  -6997709.697 8
 94  2 15 19  1 30.0010000  0  6 18 14  4 19 22 29
  22645417.013   -11927759.690 6  -7253562.146 5
  20920867.771    -3746701.474 7  -2875534.171 7
  25175133.450     -323827.675 4   -224472.696 2
  23934902.653    -6072921.869 5  -4592333.038 3
  21742514.302   -10066274.630 7  -7725294.763 7
  21302189.700    -9044828.288 7  -7013957.060 8
 94  2 15 19  2  0.0010000  0  6 18 14  4 19 22 29
  22633204.817   -11991960.381 6  -7303588.654 6
  20929829.997    -3699564.549 7  -2838804.134 7
  25174553.169     -326785.900 4   -226777.868 2
  23920517.614    -6148470.089 5  -4651201.646 5
  21746733.255   -10044116.045 7  -7708028.336 7
  21298262.052    -9065469.196 7  -7030040.882 8
 94  2 15 19  2 30.0010000  0  6 18 14  4 19 22 29
  22621004.989   -12056013.088 6  -7353499.845 6
  20938911.747    -3651863.533 7  -2801634.532 7
  25174103.411     -329209.114 4   -228666.175 2
  23906196.677    -6223752.050 5  -4709862.802 4
  21751058.216   -10021370.016 7  -7690304.155 7
  21294372.317    -9085902.974 7  -7045963.319 8
 94  2 15 19  3  0.0010000  0  6 18 14  4 19 22 29
  22608847.786   -12119931.739 6  -7403306.560 5
  20948093.489    -3603581.674 7  -2764012.345 7
  25173738.896     -331092.131 3   -230133.545 2
  23891920.919    -6298775.943 5  -4768322.853 5
  21755503.458    -9998019.618 7  -7672109.057 7
  21290524.786    -9106129.860 7  -7061724.529 8
 94  2 15 19  3 30.0010000  0  6 18 14  4 19 22 29
  22596705.286   -12183736.299 6  -7453024.392 6
  20957390.247    -3554737.792 7  -2725952.213 7
  25173486.286     -332451.629 3   -231192.963 2
  23877692.763    -6373540.683 5  -4826580.954 4
  21760067.388    -9974049.115 7  -7653430.771 7
  21286713.505    -9126154.627 7  -7077328.256 8
 94  2 15 19  4  0.0010000  0  6 18 14  4 19 22 29
  22584584.716   -12247424.268 6  -7502651.383 5
  20966796.231    -3505336.664 7  -2687457.871 7
  25173331.138     -333294.133 4   -231849.516 2
  23863517.185    -6448040.168 5  -4884632.377 5
  21764745.974    -9949445.402 7  -7634259.068 7
  21282948.606    -9145960.496 7  -7092761.415 8
 94  2 15 19  4 30.0010000  0  6 18 14  4 19 22 29
  22572488.153   -12310999.507 6  -7552190.489 5
  20976305.099    -3455374.195 7  -2648526.127 7
  25173255.786     -333636.790 4   -232116.607 2
  23849387.356    -6522299.105 5  -4942496.341 4
  21769550.739    -9924209.068 7  -7614594.398 7
  21279222.567    -9165545.110 7  -7108022.162 8
 94  2 15 19  5  0.0010000  0  6 18 14  4 19 22 29
  22560408.692   -12374465.552 6  -7601644.532 5
  20985916.974    -3404847.231 7  -2609154.501 7
  25173278.786     -333490.105 3   -232002.436 1
  23835301.645    -6596342.920 5  -5000192.689 5
  21774472.271    -9898335.592 7  -7594433.256 7
  21275537.669    -9184903.626 7  -7123106.725 8
 94  2 15 19  5 30.0010000  0  6 18 14  4 19 22 29
  22548359.528   -12437793.394 7  -7650990.880 5
  20995638.677    -3353765.456 7  -2569350.547 7
  25173418.606     -332854.365 3   -231507.121 1
  23821249.200    -6670174.077 5  -5057723.313 5
  21779513.927    -9871844.193 7  -7573790.623 7
  21271898.997    -9204025.823 7  -7138007.160 8
 94  2 15 19  6  0.0010000  0  6 18 14  4 19 22 29
  22536334.216   -12500971.234 6  -7700220.362 6
  21005464.974    -3302125.415 7  -2529111.581 7
  25173635.833     -331721.567 3   -230624.500 1
  23807225.513    -6743801.679 5  -5115095.342 5
  21784665.700    -9844754.397 7  -7552681.690 7
  21268303.364    -9222917.003 7  -7152727.592 8
 94  2 15 19  6 30.0010000  0  6 18 14  4 19 22 29
  22524342.864   -12564004.508 6  -7749337.195 5
  21015394.708    -3249925.023 7  -2488436.005 7
  25173925.817     -330098.436 3   -229359.898 1
  23793270.114    -6817227.981 5  -5172310.517 5
  21789935.927    -9817071.536 7  -7531110.637 7
  21264745.552    -9241596.491 7  -7167283.055 8
 94  2 15 19  7  0.0010000  0  6 18 14  4 19 22 29
  22512371.216   -12626899.717 6  -7798346.417 6
  21025428.692    -3197175.495 7  -2447332.517 7
  25174344.013     -327972.935 4   -227703.715 2
  23779339.731    -6890433.102 5  -5229353.318 5
  21795315.974    -9788788.492 7  -7509071.932 7
  21261228.466    -9260073.335 7  -7181680.590 8
 94  2 15 19  7 30.0010000  0  6 18 14  4 19 22 29
  22500430.333   -12689657.154 6  -7847248.280 6
  21035572.208    -3143877.938 7  -2405801.996 7
  25174836.864     -325339.526 3   -225651.788 2
  23765444.622    -6963390.426 5  -5286203.036 5
  21800819.661    -9759896.814 7  -7486558.953 7
  21257751.716    -9278350.446 7  -7195922.517 9
 94  2 15 19  8  0.0010000  0  6 18 14  4 19 22 29
  22488517.153   -12752290.824 6  -7896053.731 6
  21045824.950    -3090020.572 7  -2363835.251 7
  25175432.130     -322201.099 3   -223206.359 2
  23751612.997    -7036081.975 5  -5342845.663 5
  21806433.974    -9730377.907 7  -7463557.238 7
  21254315.872    -9296420.528 7  -7210003.123 9
 94  2 15 19  8 30.0010000  0  6 18 14  4 19 22 29
  22476615.880   -12814802.767 6  -7944764.349 6
  21056181.466    -3035598.683 7  -2321428.620 7
  25176134.052     -318560.091 4   -220369.267 2
  23737832.864    -7108513.715 5  -5399285.884 5
  21812170.317    -9700226.689 7  -7440062.846 7
  21250920.435    -9314267.964 7  -7223910.231 9
 94  2 15 19  9  0.0010000  0  6 18 14  4 19 22 29
  22464740.544   -12877196.288 6  -7993382.653 5
  21066646.060    -2980616.205 7  -2278585.162 7
  25176924.411     -314417.227 3   -217141.122 1
  23724094.919    -7180701.701 5  -5455536.132 5
  21818027.833    -9669453.089 7  -7416083.464 7
  21247568.669    -9331881.871 7  -7237635.355 8
 94  2 15 19  9 30.0010000  0  6 18 14  4 19 22 29
  22452894.849   -12939460.388 6  -8041900.115 6
  21077216.161    -2925058.109 7  -2235293.216 7
  25177799.583     -309769.725 3   -213519.817 2
  23710399.646    -7252655.913 5  -5511604.234 5
  21824000.435    -9638066.415 7  -7391626.327 7
  21244266.974    -9349242.894 7  -7251163.436 9
 94  2 15 19 10  0.0010000  0  6 18 14  4 19 22 29
  22441073.888   -13001583.756 7  -8090307.932 5
  21087893.919    -2868922.024 7  -2191550.851 7
  25178789.544     -304613.520 5   -209502.102 1
  23696743.974    -7324392.281 5  -5567502.599 5
  21830081.786    -9606077.690 7  -7366700.073 7
  21241006.083    -9366341.336 7  -7264486.920 9
 94  2 15 19 10 30.0010000  0  6 18 14  4 19 22 29
  22429278.013   -13063563.882 6  -8138604.085 6
  21098688.021    -2812221.286 7  -2147368.490 7
  25179865.505     -298952.737 4   -205091.155 1
  23683137.528    -7395913.304 5  -5623233.167 5
  21836283.935    -9573498.804 7  -7341313.980 8
  21237805.599    -9383184.915 7  -7277611.806 8
 94  2 15 19 11  0.0010000  0  6 18 14  4 19 22 29
  22417517.833   -13125396.668 7  -8186785.501 6
  21109579.091    -2754964.728 7  -2102753.031 7
  25181025.021     -292779.968 3   -200281.329 1
  23669575.310    -7467198.499 6  -5678779.965 5
  21842596.919    -9540328.663 7  -7315467.157 7
  21234648.310    -9399783.361 7  -7290545.661 8
 94  2 15 19 11 30.0010000  0  6 18 14  4 19 22 29
  22405775.747   -13187074.796 6  -8234846.369 6
  21120589.317    -2697148.163 7  -2057701.205 7
  25182282.419     -286092.402 3   -195070.310 1
  23656052.396    -7538231.220 5  -5734130.048 5
  21849023.942    -9506561.815 7  -7289155.346 7
  21231534.810    -9416137.562 7  -7303289.231 8
 94  2 15 19 12  0.0010000  0  6 18 14  4 19 22 29
  22394063.263   -13248601.822 6  -8282789.520 6
  21131696.177    -2638785.238 7  -2012223.658 7
  25183672.497     -278899.206 3   -189465.278 1
  23642591.021    -7609003.676 5  -5789277.330 4
  21855571.185    -9472189.349 7  -7262371.635 7
  21228469.692    -9432255.775 7  -7315848.903 8
 94  2 15 19 12 30.0010000  0  6 18 14  4 19 22 29
  22382383.364   -13309989.664 6  -8330624.181 6
  21142902.716    -2579880.604 7  -1966323.962 7
  25185161.083     -271199.123 3   -183465.260 1
  23629172.653    -7679507.481 5  -5844215.297 5
  21862223.021    -9437201.466 7  -7235108.403 8
  21225443.841    -9448132.345 7  -7328220.289 8
 94  2 15 19 13  0.0010000  0  6 18 14  4 19 22 29
  22370721.903   -13371239.418 6  -8378351.293 6
  21154214.935    -2520432.694 7  -1920000.954 7
  25186701.341     -262996.534 2   -177073.807 1
  23615801.552    -7749758.463 5  -5898956.251 5
  21868999.528    -9401601.533 7  -7207368.228 7
  21222474.208    -9463757.380 7  -7340395.650 8
 94  2 15 19 13 30.0010000  0  6 18 14  4 19 22 29
  22359102.716   -13432347.350 7  -8425967.856 6
  21165633.294    -2460435.221 7  -1873249.721 7
  25188355.653     -254299.782 3   -170297.200 1
  23602484.935    -7819758.053 5  -5953501.300 5
  21875885.052    -9365378.400 7  -7179142.413 7
  21219554.591    -9479104.482 7  -7352354.442 8
 94  2 15 19 14  0.0010000  0  6 18 14  4 19 22 29
  22347501.161   -13493308.707 7  -8473470.196 6
  21177148.106    -2399900.047 7  -1826079.494 7
  25190115.177     -245103.729 3   -163131.493 2
  23589206.833    -7889504.847 5  -6007849.385 5
  21882902.497    -9328528.646 7  -7150428.341 8
  21216684.935    -9494162.585 7  -7364088.047 9
 94  2 15 19 14 30.0010000  0  6 18 14  4 19 22 29
  22335921.302   -13554120.127 6  -8520855.711 6
  21188766.114    -2338831.672 7  -1778493.770 7
  25191950.302     -235403.902 3   -155573.292 2
  23575986.419    -7958996.967 5  -6061999.027 5
  21890035.310    -9291053.558 7  -7121227.002 8
  21213875.005    -9508935.542 7  -7375599.483 8
 94  2 15 19 15  0.0010000  0  6 18 14  4 19 22 29
  22324389.239   -13614765.934 6  -8568112.176 6
  21200502.552    -2277224.832 7  -1730488.478 7
  25193906.583                          -0.04213
  23562813.653    -8028236.794 5  -6115952.058 5
  21897285.763    -9252946.071 7  -7091532.876 8
  21211118.106    -9523437.274 7  -7386899.538 8
 94  2 15 19 15 30.0010000  0  6 18 14  4 19 22 29
  22312877.638   -13675241.712 6  -8615236.167 6
  21212320.294    -2215083.302 7  -1682066.573 7
  25195927.974       10695.135 3        -0.43912
  23549692.388    -8097211.382 6  -6169698.409 5
  21904659.872    -9214204.808 7  -7061344.893 7
  21208403.114    -9537696.348 7  -7398010.517 8
 94  2 15 19 16  0.0010000  0  6 18 14  4 19 22 29
  22301406.263   -13735542.794 7  -8662224.027 6
  21224243.739    -2152402.769 7  -1633224.652 7
  25198063.731       21893.140 3      8725.202 2
  23536605.356    -8165923.257 5  -6223240.053 5
  21912153.294    -9174838.528 7  -7030669.878 8
  21205735.255    -9551725.021 7  -7408941.979 8
 94  2 15 19 16 30.0010000  0  6 18 14  4 19 22 29
  22289966.005   -13795672.826 7  -8709078.581 6
  21236278.622    -2089166.666 7  -1583949.808 7
  25200256.044       33578.899 2     17830.831 2
  23523581.638    -8234378.864 5  -6276582.001 5
  21919760.255    -9134857.493 7  -6999515.834 8
  21203103.153    -9565540.295 7  -7419707.161 8
 94  2 15 19 17  0.0010000  0  6 18 14  4 19 22 29
  22278555.060   -13855627.999 7  -8755796.888 6
  21248425.958    -2025361.493 7  -1534231.525 7
  25202608.646       45753.218 4     27317.219 2
  23510603.442    -8302583.057 5  -6329728.029 5
  21927480.856    -9094276.778 7  -6967894.539 8
  21200514.841    -9579139.519 7  -7430303.982 8
 94  2 15 19 17 30.0010000  0  6 18 14  4 19 22 29
  22267178.435   -13915415.066 6  -8802384.196 6
  21260668.661    -1960994.567 7  -1484075.540 7
  25205012.075       58419.936 3     37187.344 1
  23497674.575    -8370531.710 5  -6382674.935 5
  21935316.450    -9053113.856 7  -6935819.566 8
  21197972.130    -9592505.519 7  -7440719.048 8
 94  2 15 19 18  0.0010000  0  6 18 14  4 19 22 29
  22255828.817   -13975035.373 7  -8848841.595 6
  21273027.575    -1896070.089 7  -1433485.079 7
  25207502.677       71581.941 2     47443.370 1
  23484793.606    -8438237.914 6  -6435432.916 5
  21943257.731    -9011378.092 7  -6903298.215 8
  21195477.661    -9605613.673 7  -7450933.197 8
 94  2 15 19 18 30.0010000  0  6 18 14  4 19 22 29
  22244521.458   -14034486.868 7  -8895167.431 6
  21285482.669    -1830597.345 7  -1382467.413 7
  25210128.708       85250.458 5     58094.081 1
  23471954.052    -8505698.781 6  -6487999.741 5
  21951308.130    -8969068.483 7  -6870329.719 8
  21193034.208    -9618462.872 7  -7460945.577 9
 94  2 15 19 19  0.0010000  0  6 18 14  4 19 22 29
  22233238.521   -14093770.138 7  -8941362.198 6
  21298039.989    -1764592.922 7  -1331035.437 7
  25212826.888       99440.869 5     69151.458 1
  23459158.130    -8572914.354 5  -6540375.409 5
  21959463.802    -8926188.274 7  -6836916.592 8
  21190637.146    -9631040.604 7  -7470746.445 8
 94  2 15 19 19 30.0010000  0  6 18 14  4 19 22 29
  22221987.849   -14152884.613 7  -8987425.394 6
  21310702.841    -1698069.125 7  -1279198.753 7
  25215606.724      114149.941 4     80612.928 1
  23446409.942    -8639880.003 6  -6592556.347 5
  21967736.528    -8882723.998 7  -6803048.353 8
  21188295.560    -9643335.205 7  -7480326.665 8
 94  2 15 19 20  0.0010000  0  6 18 14  4 19 22 29
  22210767.747   -14211828.656 6  -9033355.822 6
  21323461.364    -1631017.342 7  -1226950.666 7
  25218522.724      129368.668 5     92471.584 1
  23433720.786    -8706599.776 6  -6644545.686 5
  21976125.435    -8838667.496 7  -6768718.636 8
  21186010.138    -9655356.458 7  -7489693.887 8
 94  2 15 19 20 30.0010000  0  6 18 14  4 19 22 29
  22199586.497   -14270602.584 6  -9079153.694 6
  21336329.146    -1563430.524 7  -1174285.651 7
  25221505.763      145090.705 4    104722.430 1
  23421075.435    -8773064.115 6  -6696336.004 5
  21984623.778    -8794004.205 7  -6733916.118 8
  21183772.591    -9667110.342 7  -7498852.755 8
 94  2 15 19 21  0.0010000  0  6 18 14  4 19 22 29
  22188436.544   -14329200.519 7  -9124814.422 6
  21349295.497    -1495307.607 7  -1121202.904 7
  25224590.903      161297.454 5    117350.904 2
  23408471.583    -8839266.896 5  -6747922.512 5
  21993234.372    -8748734.605 7  -6698641.139 8
  21181593.083    -9678596.260 7  -7507802.835 8
 94  2 15 19 21 30.0010000  0  6 18 14  4 19 22 29
  22177317.974   -14387610.434 7  -9170328.622 6
  21362352.583    -1426643.644 7  -1067698.575 7
  25227760.442      177976.363 4    130347.414 1
  23395944.497    -8905209.053 6  -6799305.934 5
  22001967.896    -8702847.962 7  -6662885.328 8
  21179459.075    -9689815.365 7  -7516544.993 8
 94  2 15 19 22  0.0010000  0  6 18 14  4 19 22 29
  22166236.849   -14445831.515 7  -9215695.700 6
  21375525.278    -1357440.672 7  -1013774.229 7
  25231030.935      195134.074 4    143716.917 1
  23383437.395    -8970885.430 5  -6850482.256 5
  22010812.474    -8656352.267 7  -6626654.960 8
  21177374.458    -9700767.431 7  -7525079.087 8
 94  2 15 19 22 30.0010000  0  6 18 14  4 19 22 29
  22155199.177   -14503857.824 7  -9260911.002 6
  21388793.435    -1287714.975 7   -959442.570 7
  25234381.778      212782.121 3    157468.604 1
  23370991.958    -9036276.262 6  -6901436.078 5
  22019772.989    -8609261.175 7  -6589960.654 8
  21175339.739    -9711443.547 7  -7533398.156 8
 94  2 15 19 23  0.0010000  0  6 18 14  4 19 22 29
  22144194.036   -14561689.032 7  -9305974.248 6
  21402158.067    -1217474.838 7   -904710.038 7
  25237855.278      230918.177 3    171600.462 2
  23358604.466    -9101382.082 6  -6952167.835 5
  22028849.888    -8561590.047 7  -6552814.352 8
  21173358.708    -9721838.027 7  -7541497.771 7
 94  2 15 19 23 30.0010000  0  6 18 14  4 19 22 29
  22133220.388   -14619339.982 7  -9350897.091 6
  21415625.302    -1146722.073 7   -849578.038 7
  25241375.356      249543.800 3    186113.875 1
  23346264.630    -9166208.688 5  -7002682.013 5
  22038025.255    -8513338.377 7  -6515215.691 7
  21171435.841    -9731934.526 7  -7549365.174 8
 94  2 15 19 24  0.0010000  0  6 18 14  4 19 22 29
  22122287.919   -14676830.800 7  -9395695.082 6
  21429183.263    -1075448.868 7   -794040.531 7
  25244999.771      268657.799 2    201007.822 2
  23333981.544    -9230745.519 6  -7052970.396 5
  22047321.169    -8464512.792 7  -6477169.824 8
  21169572.021    -9741730.696 7  -7556998.568 8
 94  2 15 19 24 30.0010000  0  6 18 14  4 19 22 29
  22111372.778   -14734167.450 6  -9440373.002 6
  21442847.810    -1003645.902 7   -738090.235 6
  25248752.396      288245.030 3    216270.513 2
  23321751.786    -9295008.656 6  -7103045.512 5
  22056723.817    -8415109.184 7  -6438673.532 8
  21167765.849    -9751242.929 7  -7564410.710 8
 94  2 15 19 25  0.0010000  0  6 18 14  4 19 22 29
  22100495.442   -14791343.860 7  -9484926.041 6
  21456615.317     -931303.444 7   -681719.528 7
  25252570.255      308299.939 5    231897.632 1
  23309573.614    -9359020.645 6  -7152924.936 5
  22066238.192    -8365109.259 7  -6399712.596 8
  21166011.856    -9760471.397 7  -7571601.756 8
 94  2 15 19 25 30.0010000  0  6 18 14  4 19 22 29
  22089642.849   -14848358.032 7  -9529352.657 6
  21470480.349     -858416.716 7   -624924.730 7
  25256468.810      328828.262 3    247893.641 1
  23297441.013    -9422773.889 6  -7202602.768 5
  22075862.646    -8314508.138 7  -6360283.175 7
  21164305.786    -9769413.977 7  -7578570.029 8
 94  2 15 19 26  0.0010000  0  6 18 14  4 19 22 29
  22078831.106   -14905184.955 6  -9573633.387 6
  21484461.614     -784984.538 7   -567704.886 7
  25260468.935      349850.533 4    264274.532 1
  23285363.864    -9486264.566 6  -7252075.988 5
  22085613.614    -8263302.046 7  -6320382.353 7
  21162657.708    -9778085.855 7  -7585327.330 7
 94  2 15 19 26 30.0010000  0  6 18 14  4 19 22 29
  22068053.810   -14961793.518 6  -9617743.919 6
  21498536.278     -711030.233 7   -510078.197 7
  25264552.919      371369.418 3    281042.428 1
  23273327.208    -9549490.770 6  -7301343.122 5
  22095471.528    -8211487.413 7  -6280007.337 8
  21161059.294    -9786481.004 7  -7591869.011 7
 94  2 15 19 27  0.0010000  0  6 18 14  4 19 22 29
  22057328.052   -15018183.362 7  -9661684.067 6
  21512705.091     -636576.541 7   -452062.398 7
  25268758.544      393381.604 3    298194.699 1
  23261344.880    -9612444.096 6  -7350397.631 5
  22105443.403    -8159081.549 7  -6239171.652 8
  21159519.146    -9794581.129 7  -7598180.796 8
 94  2 15 19 27 30.0010000  0  5 18 14 19 22 29
  22046640.935   -15074356.190 7  -9705455.094 6
  21526959.435     -561625.908 7   -393659.374 7
  23249425.169    -9675120.733 6  -7399236.547 5
  22115531.395    -8106099.576 7  -6197887.038 7
  21158032.458    -9802383.918 7  -7604260.924 8
 94  2 15 19 28  0.0010000  0  5 18 14 19 22 29
  22035991.091   -15130308.089 7  -9749053.926 6
  21541316.567     -486194.147 7   -334881.411 8
  23237543.685    -9737533.852 6  -7447870.115 5
  22125715.036    -8052551.865 7  -6156161.569 7
  21156606.817    -9809890.387 7  -7610110.126 8
 94  2 15 19 28 30.0010000  0  5 18 14 19 22 29
  22025382.271   -15186051.898 7  -9792490.660 6
  21555762.310     -410284.393 7   -275731.005 7
  23225712.091    -9799683.794 6  -7496298.615 5
  22136008.278    -7998441.355 7  -6113997.550 7
  21155234.231    -9817086.510 7  -7615717.506 8
 94  2 15 19 29  0.0010000  0  5 18 14 19 22 29
  22014806.169   -15241617.043 7  -9835788.160 6
  21570304.935     -333885.071 7   -216199.118 7
  23213936.520    -9861587.574 6  -7544535.289 5
  22146413.169    -7943784.023 7  -6071407.473 7
  21153925.028    -9823982.807 7  -7621091.234 8
 94  2 15 19 29 30.0010000  0  5 18 14 19 22 29
  22004269.060   -15297011.542 7  -9878952.695 6
  21584938.880     -256996.671 7   -156286.138 7
  23202197.606    -9923250.803 6  -7592584.519 5
  22156918.286    -7888568.438 7  -6028382.394 7
  21152668.810    -9830593.741 7  -7626242.615 7
 94  2 15 19 30  0.0010000  0  5 18 14 19 22 29
  21993760.505   -15352240.814 7  -9921988.464 7
  21599654.630     -179624.553 7    -95996.222 7
  23190515.700    -9984668.190 6  -7640442.207 5
  22167533.521    -7832796.649 7  -5984923.896 7
  21151464.724    -9836924.416 7  -7631175.626 8
 94  2 15 19 30 30.0010000  0  5 18 14 19 22 29
  21983278.708   -15407312.656 7  -9964901.599 7
  21614473.091     -101766.266 7    -35327.495 7
  23178872.411   -10045836.869 6  -7688106.066 5
  22178251.567    -7776480.317 7  -5941041.066 7
  21150309.872    -9842984.988 7  -7635898.157 8
 94  2 15 19 31  0.0010000  0  5 18 14 19 22 29
  21972830.224   -15462216.055 7 -10007683.428 6
  21629381.778      -23414.428 7     25725.827 7
  23167281.489   -10106745.505 6  -7735567.295 5
  22189068.271    -7719621.879 7  -5896735.850 7
  21149205.247    -9848771.160 7  -7640406.872 8
 94  2 15 19 31 30.0010000  0  5 18 14 19 22 29
  21962422.692   -15516920.993 7 -10050310.650 6
  21644387.411       55426.820 7     87160.510 7
  23155747.802   -10167385.691 5  -7782819.379 5
  22199989.005    -7662210.243 7  -5851999.551 7
  21148161.794    -9854270.836 7  -7644692.345 8
 94  2 15 19 32  0.0010000  0  5 18 14 19 22 29
  21952056.489   -15571404.548 7 -10092765.317 7
  21659475.028      134758.391 7    148977.262 7
  23144255.388   -10227762.053 6  -7829865.853 5
  22211024.247    -7604258.667 7  -5806842.519 7
  21147169.771    -9859480.021 7  -7648751.454 8
 94  2 15 19 32 30.0010000  0  5 18 14 19 22 29
  21941726.583   -15625666.066 7 -10135047.016 7
  21674672.716      214578.110 7    211174.399 7
  23132819.060   -10287877.876 6  -7876709.317 5
  22222155.052    -7545757.181 7  -5761257.013 7
  21146234.091    -9864391.084 7  -7652578.282 7
 94  2 15 19 33  0.0010000  0  5 18 14 19 22 29
  21931438.122   -15679700.583 7 -10177151.816 7
  21689951.239      294876.394 7    273744.431 7
  23121425.794   -10347748.274 6  -7923361.553 5
  22233393.005    -7486702.128 7  -5715240.148 7
  21145354.224    -9869011.485 7  -7656178.597 7
 94  2 15 19 33 30.0010000  0  5 18 14 19 22 29
  21921204.810   -15733516.558 7 -10219086.333 7
  21705324.060      375644.898 7    336680.881 7
  23110069.661   -10407386.982 6  -7969833.243 5
  22244734.544    -7427103.831 7  -5668799.958 7
  21144527.497    -9873356.280 7  -7659564.159 7
 94  2 15 19 34  0.0010000  0  5 18 14 19 22 29
  21910997.606   -15787132.233 7 -10260864.751 7
  21720779.661      456888.121 7    399987.238 7
  23098766.185   -10466784.430 6  -8016116.965 5
  22256172.528    -7366976.989 7  -5621947.918 7
  21143753.294    -9877430.954 7  -7662739.244 8
 94  2 15 19 34 30.0010000  0  5 18 14 19 22 29
  21900831.247   -15840565.743 7 -10302501.228 6
  21736325.599      538609.617 7    463666.273 7
  23087518.739   -10525923.465 6  -8062199.309 5
  22267717.458    -7306318.074 7  -5574681.303 7
  21143030.606    -9881229.538 7  -7665699.197 8
 94  2 15 19 35  0.0010000  0  5 18 14 19 22 29
  21890702.138   -15893797.729 7 -10343980.645 6
  21751975.872      620813.824 7    527721.447 7
  23076307.692   -10584790.889 6  -8108069.973 6
  22279363.177    -7245128.341 7  -5527001.049 7
  21142363.255    -9884739.486 7  -7668434.263 8
 94  2 15 19 35 30.0010000  0  5 18 14 19 22 29
  21880605.583   -15946837.964 7 -10385310.684 7
  21767709.380      703494.977 7    592148.271 7
  23065163.458   -10643385.121 6  -8153727.804 5
  22291109.239    -7183407.717 7  -5478907.098 7
  21141751.060    -9887950.085 7  -7670936.053 8
 94  2 15 19 36  0.0010000  0  5 18 14 19 22 29
  21870553.716   -15999684.315 7 -10426489.655 7
  21783525.145      786635.457 7    656932.996 7
  23054070.333   -10701707.152 6  -8199173.515 5
  22302955.513    -7121154.652 7  -5430398.268 7
  21141202.153    -9890852.699 7  -7673197.839 8
 94  2 15 19 36 30.0010000  0  5 18 14 19 22 29
  21860534.263   -16052334.222 7 -10467515.521 6
  21799436.278      870214.058 7    722059.122 7
  23043018.388   -10759774.622 6  -8244420.871 6
  22314905.856    -7058362.279 7  -5381469.207 7
  21140701.153    -9893446.233 7  -7675218.791 7
 94  2 15 19 37  0.0010000  0  5 18 14 19 22 29
  21850560.255   -16104771.396 7 -10508375.645 7
  21815418.638      954213.561 7    787513.226 7
  23032009.021   -10817604.736 6  -8289483.273 6
  22326953.544    -6995036.801 7  -5332124.740 7
  21140269.786    -9895738.188 7  -7677004.736 8
 94  2 15 19 37 30.0010000  0  5 18 14 19 22 29
  21840618.692   -16157001.363 7 -10549074.305 7
  21831484.208     1038636.141 7    853297.018 7
  23021053.911   -10875197.652 6  -8334360.843 6
  22339101.653    -6931196.295 7  -5282378.937 7
  21139886.224    -9897733.583 7  -7678559.616 8
 94  2 15 19 38  0.0010000  0  5 18 14 19 22 29
  21830719.747   -16209019.353 7 -10589607.793 6
  21847639.505     1123484.717 7    919412.734 7
  23010141.247   -10932544.994 6  -8379047.050 6
  22351345.052    -6866857.913 6  -5232245.178 7
  21139561.067    -9899430.478 7  -7679881.886 8
 94  2 15 19 38 30.0010000  0  5 18 14 19 22 29
  21820859.661   -16260827.781 7 -10629977.968 6
  21863867.739     1208775.242 7    985872.835 7
  22999278.653   -10989638.760 6  -8423535.665 6
  22363682.560    -6802020.726 7  -5181722.753 7
  21139299.731    -9900833.151 7  -7680974.908 8
 94  2 15 19 39  0.0010000  0  6 27 18 14 19 22 29
  25509097.653      -77717.736 3
  21811041.325   -16312424.800 7 -10670183.428 7
  21880176.739     1294526.734 7   1052692.120 7
  22988456.286   -11046463.644 6  -8467814.763 6
  22376113.669    -6736692.062 6  -5130817.351 7
  21139086.294    -9901935.113 7  -7681833.603 8
 94  2 15 19 39 30.0010000  0  5 18 14 19 22 29
  21801260.122   -16363825.320 7 -10710235.779 7
  21896586.692     1380744.512 7   1119874.755 7
  22977700.685   -11103016.276 6  -8511881.721 6
  22388642.317    -6670872.904 7  -5079529.753 7
  21138940.841    -9902730.779 7  -7682453.607 7
 94  2 15 19 40  0.0010000  0  5 18 14 19 22 29
  21791513.903   -16415042.756 7 -10750145.457 7
  21913075.997     1467419.421 6   1187413.591 7
  22966988.692   -11159303.472 6  -8555741.834 6
  22401261.716    -6604543.819 6  -5027844.836 7
  21138849.419    -9903221.707 7  -7682836.163 7
 94  2 15 19 40 30.0010000  0  5 18 14 19 22 29
  21781802.966   -16466065.851 7 -10789903.698 7
  21929655.692     1554548.458 6   1255306.298 6
  22956331.849   -11215326.564 6  -8599396.154 6
  22413983.177    -6537692.565 7  -4975753.003 7
  21138816.513    -9903408.037 7  -7682981.390 7
 94  2 15 19 41  0.0010000  0  5 18 14 19 22 29
  21772129.692   -16516883.153 7 -10829501.584 7
  21946318.270     1642113.248 7   1323538.525 6
  22945710.247   -11271101.942 6  -8642857.473 5
  22426802.497    -6470327.418 7  -4923260.731 7
  21138828.677    -9903294.309 7  -7682892.808 7
 94  2 15 19 41 30.0010000  0  5 18 14 19 22 29
  21762502.606   -16567481.145 7 -10868928.563 7
  21963066.185     1730104.117 6   1392102.765 6
  22935145.763   -11326642.658 6  -8686135.912 5
  22439722.497    -6402443.401 7  -4870364.169 7
  21138908.247    -9902889.462 7  -7682577.320 8
 94  2 15 19 42  0.0010000  0  5 18 14 19 22 29
  21752912.817   -16617856.143 7 -10908181.788 7
  21979888.216     1818512.935 6   1460992.725 7
  22924620.544   -11381967.659 6  -8729246.276 5
  22452732.177    -6334060.684 7  -4817078.990 7
  21139037.739    -9902206.153 7  -7682044.893 8
 94  2 15 19 42 30.0010000  0  5 18 14 19 22 29
  21743374.521   -16667987.847 7 -10947245.457 7
  21996791.849     1907337.551 7   1530206.653 6
  22914133.161   -11437079.145 6  -8772190.253 5
  22465839.294    -6265197.264 7  -4763419.262 7
  21139221.239    -9901253.089 7  -7681302.253 8
 94  2 15 19 43  0.0010000  0  5 18 14 19 22 29
  21733885.044   -16717880.568 7 -10986122.897 7
  22013780.958     1996577.082 7   1599743.881 6
  22903680.310   -11491975.826 6  -8814966.844 6
  22479032.474    -6195855.355 7  -4709386.669 7
  21139450.927    -9900021.036 7  -7680342.238 8
 94  2 15 19 43 30.0010000  0  5 18 14 19 22 29
  21724436.114   -16767542.402 7 -11024820.431 7
  22030832.192     2086233.430 6   1669605.912 7
  22893280.263   -11546640.235 6  -8857562.442 6
  22492320.833    -6126037.096 7  -4654982.875 7
  21139743.083    -9898501.568 7  -7679158.243 8
 94  2 15 19 44  0.0010000  0  5 18 14 19 22 29
  21715021.724   -16816979.975 7 -11063343.204 7
  22047974.021     2176295.192 7   1739783.857 7
  22882926.302   -11601054.244 6  -8899962.935 6
  22505694.021    -6055741.486 7  -4600207.127 7
  21140093.896    -9896679.788 7  -7677738.703 7
 94  2 15 19 44 30.0010000  0  6 27 18 14 19 22 29
  25347946.935          -1.00013
  21705659.521   -16866190.357 7 -11101688.936 7
  22065188.700     2266750.002 7   1810268.076 6
  22872632.325   -11655204.505 6  -8942157.909 6
  22519165.708    -5984955.886 6  -4545049.564 7
  21140499.927    -9894542.989 7  -7676073.666 7
 94  2 15 19 45  0.0010000  0  5 18 14 19 22 29
  21696346.185   -16915179.845 7 -11139862.575 7
  22082473.325     2357593.574 7   1881055.206 6
  22862363.185   -11709087.776 6  -8984144.835 6
  22532726.856    -5913679.023 7  -4489509.236 7
  21140971.466    -9892074.557 7  -7674150.228 7
 94  2 15 19 45 30.0010000  0  5 18 14 19 22 29
  21687057.771   -16963953.416 7 -11177867.925 7
  22099833.708     2448822.253 7   1952142.435 6
  22852156.122   -11762709.960 6  -9025928.315 6
  22546382.278    -5841920.279 6  -4433593.366 7
  21141497.708    -9889290.316 7  -7671980.715 7
 94  2 15 19 46  0.0010000  0  5 18 14 19 22 29
  21677818.661   -17012507.977 7 -11215702.635 7
  22117269.989     2540451.507 7   2023541.775 6
  22842006.497   -11816072.292 6  -9067509.324 6
  22560134.903    -5769682.366 7  -4377304.148 7
  21142085.638    -9886182.387 7  -7669558.967 8
 94  2 15 19 46 30.0010000  0  5 18 14 19 22 29
  21668619.356   -17060843.295 7 -11253366.527 7
  22134790.794     2632499.990 7   2095267.800 6
  22831905.442   -11869177.814 6  -9108890.234 6
  22573965.935    -5696972.240 6  -4320646.922 6
  21142742.466    -9882750.341 7  -7666884.654 8
 94  2 15 19 47  0.0010000  0  5 18 14 19 22 29
  21659460.802   -17108971.822 7 -11290869.253 7
  22152380.208     2724972.239 6   2167324.036 6
  22821839.677   -11922030.793 6  -9150074.333 6
  22587895.903    -5623797.463 7  -4263627.693 7
  21143452.849    -9879007.809 7  -7663968.415 8
 94  2 15 19 47 30.0010000  0  6 27 18 14 19 22 29
  25261183.208      -37841.792 3
  21650345.528   -17156895.326 7 -11328212.219 7
  22170066.935     2817861.162 6   2239704.949 6
  22811835.778   -11974628.755 6  -9191059.730 6
  22601907.716    -5550156.725 6  -4206245.374 7
  21144222.747    -9874961.117 7  -7660815.172 8
 94  2 15 19 48  0.0010000  0  6 27 18 14 19 22 29
  25246804.161     -113436.699 3        -0.41911
  21641262.521   -17204611.807 7 -11365393.909 7
  22187811.325     2911154.697 6   2312401.165 6
  22801869.606   -12026979.060 6  -9231852.152 6
  22616007.177    -5476056.793 7  -4148505.209 7
  21145051.755    -9870610.274 7  -7657424.921 8
 94  2 15 19 48 30.0010000  0  6 27 18 14 19 22 29
  25232455.028     -188912.568 3
  21632221.950   -17252110.707 7 -11402406.022 7
  22205636.481     3004832.124 6   2385396.491 6
  22791956.536   -12079087.957 6  -9272456.452 6
  22630195.786    -5401496.135 7  -4090406.038 7
  21145934.888    -9865963.304 7  -7653803.927 7
 94  2 15 19 49  0.0010000  0  5 18 14 19 22 29
  21623227.099   -17299377.649 7 -11439237.396 7
  22223532.388     3098883.138 6   2458682.920 6
  22782081.294   -12130957.113 6  -9312873.935 6
  22644473.669    -5326475.040 7  -4031948.087 6
  21146869.286    -9861023.382 7  -7649954.658 7
 94  2 15 19 49 30.0010000  0  6 27 18 14 19 22 29
  25203791.606          -0.57511
  21614278.356   -17346404.787 7 -11475881.917 7
  22241503.505     3193305.523 6   2532258.731 6
  22772271.028   -12182594.167 6  -9353110.573 6
  22658834.411    -5251005.212 6  -3973140.479 6
  21147869.521    -9855770.969 7  -7645861.876 7
 94  2 15 19 50  0.0010000  0  6 18 14 28 19 22 29
  21605376.771   -17393186.249 7 -11512335.001 7
  22259550.505     3288113.322 6   2606134.859 6
  25147870.380      -29612.92913
  22762475.950   -12234005.203 6  -9393171.082 6
  22673278.278    -5175084.949 7  -3913981.869 6
  21148931.489    -9850198.375 7  -7641519.603 7
 94  2 15 19 50 30.0010000  0  6 18 14 28 19 22 29
  21596521.036   -17439713.038 7 -11548589.618 7
  22277664.349     3383313.688 6   2680316.883 6
  25136625.536      -88681.516 2
  22752739.630   -12285187.915 6  -9433053.689 6
  22687812.302    -5098708.327 7  -3854467.688 7
  21150059.747    -9844288.791 7  -7636914.734 7
 94  2 15 19 51  0.0020000  0  6 18 14 28 19 22 29
  21587719.463   -17485993.021 7 -11584651.942 7
  22295856.166     3478912.470 6   2754809.388 6
  25125424.822     -147549.317 2    -22916.07012
  22743042.760   -12336148.361 6  -9472763.073 6
  22702441.885    -5021865.140 7  -3794589.928 6
  21151250.588    -9838026.091 7  -7632034.730 7
 94  2 15 19 51 30.0020000  0  7 27 18 14 28 19 22 29
  25146827.025      -37314.28813
  21578954.729   -17532029.936 7 -11620524.853 7
  22314118.979     3574901.660 6   2829606.077 6
  25114258.986     -206226.976 3    -68638.857 1
  22733391.799   -12386871.295 6  -9512287.424 6
  22717152.643    -4944556.828 6  -3734349.730 6
  21152512.088    -9831409.088 7  -7626878.626 7
 94  2 15 19 52  0.0020000  0  6 18 14 28 19 22 29
  21570234.697   -17577832.277 7 -11656214.962 7
  22332454.143     3671265.021 6   2904694.324 6
  25103128.057     -264719.810 4   -114217.583 4
  22723789.916   -12437352.940 6  -9551623.737 6
  22731948.252    -4866781.464 6  -3673745.610 6
  21153830.549    -9824458.527 7  -7621462.623 8
 94  2 15 19 52 30.0020000  0  7 27 18 14 28 19 22 29
  25118476.260      -37194.14613
  21561567.213   -17623397.082 7 -11691720.016 7
  22350863.713     3767979.304 7   2980056.003 6
  25092031.525     -323037.413 5   -159659.832 2
  22714220.494   -12487585.334 6  -9590765.835 6
  22746839.830    -4788550.376 6  -3612786.370 6
  21155216.143    -9817172.652 7  -7615785.333 7
 94  2 15 19 53  0.0020000  0  7 27 18 14 28 19 22 29
  25104329.400     -111492.252 3    -28935.96611
  21552947.041   -17668724.044 7 -11727039.684 7
  22369330.221     3865046.831 6   3055692.962 6
  25080967.572     -381182.016 5   -204967.241 2
  22704720.635   -12537543.117 6  -9629693.954 6
  22761808.705    -4709864.292 6  -3551472.600 6
  21156668.752    -9809557.710 7  -7609851.631 7
 94  2 15 19 53 30.0020000  0  6 18 14 28 19 22 29
  21544364.275   -17713813.236 7 -11762174.125 7
  22387865.822     3962450.310 6   3131591.693 6
  25069937.283     -439147.563 5   -250135.114 5
  22695258.736   -12587225.032 6  -9668407.097 6
  22776866.682    -4630745.734 7  -3489821.863 7
  21158179.244    -9801636.604 7  -7603679.365 8
 94  2 15 19 54  0.0020000  0  6 18 14 28 19 22 29
  21535834.213   -17758648.733 7 -11797110.862 7
  22406474.283     4060199.255 7   3207759.590 6
  25058945.299     -496911.643 5   -295145.967 5
  22685859.260   -12636643.699 6  -9706915.127 6
  22792002.104    -4551206.086 6  -3427842.974 7
  21159742.229    -9793403.315 7  -7597263.828 7
 94  2 15 19 54 30.0020000  0  7 27 18 14 28 19 22 29
  25062051.096      -36953.43113
  21527348.221   -17803220.880 7 -11831842.387 7
  22425141.408     4158315.314 6   3284213.594 6
  25047990.510     -554463.516 4   -339991.518 3
  22676500.924   -12685800.511 6  -9745219.100 6
  22807217.494    -4471252.648 6  -3365541.689 7
  21161371.096    -9784854.734 7  -7590602.604 7
 94  2 15 19 55  0.0020000  0  7 27 18 14 28 19 22 29
  25048001.807     -110766.124 3        -0.26311
  21518920.924   -17847541.608 7 -11866378.015 7
  22443885.807     4256803.100 6   3360957.243 6
  25037092.064     -611794.373 3   -384664.754 3
  22667207.205   -12734707.805 6  -9783328.683 6
  22822505.783    -4390894.950 6  -3302925.384 6
  21163049.877    -9776014.436 7  -7583714.080 7
 94  2 15 19 55 30.0020000  0  7 27 18 14 28 19 22 29
  25033975.291     -184448.483 3    -57415.032 1
  21510541.369   -17891591.331 7 -11900702.472 7
  22462700.533     4355678.081 6   3438002.592 6
  25026216.049     -668897.839 3   -429160.826 1
  22657940.650   -12783372.194 6  -9821248.956 6
  22837879.064    -4310121.251 6  -3239984.939 6
  21164795.908    -9766855.789 7  -7576577.465 7
 94  2 15 19 56  0.0020000  0  7 27 18 14 28 19 22 29
  25019967.783     -258006.682 3   -114733.025 2
  21502202.564   -17935371.366 7 -11934816.760 7
  22481590.088     4454950.128 6   3515357.344 6
  25015394.877     -725790.516 4   -473492.651 2
  22648723.463   -12831800.735 6  -9858985.482 6
  22853328.049    -4228927.794 6  -3176717.391 6
  21166599.088    -9757362.318 7  -7569179.959 7
 94  2 15 19 56 30.0020000  0  7 27 18 14 28 19 22 29
  25006020.314     -331443.045 4   -171956.151 2
  21493921.018   -17978901.431 7 -11968736.284 7
  22500550.393     4554586.251 6   3592995.783 6
  25004600.947     -782498.304 2   -517680.379 1
  22639556.650   -12879993.918 6  -9896538.586 6
  22868856.064    -4147321.516 6  -3113128.168 6
  21168471.088    -9747545.900 7  -7561530.804 7
 94  2 15 19 57  0.0020000  0  6 27 18 14 19 22 29
  24992061.205     -404768.701 3   -229093.011 2
  21485685.268   -18022181.058 7 -12002460.622 7
  22519576.986     4654568.163 6   3670903.686 6
  22630423.541   -12927954.717 6  -9933910.639 6
  22884464.908    -4065298.062 6  -3049213.888 7
  21170402.127    -9737393.663 7  -7553619.992 7
 94  2 15 19 57 30.0020000  0  6 27 18 14 19 22 29
  24978133.814     -477990.052 4   -286148.561 1
  21477492.010   -18065203.892 7 -12035984.906 7
  22538671.299     4754887.434 7   3749074.445 6
  22621343.119   -12975684.885 6  -9971102.948 6
  22900153.830    -3982858.689 6  -2984975.539 7
  21172396.689    -9726891.284 7  -7545436.330 8
 94  2 15 19 58  0.0020000  0  6 27 18 14 19 22 29
  24964226.346     -551089.157 4   -343108.826 1
  21469356.322   -18107971.140 7 -12069309.986 7
  22557814.705     4855532.322 6   3827498.943 6
  22612307.494   -13023173.560 6 -10008107.100 6
  22915918.486    -3900005.060 6  -2920414.371 6
  21174464.768    -9716048.878 7  -7536987.699 8
 94  2 15 19 58 30.0020000  0  6 27 18 14 19 22 29
  24950333.963     -624055.274 5   -399965.529 1
  21461267.674   -18150482.890 7 -12102436.010 7
  22577030.580     4956501.337 6   3906176.037 5
  22603316.291   -13070413.429 6 -10044917.373 6
  22931767.900    -3816741.190 6  -2855533.502 7
  21176593.260    -9704869.105 7  -7528276.222 8
 94  2 15 19 59  0.0020000  0  6 27 18 14 19 22 29
  24936477.088     -696887.234 4   -456717.676 1
  21453229.744   -18192724.828 7 -12135351.780 8
  22596312.119     5057811.537 6   3985118.937 5
  22594365.822   -13117412.220 6 -10081539.797 6
  22947688.361    -3733054.466 6  -2790323.183 6
  21178784.361    -9693338.372 7  -7519291.247 8
 94  2 15 19 59 30.0020000  0  7 27 18 14 28 19 22 29
  24922650.197     -769583.677 5   -513364.161 2
  21445245.799   -18234693.707 7 -12168054.794 7
  22615654.627     5159453.862 6   4064320.629 5
  24940611.752      -55464.764 1
  22585473.010   -13164182.793 6 -10117984.372 6
  22963695.533    -3648952.048 6  -2724788.868 6
  21181037.627    -9681476.051 7  -7510047.898 8
 94  2 15 20  0  0.0020000  0  6 27 18 14 19 22 29
  24908833.346     -842142.608 5   -569903.548 2
  21437312.549   -18276386.459 7 -12200542.614 7
  22635056.877     5261421.397 6   4143775.767 6
  22576609.979   -13210723.939 6 -10154250.183 6
  22979775.143    -3564439.224 6  -2658934.833 6
  21183362.330    -9669282.868 7  -7500546.733 8
 94  2 15 20  0 30.0020000  0  6 27 18 14 19 22 29
  24895051.885     -914584.601 4   -626351.781 3
  21429435.846   -18317792.369 7 -12232806.931 8
  22654526.330     5363712.962 6   4223483.401 6
  22567806.010   -13257041.423 6 -10190341.701 6
  22995941.877    -3479518.963 6  -2592763.242 6
  21185747.150    -9656742.940 7  -7490775.365 7
 94  2 15 20  1  0.0020000  0  6 27 18 14 19 22 29
  24881287.189     -986908.468 4   -682708.040 2
  21421609.010   -18358894.940 7 -12264834.921 7
  22674043.869     5466318.476 6   4303435.667 6
  22559029.268   -13303127.484 6 -10226252.895 6
  23012173.799    -3394186.023 6  -2526270.147 6
  21188204.572    -9643846.671 7  -7480726.347 8
 94  2 15 20  1 30.0020000  0  6 27 18 14 19 22 29
  24867542.588    -1059110.461 3   -738969.244 2
  21413838.775   -18399714.387 7 -12296642.236 7
  22693632.736     5569219.641 6   4383618.322 6
  22550306.338   -13348970.480 6 -10261974.674 6
  23028487.963    -3308454.784 6  -2459466.634 6
  21190724.736    -9630596.621 7  -7470401.660 8
 94  2 15 20  2  0.0020000  0  6 27 18 14 19 22 29
  24853825.502    -1131190.943 3   -795135.849 2
  21406126.041   -18440261.226 7 -12328237.159 7
  22713266.736     5672408.260 6   4464024.910 6
  22541631.354   -13394551.606 6 -10297492.423 6
  23044876.111    -3222331.662 6  -2392357.783 6
  21193315.643    -9616979.383 7  -7459790.834 7
 94  2 15 20  2 30.0020000  0  6 27 18 14 19 22 29
  24840146.713    -1203136.794 3   -851197.514 2
  21398462.846   -18480537.456 7 -12359621.236 7
  22732957.510     5775890.795 6   4544660.576 6
  22533010.127   -13439874.407 6 -10332808.846 6
  23061340.854    -3135818.022 6  -2324944.582 6
  21195975.268    -9602997.958 7  -7448896.225 7
 94  2 15 20  3  0.0020000  0  6 27 18 14 19 22 29
  24826472.635    -1274930.311 3   -907140.502 2
  21390850.385   -18520548.650 7 -12390798.757 7
  22752706.885     5879672.084 6   4625529.024 6
  22524434.705   -13484936.522 6 -10367922.162 6
  23077880.205    -3048914.079 6  -2257227.299 6
  21198703.697    -9588672.532 7  -7437733.585 7
 94  2 15 20  3 30.0020000  0  6 27 18 14 19 22 29
  24812849.752    -1346575.820 4   -962968.042 2
  21383282.533   -18560298.299 7 -12421772.510 7
  22772517.549     5983764.789 6   4706640.138 5
  22515904.580   -13529743.873 6 -10402836.971 6
  23094489.510    -2961629.651 6  -2189213.523 6
  21201490.002    -9574015.221 7  -7426312.318 7
 94  2 15 20  4  0.0020000  0  6 27 18 14 19 22 29
  24799226.713    -1418082.248 4  -1018687.284 3
  21375775.143   -18599768.078 7 -12452528.184 7
  22792382.814     6088184.632 6   4788006.126 5
  22507427.369   -13574316.586 6 -10437568.931 6
  23111166.111    -2873977.320 6  -2120913.069 6
  21204339.939    -9559037.048 7  -7414641.033 7
 94  2 15 20  4 30.0020000  0  6 27 18 14 19 22 29
  24785643.314    -1489452.734 3  -1074300.602 2
  21368315.791   -18638950.305 7 -12483059.766 7
  22812314.807     6192949.290 6   4869640.847 5
  22498980.455   -13618663.344 6 -10472124.833 6
  23127921.799    -2785951.398 6  -2052321.504 6
  21207253.697    -9543741.183 7  -7402722.208 7
 94  2 15 20  5  0.0020000  0  6 27 18 14 19 22 29
  24772088.510    -1560715.742 5  -1129830.151 2
  21360918.111   -18677840.663 7 -12513363.932 7
  22832319.619     6298049.021 6   4951536.648 5
  22490591.025   -13662774.961 6 -10506497.498 6
  23144744.057    -2697549.870 6  -1983437.253 6
  21210222.314    -9528120.541 7  -7390550.303 7
 94  2 15 20  5 30.0020000  0  6 27 18 14 19 22 29
  24758562.486    -1631866.207 3  -1185271.983 2
  21353572.955   -18716433.481 7 -12543436.274 7
  22852387.416     6403484.316 6   5033693.909 6
  22482247.533   -13706642.345 6 -10540679.879 6
  23161637.768    -2608768.889 6  -1914257.378 6
  21213266.291    -9512144.869 7  -7378101.753 7
 94  2 15 20  6  0.0020000  0  6 27 18 14 19 22 29
  24745037.111    -1702900.783 4  -1240623.540 2
  21346283.666   -18754734.635 7 -12573281.312 7
  22872510.588     6509243.079 6   5116103.232 6
  22473939.369   -13750270.718 6 -10574676.012 6
  23178606.228    -2519601.403 6  -1844776.300 6
  21216376.033    -9495801.207 7  -7365366.450 8
 94  2 15 20  6 30.0020000  0  6 27 18 14 19 22 29
  24731528.854    -1773823.483 3  -1295887.925 4
  21339051.353   -18792751.316 7 -12602904.707 8
  22892693.510     6615301.832 6   5198746.344 6
  22465687.135   -13793650.799 6 -10608478.667 6
  23195650.143    -2430040.488 6  -1774988.662 6
  21219553.299    -9479091.777 7  -7352346.137 8
 94  2 15 20  7  0.0020000  0  6 27 18 14 19 22 29
  24718059.541    -1844610.398 4  -1351046.512 2
  21331870.127   -18830487.541 7 -12632309.564 8
  22912930.549     6721648.379 6   5281613.646 5
  22457478.854   -13836793.539 6 -10642096.391 6
  23212758.908    -2340098.553 6  -1704904.122 6
  21222805.088    -9462009.832 7  -7339035.568 8
 94  2 15 20  7 30.0020000  0  7 27 18 14 28 19 22 29
  24704634.432    -1915241.450 5  -1406083.648 3
  21324738.658   -18867954.697 7 -12661504.751 7
  22933223.432     6828274.185 6   5364698.633 6
  24778211.658      -25655.04913
  22449311.064   -13879730.230 7 -10675553.533 6
  23229949.150    -2249788.789 6  -1634532.961 6
  21226127.260    -9444556.411 7  -7325435.534 8
 94  2 15 20  8  0.0020000  0  7 27 18 14 28 19 22 29
  24691217.760    -1985720.190 4  -1461002.094 2
  21317663.963   -18905142.417 8 -12690482.186 8
  22953564.885     6935172.749 6   5447996.133 5
  24768475.728      -76739.127 2
  22441169.885   -13922461.291 6 -10708850.463 6
  23247205.838    -2159119.516 6  -1563881.669 6
  21229515.744    -9426738.085 7  -7311551.145 8
 94  2 15 20  8 30.0020000  0  7 27 18 14 28 19 22 29
  24677843.752    -2056042.352 5  -1515798.514 2
  21310641.791   -18942038.650 7 -12719232.494 8
  22973957.033     7042336.180 6   5531500.022 5
  24758805.291     -127534.496 2
  22433084.713   -13964976.409 6 -10741979.112 6
  23264528.260    -2068100.903 6  -1492958.184 6
  21232977.346    -9408545.129 7  -7297374.825 7
 94  2 15 20  9  0.0020000  0  7 27 18 14 28 19 22 29
  24664487.838    -2126212.140 5  -1570476.198 2
  21303678.385   -18978645.390 7 -12747757.256 8
  22994395.275     7149758.974 6   5615205.959 5
  24749197.666     -178063.641 3
  22425039.307   -14007272.019 7 -10774936.698 6
  23281906.252    -1976744.529 6  -1421771.469 6
  21236519.627    -9389964.435 7  -7282896.410 8
 94  2 15 20  9 30.0020000  0  7 27 18 14 28 19 22 29
  24651151.057    -2196261.436 4  -1625060.029 2
  21296771.025   -19014938.361 7 -12776037.471 7
  23014887.025     7257439.365 6   5699112.670 6
  24739642.885     -228328.464 5
  22417036.244   -14049315.284 7 -10807697.653 6
  23299357.963    -1885045.576 6  -1350317.862 6
  21240124.189    -9371002.269 7  -7268120.715 8
 94  2 15 20 10  0.0020000  0  7 27 18 14 28 19 22 29
  24637840.205    -2266206.653 5  -1679562.710 2
  21289926.369   -19050902.409 7 -12804061.394 7
  23035430.885     7365377.104 6   5783219.907 6
  24730109.939     -278321.103 2
  22409091.791   -14091065.686 6 -10840230.421 6
  23316874.705    -1792994.020 6  -1278589.491 6
  21243800.807    -9351667.215 7  -7253054.445 7
 94  2 15 20 10 30.0020000  0  7 27 18 14 28 19 22 29
  24624548.041    -2336052.120 5  -1733987.671 3
  21283146.596   -19086536.352 7 -12831828.109 8
  23056020.658     7473587.072 6   5867539.293 6
  24720656.658     -328039.554 3
  22401207.932   -14132519.472 7 -10872532.023 6
  23334453.479    -1700580.991 6  -1206579.482 6
  21247547.643    -9331969.602 7  -7237705.698 7
 94  2 15 20 11  0.0020000  0  6 27 18 14 19 22 29
  24611264.908    -2405816.681 4  -1788349.609 2
  21276429.049   -19121837.410 7 -12859335.422 8
  23076667.025     7582071.004 6   5952072.151 6
  22393371.197   -14173690.281 7 -10904613.149 6
  23352108.650    -1607822.001 6  -1134299.852 6
  21251358.783    -9311934.350 7  -7222093.844 8
 94  2 15 20 11 30.0020000  0  7 27 18 14 19 22 29 31
  24598016.893    -2475495.152 5  -1842644.428 2
  21269763.994   -19156812.062 7 -12886588.408 7
  23097359.846     7690832.935 6   6036821.596 6
  22385586.002   -14214589.775 7 -10936482.848 6
  23369825.260    -1514724.166 6  -1061756.209 6
  21255237.354    -9291573.878 7  -7206228.547 8
  24967209.182      -38259.16813
 94  2 15 20 12  0.0020000  0  7 27 18 14 19 22 29 31
  24584778.916    -2545058.632 5  -1896849.728 2
  21263176.057   -19191487.116 7 -12913607.929 7
  23118110.299     7799872.465 6   6121787.398 6
  22377840.619   -14255253.604 6 -10968168.920 6
  23387600.666    -1421287.493 6   -988948.501 6
  21259178.236    -9270880.426 7  -7190103.809 7
  24952662.275     -114745.601 4        -0.37711
 94  2 15 20 12 30.0020000  0  8 27 18 14 28 19 22 29 31
  24571568.025    -2614493.620 4  -1950954.802 2
  21256624.104   -19225877.152 7 -12940405.369 8
  23138908.885     7909169.728 6   6206953.974 5
  24683352.861      -24232.24713
  22370142.916   -14295718.087 6 -10999699.673 6
  23405444.643    -1327539.923 6   -915898.543 6
  21263179.916    -9249846.114 7  -7173713.466 7
  24938109.588     -191196.406 3    -59572.182 1
 94  2 15 20 13  0.0020000  0  8 27 18 14 28 19 22 29 31
  24558377.932    -2683772.906 5  -2004938.671 1
  21250137.549   -19259980.642 7 -12966979.523 7
  23159753.643     8018711.730 6   6292311.287 5
  24674180.338      -72450.773 3    -18753.66912
  22362478.596   -14335982.405 6 -11031074.432 6
  23423350.291    -1233472.051 6   -842598.989 6
  21267247.729    -9228447.285 7  -7157039.072 8
  24923568.471     -267607.051 3   -119112.701 1
 94  2 15 20 13 30.0020000  0  8 27 18 14 28 19 22 29 31
  24545239.260    -2752876.021 5  -2058785.188 1
  21243704.564   -19293814.212 7 -12993343.348 7
  23180642.854     8128495.120 6   6377856.674 6
  24665057.314     -120333.034 4    -56064.482 1
  22354861.650   -14376047.710 6 -11062294.147 6
  23441312.119    -1139064.658 6   -769034.948 6
  21271396.455    -9206673.563 7  -7140072.543 7
  24909035.291     -343976.268 4   -178621.001 1
 94  2 15 20 14  0.0020000  0  8 27 18 14 28 19 22 29 31
  24532116.580    -2821798.816 5  -2112491.211 2
  21237314.689   -19327366.438 7 -13019487.927 7
  23201573.994     8238519.040 6   6463589.487 6
  24656014.846     -167899.243 5    -93128.963 1
  22347279.416   -14415909.509 6 -11093355.260 6
  23459345.291    -1044308.775 6   -695199.307 6
  21275608.486    -9184520.411 7  -7122810.372 7
  24894508.369     -420304.474 5   -238097.383 1
 94  2 15 20 14 30.0020000  0  8 27 18 14 28 19 22 29 31
  24519032.697    -2890551.232 5  -2166064.496 2
  21230994.736   -19360600.839 7 -13045384.879 7
  23222566.439     8348787.078 6   6549512.587 5
  24647028.564     -215160.019 5   -129955.517 1
  22339735.439   -14455544.677 6 -11124239.773 6
  23477446.424     -949208.610 6   -621095.415 6
  21279898.619    -9161996.040 7  -7105258.925 8
  24879994.104     -496593.350 5   -297543.061 1
 94  2 15 20 15  0.0020000  0  8 27 18 14 28 19 22 29 31
  24505969.994    -2959148.617 5  -2219516.964 2
  21224726.049   -19393509.444 7 -13071027.950 7
  23243596.572     8459312.910 6   6635636.481 5
  24638083.986     -262117.229 5   -166545.505 2
  22332232.166   -14494936.700 6 -11154934.838 6
  23495606.197     -853759.920 6   -546719.918 6
  21284250.588    -9139113.408 7  -7087428.335 7
  24865478.775     -572839.520 5   -356955.506 2
 94  2 15 20 15 30.0020000  0  8 27 18 14 28 19 22 29 31
  24492945.478    -3027614.405 5  -2272866.924 3
  21218531.064   -19426077.706 7 -13096405.810 7
  23264676.502     8570098.210 6   6721962.589 5
  24629216.314     -308769.032 5   -202897.429 3
  22324795.479   -14534069.760 7 -11185428.104 6
  23513835.635     -757969.926 6   -472078.464 6
  21288671.807    -9115878.685 7  -7069323.363 7
  24850987.322     -649035.202 5   -416328.632 2
 94  2 15 20 16  0.0020000  0  8 27 18 14 28 19 22 29 31
  24479944.736    -3095971.197 5  -2326131.953 2
  21212405.268   -19458284.921 7 -13121502.359 8
  23285805.166     8681133.740 6   6808483.611 5
  24620392.768     -355125.233 5   -239019.026 3
  22317391.033   -14572939.721 7 -11215716.376 6
  23532128.307     -661859.617 6   -397187.419 5
  21293160.260    -9092293.394 7  -7050945.249 7
  24836492.369     -725179.428 5   -475661.715 1
 94  2 15 20 16 30.0020000  0  8 27 18 14 28 19 22 29 31
  24466964.854    -3164233.354 5  -2379323.256 4
  21206345.525   -19490124.958 7 -13146312.787 7
  23306992.705     8792410.533 6   6895192.733 5
  24611626.322     -401162.015 5   -274891.800 4
  22310051.018   -14611549.389 6 -11245801.806 6
  23550465.783     -565439.905 6   -322055.283 5
  21297717.908    -9068353.513 7  -7032290.825 7
  24822019.416     -801266.845 5   -534950.497 1
 94  2 15 20 17  0.0020000  0  8 27 18 14 28 19 22 29 31
  24453973.236    -3232406.166 4  -2432444.900 4
  21200354.205   -19521619.193 7 -13170853.744 8
  23328205.143     8903919.687 6   6982082.882 5
  24602937.322     -446855.532 5   -310496.998 5
  22302747.689   -14649907.093 7 -11275690.904 6
  23568871.939     -468708.339 6   -246680.160 6
  21302341.596    -9044038.325 7  -7013343.936 7
  24807547.400     -877295.181 5   -594193.310 2
 94  2 15 20 17 30.0020000  0  8 27 18 14 28 19 22 29 31
  24441023.127    -3300482.924 5  -2485491.753 4
  21194422.088   -19552769.243 7 -13195126.520 8
  23349461.143     9015657.150 6   7069150.841 5
  24594301.275     -492196.058 4   -345827.182 5
  22295493.697   -14688022.396 6 -11305391.148 6
  23587341.580     -371661.402 6   -171059.310 5
  21307044.721    -9019333.451 7  -6994093.426 7
  24793094.127     -953251.358 5   -653379.770 2
 94  2 15 20 18  0.0020000  0  8 27 18 14 28 19 22 29 31
  24428098.697    -3368447.385 5  -2538451.056 3
  21188560.760   -19583573.225 7 -13219129.621 8
  23370772.385     9127623.342 6   7156397.108 5
  24585746.963     -537182.934 5   -380881.683 5
  22288282.471   -14725911.015 6 -11334914.737 6
  23605870.033     -274303.905 6    -95196.442 6
  21311820.447    -8994230.641 7  -6974532.814 7
  24778653.346    -1029125.276 5   -712502.241 3
 94  2 15 20 18 30.0020000  0  8 27 18 14 28 19 22 29 31
  24415181.900    -3436293.689 4  -2591318.282 4
  21182758.432   -19614057.350 7 -13242883.462 7
  23392122.322     9239813.819 6   7243818.161 5
  24577260.494     -581811.946 5   -415657.405 5
  22281116.768   -14763580.217 6 -11364267.350 6
  23624453.041     -176644.707 6    -19098.483 6
  21316673.549    -8968735.602 7  -6954666.578 7
  24764230.400    -1104912.166 3   -771556.929 4
 94  2 15 20 19  0.0020000  0  8 27 18 14 28 19 22 29 31
  24402292.682    -3504004.273 5  -2644079.766 4
  21177016.213   -19644239.244 7 -13266401.820 8
  23413508.822     9352218.326 6   7331405.964 5
  24568828.986     -626097.781 5   -450165.816 6
  22273989.963   -14801021.495 6 -11393442.393 6
  23643094.697      -78691.126 6     57228.808 6
  21321598.705    -8942857.062 7  -6934501.513 7
  24749831.486    -1180606.148 3   -830539.207 2
 94  2 15 20 19 30.0020000  0  8 27 18 14 28 19 22 29 31
  24389422.416    -3571566.990 5  -2696726.018 3
  21171330.916   -19674107.551 7 -13289675.818 8
  23434945.189     9464840.502 6   7419163.413 5
  24560459.385     -670054.868 5   -484418.038 5
  22266910.971   -14838229.287 6 -11422435.449 6
  23661787.463       19552.039 6    133781.765 6
  21326594.354    -8916607.398 7  -6914047.244 7
  24735438.908    -1256209.943 3   -889451.123 1
 94  2 15 20 20  0.0020000  0  8 27 18 14 28 19 22 29 31
  24376604.885    -3638979.322 5  -2749255.093 3
  21165709.893   -19703667.735 7 -13312709.740 8
  23456414.689     9577674.669 6   7507085.993 5
  24552156.182     -713685.993 5   -518416.206 5
  22259873.705   -14875197.152 7 -11451241.563 6
  23680536.158      118077.283 6    210554.544 6
  21331657.978    -8889988.457 7  -6893305.268 7
  24721057.143    -1331747.091 3   -948311.109 1
 94  2 15 20 20 30.0020000  0  8 27 18 14 28 19 22 29 31
  24363814.580    -3706233.407 5  -2801660.816 4
  21160138.049   -19732936.166 7 -13335516.303 7
  23477927.596     9690711.140 6   7595166.222 5
  24543906.736     -756979.106 3   -552150.978 5
  22252883.275   -14911912.796 7 -11479851.142 6
  23699344.268      216884.363 6    287546.944 6
  21336791.650    -8863009.662 7  -6872282.856 7
  24706714.002    -1407221.430 3  -1007122.325 1
 94  2 15 20 21  0.0020000  0  8 27 18 14 28 19 22 29 31
  24351042.002    -3773334.534 4  -2853947.351 4
  21154628.268   -19761878.837 7 -13358069.013 8
  23499473.783     9803949.523 6   7683403.839 4
  24535740.221     -799932.026 5   -585620.767 5
  22245943.330   -14948376.887 6 -11508264.718 6
  23718198.354      315974.234 6    364759.676 5
  21341992.822    -8835665.169 7  -6850975.500 7
  24692355.104    -1482633.320 5  -1065884.758 1
 94  2 15 20 21 30.0020000  0  8 27 18 14 28 19 22 29 31
  24338295.447    -3840299.626 4  -2906127.839 4
  21149187.541   -19790475.516 7 -13380352.164 8
  23521058.947     9917403.953 6   7771809.732 5
  24527643.135     -842529.458 6   -618813.618 5
  22239053.900   -14984609.196 6 -11536497.669 7
  23737113.236      415354.269 6    442198.558 6
  21347268.697    -8807947.175 7  -6829377.116 7
  24678012.533    -1557982.307 5  -1124598.259 1
 94  2 15 20 22  0.0020000  0  8 27 18 14 28 19 22 29 31
  24325567.111    -3907139.151 3  -2958210.537 5
  21143812.580   -19818731.068 7 -13402369.497 7
  23542697.354    10031067.076 6   7860378.303 5
  24519603.416     -884769.989 5   -651728.386 3
  22232201.666   -15020626.247 6 -11564562.897 7
  23756075.525      515005.317 6    519848.590 6
  21352614.057    -8779853.813 7  -6807486.222 7
  24663700.557    -1633257.994 5  -1183254.598 1
 94  2 15 20 22 30.0020000  0  8 27 18 14 28 19 22 29 31
  24312871.299    -3973849.548 4  -3010192.581 5
  21138507.682   -19846609.472 7 -13424092.921 7
  23564362.775    10144944.473 6   7949113.815 5
  24511635.432     -926639.149 5   -684353.799 3
  22225383.416   -15056441.909 7 -11592471.227 7
  23775088.299      614925.916 6    597708.672 6
  21358036.682    -8751386.485 7  -6785303.930 7
  24649392.463    -1708418.877 5  -1241821.491 2
 94  2 15 20 23  0.0020000  0  8 27 18 14 28 19 22 29 31
  24300216.408    -4040445.019 5  -3062085.043 4
  21133274.947   -19874095.612 7 -13445510.683 7
  23586074.768    10259042.816 6   8038021.455 5
  24503739.197     -968146.307 5   -716697.017 5
  22218610.604   -15092075.388 7 -11620237.564 7
  23794150.736      715119.234 6    675781.272 6
  21363525.783    -8722539.144 7  -6762825.532 7
  24635117.189    -1783465.962 5  -1300299.649 2
 94  2 15 20 23 30.0020000  0  8 27 18 14 28 19 22 29 31
  24287557.525    -4106915.355 5  -3113879.981 4
  21128113.002   -19901228.962 7 -13466653.569 8
  23607825.385    10373351.078 6   8127092.706 5
  24495916.025    -1009278.222 5   -748747.762 5
  22211862.846   -15127513.542 7 -11647851.710 7
  23813271.830      815591.841 6    754071.523 6
  21369078.291    -8693313.626 7  -6740052.446 7
  24620850.104    -1858393.278 5  -1358684.432 3
 94  2 15 20 24  0.0020000  0  8 27 18 14 28 19 22 29 31
  24274935.775    -4173259.779 5  -3165576.764 4
  21123016.096   -19928021.654 7 -13487530.990 8
  23629613.205    10487849.350 6   8216311.996 5
  24488151.502    -1050036.293 6   -780507.288 6
  22205152.869   -15162743.323 7 -11675303.477 7
  23832442.658      916327.676 6    832566.857 5
  21374714.674    -8663711.849 7  -6716986.172 7
  24606611.619    -1933207.902 5  -1416981.386 4
 94  2 15 20 24 30.0020000  0  8 27 18 14 28 19 22 29 31
  24262338.103    -4239470.408 5  -3217169.321 2
  21117981.150   -19954465.735 7 -13508136.760 7
  23651435.041    10602530.041 5   8305673.445 5
  24480468.611    -1090414.649 5   -811970.860 5
  22198497.064   -15197742.111 7 -11702575.256 7
  23851664.064     1017345.092 6    911281.654 5
  21380425.432    -8633722.256 7  -6693617.690 8
  24592392.838    -2007920.811 5  -1475199.074 5
 94  2 15 20 25  0.0020000  0  8 27 18 14 28 19 22 29 31
  24249765.213    -4305550.044 5  -3268659.804 2
  21113009.682   -19980587.717 7 -13528491.548 7
  23673293.721    10717383.279 6   8395169.375 5
  24472860.635    -1130418.146 5   -843142.445 5
  22191882.205   -15232479.483 7 -11729643.331 6
  23870942.541     1118648.098 6    990218.994 5
  21386209.486    -8603323.902 7  -6669930.713 7
  24578198.525    -2082550.653 5  -1533352.055 4
 94  2 15 20 25 30.0020000  0  8 27 18 14 28 19 22 29 31
  24237206.635    -4371491.883 5  -3320042.928 3
  21108106.471   -20006383.954 7 -13548592.524 7
  23695179.908    10832398.492 6   8484791.416 5
  24465315.604    -1170044.291 4   -874019.840 2
  22185327.924   -15266950.365 7 -11756503.744 6
  23890270.064     1220216.637 6   1069363.220 6
  21392073.268    -8572507.193 7  -6645917.739 8
  24564004.932    -2157099.015 5  -1591441.604 3
 94  2 15 20 26  0.0020000  0  8 27 18 14 28 19 22 29 31
  24224705.346    -4437289.284 5  -3371313.454 3
  21103263.791   -20031810.498 7 -13568405.418 7
  23717096.877    10947586.579 5   8574548.280 5
  24457846.580    -1209307.679 5   -904614.637 2
  22178816.572   -15301167.202 7 -11783166.199 6
  23909649.197     1322045.996 6   1148710.671 6
  21398021.471    -8541260.518 7  -6621569.699 8
  24549842.979    -2231551.917 5  -1649456.703 1
 94  2 15 20 26 30.0020000  0  8 27 18 14 28 19 22 29 31
  24212200.822    -4502937.573 5  -3422467.898 4
  21098495.080   -20056859.170 7 -13587923.881 7
  23739052.807    11062947.184 5   8664439.494 4
  24450438.221    -1248214.678 6   -934931.741 5
  22172355.189   -15335128.200 7 -11809629.304 6
  23929079.025     1424158.125 6   1228278.477 6
  21404049.088    -8509589.216 7  -6596890.802 7
  24535693.353    -2305893.326 5  -1707384.941 1
 94  2 15 20 27  0.0020000  0  8 27 18 14 28 19 22 29 31
  24199746.244    -4568443.786 5  -3473511.582 4
  21093803.900   -20081530.587 7 -13607148.384 7
  23761032.103    11178483.597 5   8754467.728 4
  24443103.354    -1286753.896 5   -964962.253 6
  22165936.322   -15368848.044 7 -11835904.502 6
  23948565.838     1526545.981 6   1308061.141 6
  21410145.744    -8477514.900 7  -6571897.867 8
  24521551.682    -2380095.999 2  -1765205.098 2
 94  2 15 20 27 30.0020000  0  8 27 18 14 28 19 22 29 31
  24187302.049    -4633806.578 5  -3524443.508 5
  21089183.549   -20105814.594 7 -13626070.986 7
  23783063.400    11294194.326 6   8844631.793 4
  24435841.502    -1324928.424 5   -994708.577 5
  22159562.361   -15402345.335 7 -11862006.273 6
  23968099.658     1629200.131 6   1388051.246 6
  21416327.752    -8445060.475 7  -6546608.730 8
  24507478.221    -2454141.181 3  -1822902.493 2
 94  2 15 20 28  0.0020000  0  8 27 18 14 28 19 22 29 31
  24174875.432    -4699042.899 5  -3575276.948 5
  21084633.205   -20129718.967 7 -13644697.778 8
  23805110.064    11410081.625 5   8934933.452 5
  24428656.955    -1362741.254 5  -1024172.912 4
  22153236.143   -15435610.484 7 -11887927.173 6
  23987683.455     1732131.306 6   1468257.262 5
  21422570.314    -8412238.555 7  -6521033.231 7
  24493420.353    -2528015.660 4  -1880466.815 2
 94  2 15 20 28 30.0020000  0  8 27 18 14 28 19 22 29 31
  24162497.775    -4764150.567 5  -3626010.131 4
  21080152.080   -20153259.701 7 -13663041.234 8
  23827192.854    11526138.480 5   9025367.242 5
  24421520.158    -1400172.761 5  -1053340.239 1
  22146952.682   -15468635.450 7 -11913660.891 6
  24007325.346     1835330.829 6   1548672.375 5
  21428887.049    -8379058.303 7  -6495178.537 8
  24479389.080    -2601716.550 5  -1937895.968 4
 94  2 15 20 29  0.0020000  0  8 27 18 14 28 19 22 29 31
  24150131.510    -4829136.934 5  -3676648.808 5
  21075739.354   -20176453.798 7 -13681114.575 7
  23849310.033    11642355.105 5   9115925.478 3
  24414471.299    -1437228.191 6
  22140707.158   -15501445.116 7 -11939226.878 6
  24027007.596     1938757.449 6   1629264.421 5
  21435268.588    -8345514.735 7  -6469040.711 7
  24465401.002    -2675252.264 4  -1995196.450 4
 94  2 15 20 29 30.0020000  0  8 27 18 14 28 19 22 29 31
  24137786.752    -4894004.621 5  -3727194.970 3
  21071390.275   -20199315.098 7 -13698928.569 7
  23871442.244    11758720.465 5   9206599.639 4
  24407491.111    -1473922.898 6    -14261.00015
  22134496.119   -15534041.062 6 -11964626.299 6
  24046729.877     2042403.015 6   1710027.117 5
  21441724.236    -8311597.212 7  -6442611.513 7
  24451435.791    -2748644.605 5  -2052385.186 4
 94  2 15 20 30  0.0020000  0  8 27 18 14 28 19 22 29 31
  24125463.174    -4958755.217 5  -3777649.935 2
  21067106.424   -20221842.002 7 -13716481.999 8
  23893627.994    11875226.204 5   9297383.240 5
  24400580.572    -1510230.821 5    -42552.855 6
  22128341.697   -15566425.285 7 -11989860.758 6
  24066499.041     2146274.729 6   1790965.982 6
  21448251.299    -8277300.257 7  -6415886.638 7
  24437495.260    -2821907.798 5  -2109473.204 2
 94  2 15 20 30 30.0020000  0  8 27 18 14 28 19 22 29 31
  24113151.580    -5023382.254 5  -3828008.636 5
  21062881.104   -20244038.651 7 -13733778.110 8
  23915825.096    11991858.213 5   9388265.123 5
  24393745.854    -1546142.242 5    -70535.593 6
  22122209.088   -15598610.214 7 -12014939.916 6
  24086305.174     2250360.558 6   1872071.718 6
  21454850.228    -8242628.243 7  -6388869.506 7
  24423573.971    -2895055.146 3  -2166471.044 1
 94  2 15 20 31  0.0020000  0  8 27 18 14 28 19 22 29 31
  24100894.541    -5087878.586 5  -3878265.455 4
  21058721.775   -20265878.883 7 -13750796.476 7
  23938042.471    12108636.770 5   9479261.283 5
  24386991.971    -1581642.096 6    -98197.753 5
  22116124.064   -15630581.403 6 -12039852.511 7
  24106155.377     2354686.277 6   1953364.357 5
  21461521.408    -8207557.375 7  -6361541.602 7
  24409663.275    -2968081.554 3
 94  2 15 20 31 30.0020000  0  8 27 18 14 28 19 22 29 31
  24088642.697    -5152249.204 5  -3928424.347 3
  21054643.549   -20287344.695 7 -13767523.076 7
  23960294.635    12225565.818 5   9570374.618 5
  24380319.010    -1616713.040 6   -125525.775 1
  22110088.564   -15662334.316 7 -12064595.043 7
  24126057.455     2459260.156 6   2034850.388 6
  21468271.666    -8172099.818 7  -6333912.361 7
  24395813.213    -3040992.518 5
 94  2 15 20 32  0.0020000  0  8 27 18 14 28 19 22 29 31
  24076417.963    -5216492.158 5  -3978483.768 5
  21050632.463   -20308413.659 7 -13783940.473 7
  23982576.268    12342654.830 5   9661612.686 4
  24373725.791    -1651348.830 5
  22104089.064   -15693864.533 7 -12089164.058 7
  24146004.650     2564067.361 6   2116518.203 5
  21475089.010    -8136258.174 7  -6305983.837 7
  24381944.822    -3113781.568 5    -28347.45314
 94  2 15 20 32 30.0020000  0  8 27 18 14 28 19 22 29 31
  24064216.471    -5280595.725 5  -4028434.580 5
  21046699.025   -20329082.544 7 -13800046.102 7
  24004896.580    12459908.418 4   9752978.997 2
  24367196.408    -1685580.324 3
  22098126.877   -15725176.353 7 -12113562.868 7
  24165980.635     2669088.168 6   2198352.462 5
  21481978.979    -8100035.327 7  -6277758.277 8
  24368133.799    -3186431.611 6    -84957.775 5
 94  2 15 20 33  0.0020000  0  8 27 18 14 28 19 22 29 31
  24052048.658    -5344563.144 5  -4078279.289 5
  21042840.088   -20349350.256 7 -13815839.143 7
  24027226.736    12577327.526 3   9844474.231 1
  24360785.400    -1719409.904 4        -0.33616
  22092212.088   -15756272.047 7 -12137793.279 7
  24186010.580     2774319.880 6   2280351.080 5
  21488947.924    -8063437.054 7  -6249240.185 7
  24354336.471    -3258926.241 5   -141446.940 5
 94  2 15 20 33 30.0020000  0  8 27 18 14 28 19 22 29 31
  24039901.721    -5408399.729 5  -4128022.022 5
  21039058.486   -20369228.373 7 -13831328.605 7
  24049607.353    12694890.693 1   9936081.762 1
  24354413.658    -1752846.414 5    -26054.682 5
  22086335.057   -15787152.829 7 -12161856.203 7
  24206067.486     2879743.448 6   2362499.197 5
  21495984.228    -8026473.146 7  -6220437.195 7
  24340571.838    -3331251.475 4   -197804.157 5
 94  2 15 20 34  0.0020000  0  7 27 18 28 19 22 29 31
  24027777.033    -5472105.432 5  -4177662.796 5
  21035343.971   -20388732.489 7 -13846526.608 7
  24348124.072    -1785903.119 6    -51813.077 5
  22080507.478   -15817810.245 7 -12185745.081 6
  24226165.393     2985357.253 6   2444795.530 6
  21503082.557    -7989148.323 7  -6191352.950 8
  24326838.994    -3403399.237 2   -254022.943 3
 94  2 15 20 34 30.0020000  0  7 27 18 28 19 22 29 31
  24015673.541    -5535693.174 5  -4227211.637 5
  21031698.541   -20407881.877 7 -13861448.212 8
  24341905.533    -1818572.885 5    -77269.962 3
  22074704.986   -15848249.378 7 -12209463.868 6
  24246306.447     3091177.937 6   2527253.067 5
  21510253.455    -7951458.866 7  -6161984.591 8
  24313157.580    -3475361.088 4   -310096.955 1
 94  2 15 20 35  0.0020000  0  7 27 18 28 19 22 29 31
  24003585.963    -5599196.548 5  -4276694.761 5
  21028125.268   -20426679.002 7 -13876095.334 7
  24335760.439    -1850836.577 5   -102410.564 4
  22068956.393   -15878468.808 7 -12233011.464 7
  24266484.408     3197199.484 6   2609867.132 5
  21517500.861    -7913389.410 7  -6132320.127 8
  24299486.658    -3547161.230 6   -366045.038 1
 94  2 15 20 35 30.0020000  0  7 27 18 28 19 22 29 31
  23991534.885    -5662609.398 5  -4326107.274 5
  21024614.291   -20445110.061 7 -13890457.198 7
  24329706.713    -1882684.957 5   -127227.312 5
  22063248.978   -15908470.341 7 -12256389.267 7
  24286696.283     3303414.963 6   2692632.299 5
  21524820.072    -7874918.202 7  -6102342.598 8
  24285853.783    -3618804.796 6   -421871.185 1
 94  2 15 20 36  0.0020000  0  7 27 18 28 19 22 29 31
  23979478.322    -5725937.772 5  -4375453.974 5
  21021181.580   -20463171.664 7 -13904531.155 7
  24323718.416    -1914114.505 5   -151717.769 5
  22057580.604   -15938266.562 7 -12279607.084 7
  24306949.479     3409829.154 6   2775552.348 5
  21532220.252    -7836046.581 7  -6072053.055 8
  24272252.119    -3690296.174 5   -477578.751 5
 94  2 15 20 36 30.0020000  0  7 27 18 28 19 22 29 31
  23967433.072    -5789185.194 5  -4424737.646 5
  21017818.283   -20480854.274 7 -13918309.817 7
  24317820.096    -1945126.398 5   -175882.822 5
  22051945.971   -15967864.064 7 -12302670.049 7
  24327220.932     3516432.609 5   2858619.863 4
  21539695.885    -7796767.462 7  -6041445.988 8
  24258671.877    -3761631.679 3   -533164.708 5
 94  2 15 20 37  0.0020000  0  7 27 18 28 19 22 29 31
  23955418.854    -5852333.401 5  -4473943.974 5
  21014522.314   -20498154.091 7 -13931790.207 7
  24312001.822    -1975727.461 5   -199727.717 4
  22046347.127   -15997262.539 7 -12325577.943 7
  24347551.893     3623216.820 6   2941828.231 4
  21547243.728    -7757089.072 7  -6010527.821 8
  24245128.846    -3832798.359 3   -588619.032 5
 94  2 15 20 37 30.0020000  0  7 27 18 28 19 22 29 31
  23943428.846    -5915361.224 5  -4523056.483 5
  21011300.729   -20515086.703 7 -13944984.448 7
  24306251.650    -2005930.293 5   -223262.307 5
  22040794.658   -16026458.296 7 -12348327.874 7
  24367904.705     3730190.700 5   3025184.377 5
  21554862.439    -7717048.443 7  -5979327.379 8
  24231619.588    -3903776.437 5   -643926.457 5
 94  2 15 20 38  0.0020000  0  7 27 18 28 19 22 29 31
  23931451.252    -5978276.802 5  -4572081.572 5
  21008146.963   -20531664.432 7 -13957902.143 7
  24300572.572    -2035747.451 5   -246496.294 5
  22035274.400   -16055444.772 7 -12370914.734 7
  24388298.822     3837355.567 5   3108689.319 4
  21562545.338    -7676668.404 7  -5947862.454 8
  24218150.916    -3974572.018 5   -699091.793 2
 94  2 15 20 38 30.0020000  0  7 27 18 28 19 22 29 31
  23919497.541    -6041077.359 5  -4621017.024 5
  21005058.158   -20547897.998 7 -13970551.653 7
  24294975.557    -2065183.508 5   -269433.545 3
  22029796.111   -16084232.693 7 -12393346.885 7
  24408726.018     3944691.489 5   3192327.599 4
  21570295.705    -7635944.538 7  -5916129.605 7
  24204708.354    -4045196.153 5   -754123.519 1
 94  2 15 20 39  0.0020000  0  7 27 18 28 19 22 29 31
  23907572.291    -6103747.514 5  -4669850.853 5
  21002034.564   -20563783.145 7 -13982929.703 8
  24289447.346    -2094219.345 6   -292058.777 5
  22024360.463   -16112824.472 7 -12415626.198 7
  24429184.158     4052206.732 5   3276105.645 4
  21578109.510    -7594871.072 7  -5884124.381 8
  24191302.564    -4115649.553 5   -809022.295 1
 94  2 15 20 39 30.0020000  0  7 27 18 28 19 22 29 31
  23895669.838    -6166292.576 5  -4718587.231 5
  20999077.330   -20579299.137 7 -13995020.094 7
  24284007.947    -2122839.888 5   -314360.430 5
  22018958.291   -16141223.934 7 -12437755.645 7
  24449677.463     4159903.471 5   3360025.070 4
  21585999.768    -7553427.491 7  -5851830.702 8
  24177931.666    -4185934.218 4   -863789.472 2
 94  2 15 20 40  0.0020000  0  7 27 18 28 19 22 29 31
  23883796.900    -6228719.111 5  -4767231.264 5
  20996204.846   -20594421.951 8 -14006804.103 7
  24278635.814    -2151034.457 5   -336330.186 3
  22013581.955   -16169440.335 7 -12459742.444 7
  24470208.041     4267775.232 5   3444080.885 5
  21593961.783    -7511578.281 7  -5819220.999 7
  24164590.525    -4256050.185 5   -918425.109 5
 94  2 15 20 40 30.0020000  0  7 27 18 28 19 22 29 31
  23871951.643    -6291026.380 5  -4815782.345 5
  20993399.260   -20609147.943 7 -14018278.891 7
  24273360.455    -2178796.149 5   -357962.592 4
  22008254.080   -16197484.335 7 -12481594.905 7
  24490755.947     4375812.064 5   3528265.296 3
  21602000.525    -7469317.126 7  -5786290.258 8
  24151283.354    -4325989.142 5   -972922.977 5
 94  2 15 20 41  0.0020000  0  7 27 18 28 19 22 29 31
  23860100.846    -6353213.850 5  -4864240.096 5
  20990674.830   -20623470.628 7 -14029439.425 7
  24268151.752    -2206120.454 5   -379254.214 5
  22002954.002   -16225340.937 7 -12503301.358 7
  24511356.127     4484022.535 6   3612585.021 4
  21610121.033    -7426657.552 7  -5753049.059 8
  24138001.541    -4395746.272 5  -1027279.115 5
 94  2 15 20 41 30.0020000  0  7 27 18 28 19 22 29 31
  23848292.736    -6415295.011 5  -4912615.018 5
  20988028.643   -20637385.497 7 -14040282.188 8
  24263041.924    -2233016.897 6   -400212.531 6
  21997686.760   -16253006.831 7 -12524859.214 7
  24531973.158     4592390.015 6   3697027.117 3
  21618314.479    -7383605.026 7  -5719501.667 7
  24124765.510    -4465316.875 5  -1081489.952 3
 94  2 15 20 42  0.0020000  0  7 27 18 28 19 22 29 31
  23836500.135    -6477265.167 5  -4960903.422 5
  20985451.104   -20650905.115 7 -14050816.961 8
  24258000.760    -2259484.293 6   -420836.401 5
  21992459.471   -16280465.717 7 -12546255.752 7
  24552623.986     4700902.329 6   3781582.071 2
  21626577.103    -7340174.483 7  -5685659.732 8
  24111568.103    -4534694.303 5  -1135550.287 1
 94  2 15 20 42 30.0020000  0  7 27 18 28 19 22 29 31
  23824718.096    -6539127.883 5  -5009108.085 5
  20982954.361   -20664054.400 7 -14061063.146 7
  24253029.033    -2285525.225 5   -441127.993 6
  21987278.416   -16307718.988 7 -12567492.081 7
  24573298.463     4809544.209 6   3866237.941 4
  21634911.104    -7296383.811 7  -5651537.153 7
  24098399.775    -4603869.322 5  -1189452.782 1
 94  2 15 20 43  0.0020000  0  7 27 18 28 19 22 29 31
  23812973.424    -6600900.963 5  -5057242.910 5
  20980524.213   -20676832.839 7 -14071020.379 7
  24248172.080    -2311143.723 5   -461090.407 5
  21982129.533   -16334767.192 7 -12588568.610 7
  24594000.494     4918309.270 6   3950989.753 4
  21643317.299    -7252230.932 7  -5617132.374 7
  24085280.088    -4672834.840 6  -1243192.089 2
 94  2 15 20 43 30.0020000  0  7 27 18 28 19 22 29 31
  23801230.322    -6662587.428 5  -5105310.261 5
  20978164.197   -20689233.542 7 -14080683.265 7
  24243378.150    -2336329.827 5   -480715.835 4
  21977024.275   -16361606.161 7 -12609482.104 7
  24614716.510     5027199.939 5   4035839.525 3
  21651789.854    -7207693.086 7  -5582427.603 8
  24072192.666    -4741576.584 6  -1296757.038 5
 94  2 15 20 44  0.0020000  0  7 27 18 28 19 22 29 31
  23789505.955    -6724172.730 5  -5153298.757 5
  20975871.955   -20701266.047 7 -14090059.264 7
  24238665.135    -2361084.509 6   -500005.311 4
  21971951.197   -16388238.920 7 -12630234.908 7
  24635469.807     5136227.307 5   4120795.761 4
  21660336.010    -7162763.873 7  -5547417.878 7
  24059160.807    -4810089.773 5  -1350143.870 6
 94  2 15 20 44 30.0020000  0  7 27 18 28 19 22 29 31
  23777821.002    -6785647.240 5  -5201200.897 5
  20973655.033   -20712913.157 7 -14099134.947 8
  24234037.713    -2385406.696 6   -518957.650 5
  21966927.666   -16414669.102 7 -12650829.858 7
  24656243.080     5245405.906 5   4205869.832 3
  21668964.580    -7117432.975 7  -5512095.134 7
  24046153.736    -4878375.508 5  -1403353.470 5
 94  2 15 20 45  0.0020000  0  7 27 18 28 19 22 29 31
  23766143.057    -6846986.448 5  -5248997.644 5
  20971522.580   -20724141.132 7 -14107884.028 7
  24229503.033    -2409280.991 5   -537561.052 5
  21961933.494   -16440886.205 7 -12671258.775 7
  24677053.291     5354761.735 5   4291082.060 4
  21677674.322    -7071681.777 7  -5476444.880 7
  24033208.291    -4946432.832 5  -1456385.059 4
 94  2 15 20 45 30.0020000  0  7 27 18 28 19 22 29 31
  23754486.346    -6908172.821 5  -5296675.292 5
  20969462.588   -20734954.014 7 -14116309.667 7
  24225036.861    -2432714.364 5   -555820.793 5
  21956981.189   -16466896.505 7 -12691526.555 7
  24697901.150     5464291.769 5   4376430.010 4
  21686458.174    -7025519.333 7  -5440474.194 8
  24020302.174    -5014269.705 5  -1509244.947 4
 94  2 15 20 46  0.0020000  0  7 27 18 28 19 22 29 31
  23742882.478    -6969201.542 5  -5344230.056 5
  20967487.455   -20745332.548 7 -14124396.868 7
  24220670.978    -2455694.077 6   -573726.938 6
  21952073.564   -16492692.502 7 -12711627.331 7
  24718772.361     5573998.010 5   4461915.281 3
  21695320.002    -6978963.328 7  -5404196.838 8
  24007442.057    -5081867.792 6  -1561918.776 5
 94  2 15 20 46 30.0020000  0  7 27 18 28 19 22 29 31
  23731306.924    -7030093.993 6  -5391678.660 5
  20965601.158   -20755265.661 7 -14132136.944 7
  24216382.275    -2478197.011 6   -591261.678 6
  21947203.924   -16518261.151 7 -12731550.944 7
  24739680.963     5683871.194 5   4547530.607 2
  21704246.400    -6932019.252 7  -5367617.088 7
  23994634.291    -5149210.560 5  -1614393.525 5
 94  2 15 20 47  0.0020000  0  7 27 18 28 19 22 29 31
  23719738.064    -7090875.569 6  -5439040.838 5
  20963787.549   -20764769.282 7 -14139542.390 7
  24212189.260    -2500223.982 6   -608425.543 4
  21942390.299   -16543612.700 7 -12751305.394 7
  24760622.260     5793894.544 5   4633262.981 2
  21713249.807    -6884706.355 7  -5330749.961 8
  23981857.010    -5216299.674 5  -1666670.653 5
 94  2 15 20 47 30.0020000  0  7 27 18 28 19 22 29 31
  23708178.518    -7151561.965 6  -5486328.879 5
  20962061.268   -20773855.202 7 -14146622.335 7
  24208089.611    -2521767.891 5   -625213.021 4
  21937601.541   -16568744.601 7 -12770888.697 7
  24781575.494     5904053.840 5   4719101.256 4
  21722322.869    -6837042.593 7  -5293609.393 8
  23969150.400    -5283126.391 6  -1718743.315 5
 94  2 15 20 48  0.0020000  0  7 27 18 28 19 22 29 31
  23696645.994    -7212166.476 5  -5533553.089 5
  20960406.260   -20782526.129 7 -14153378.934 8
  24204093.197    -2542815.366 5   -641613.630 5
  21932863.814   -16593663.052 7 -12790305.657 7
  24802567.135     6014341.716 5   4805039.707 4
  21731461.627    -6789027.439 7  -5256195.042 8
  23956476.119    -5349684.350 5  -1770606.586 5
 94  2 15 20 48 30.0020000  0  7 27 18 28 19 22 29 31
  23685138.900    -7272682.091 6  -5580708.058 5
  20958836.885   -20790800.289 7 -14159826.348 7
  24200173.619    -2563382.884 6   -657640.262 6
  21928150.869   -16618392.550 7 -12809575.375 7
  24823579.979     6124746.737 5   4891069.507 4
  21740663.354    -6740639.631 7  -5218490.306 7
  23943865.346    -5415998.210 6  -1822279.664 3
 94  2 15 20 49  0.0020000  0  7 27 18 28 19 22 29 31
  23673641.080    -7333079.195 5  -5627770.669 5
  20957339.236   -20798670.885 7 -14165959.289 7
  24196344.205    -2583493.090 6   -673310.495 6
  21923477.080   -16642940.102 7 -12828703.314 7
  24844611.416     6235276.079 5   4977196.152 3
  21749950.369    -6691867.910 7  -5180486.425 7
  23931285.682    -5482080.141 6  -1873771.981 4
 94  2 15 20 49 30.0020000  0  7 27 18 28 19 22 29 31
  23662167.213    -7393340.210 5  -5674727.233 5
  20955915.799   -20806133.658 7 -14171774.432 7
  24192603.502    -2603152.534 5   -688629.512 6
  21918848.080   -16667311.029 7 -12847693.624 7
  24865672.689     6345935.344 5   5063424.069 4
  21759312.275    -6642690.983 7  -5142166.782 7
  23918755.330    -5547915.427 6  -1925072.135 5
 94  2 15 20 50  0.0020000  0  7 27 18 28 19 22 29 31
  23650744.033    -7453457.493 6  -5721571.826 5
  20954574.744   -20813184.737 7 -14177268.793 7
  24188949.541    -2622374.212 5   -703607.365 5
  21914241.510   -16691508.597 7 -12866548.846 7
  24886740.908     6456717.904 3   5149748.023 2
  21768749.228    -6593089.075 7  -5103516.005 7
  23906267.979    -5613508.633 6  -1976183.635 5
 94  2 15 20 50 30.0020000  0  7 27 18 28 19 22 29 31
  23639328.330    -7513416.631 5  -5768293.198 5
  20953306.533   -20819822.249 7 -14182440.901 7
  24185366.072    -2641156.771 5   -718243.098 5
  21909673.432   -16715522.877 7 -12885261.230 7
  24907854.525     6567623.373 3   5236167.702 3
  21778266.689    -6543064.025 7  -5064535.503 7
  23893841.228    -5678860.604 5  -2027107.131 5
 94  2 15 20 51  0.0020000  0  7 27 18 28 19 22 29 31
  23627938.221    -7573216.514 5  -5814890.449 5
  20952129.705   -20826043.761 7 -14187288.844 7
  24181883.049    -2659489.083 6   -732528.114 5
  21905138.322   -16739341.133 7 -12903820.889 7
  24928975.502     6678652.677 3   5322683.902 2
  21787863.682    -6492631.857 7  -5025237.737 8
  23881451.705    -5743948.411 5  -2077824.834 5
 94  2 15 20 51 30.0020000  0  7 27 18 28 19 22 29 31
  23616593.541    -7632885.836 5  -5861386.038 5
  20951021.674   -20831861.356 7 -14191822.053 7
  24178481.939    -2677350.778 5   -746446.278 6
  21900645.236   -16762969.350 7 -12922232.479 7
  24950122.682     6789794.676 4   5409287.948 2
  21797535.260    -6441799.140 7  -4985627.883 7
  23869117.166    -5808766.538 6  -2128332.351 5
 94  2 15 20 52  0.0020000  0  7 27 18 28 19 22 29 31
  23605256.572    -7692427.214 5  -5907781.878 6
  20949992.127   -20837269.658 7 -14196036.312 7
  24175173.408    -2694721.410 5   -759981.860 6
  21896181.900   -16786388.119 7 -12940480.850 7
  24971301.557     6901043.427 5   5495975.114 3
  21807280.057    -6390582.361 7  -4945718.755 7
  23856824.135    -5873314.393 5  -2178629.309 4
 94  2 15 20 52 30.0020000  0  7 27 18 28 19 22 29 31
  23593949.853    -7751840.063 5  -5954077.588 5
  20949040.205   -20842260.194 7 -14199925.054 7
  24171964.260    -2711588.741 4   -773125.101 5
  21891774.135   -16809597.432 7 -12958565.993 7
  24992498.635     7012413.850 3   5582757.147 2
  21817101.002    -6338991.679 7  -4905518.240 7
  23844601.744    -5937579.825 5  -2228706.196 4
 94  2 15 20 53  0.0020000  0  7 27 18 28 19 22 29 31
  23582671.322    -7811133.152 6  -6000279.959 5
  20948172.088   -20846818.894 7 -14203477.288 7
  24168851.354    -2727957.381 6   -785879.787 6
  21887395.588   -16832592.481 7 -12976484.180 7
  25013710.822     7123915.726 3   5669641.610 4
  21826990.564    -6287020.600 7  -4865021.351 7
  23832432.783    -6001550.333 5  -2278553.225 5
 94  2 15 20 53 30.0020000  0  7 27 18 28 19 22 29 31
  23571414.135    -7870318.848 6  -6046398.643 5
  20947389.604   -20850943.550 7 -14206691.320 7
  24165837.408    -2743824.983 6   -798244.159 5
  21883055.166   -16855370.604 7 -12994233.367 7
  25034960.244     7235548.458 4   5756628.015 1
  21836952.197    -6234660.538 7  -4824221.340 7
  23820314.244    -6065231.392 5  -2328174.737 5
 94  2 15 20 54  0.0020000  0  7 27 18 28 19 22 29 31
  23560166.643    -7929382.881 5  -6092422.500 5
  20946691.244   -20854615.929 7 -14209552.899 7
  24162905.721    -2759203.408 6   -810227.359 4
  21878762.072   -16877927.139 7 -13011809.867 7
  25056223.377     7347302.595 5   5843709.054 2
  21846993.479    -6181905.805 7  -4783113.793 7
  23808252.486    -6128625.785 5  -2377572.834 4
 94  2 15 20 54 30.0020000  0  7 27 18 28 19 22 29 31
  23548948.025    -7988333.985 6  -6138358.339 5
  20946074.479   -20857835.365 7 -14212061.562 8
  24160075.869    -2774112.498 5   -821844.747 5
  21874509.518   -16900280.888 7 -13029228.361 7
  25077503.752     7459163.229 5   5930872.985 2
  21857107.971    -6128746.336 7  -4741690.864 7
  23796229.963    -6191743.283 5  -2426755.197 4
 94  2 15 20 55  0.0020000  0  7 27 18 28 19 22 29 31
  23537755.197    -8047179.244 6  -6184211.699 5
  20945550.908   -20860615.362 7 -14214227.794 7
  24157323.127    -2788554.802 4   -833098.309 6
  21870299.838   -16922435.467 7 -13046491.659 7
  25098808.025     7571107.155 4   6018101.905 2
  21867300.854    -6075194.638 7  -4699962.300 7
  23784283.471    -6254587.263 6  -2475724.424 3
 94  2 15 20 55 30.0020000  0  7 27 18 28 19 22 29 31
  23526578.564    -8105913.945 6  -6229978.924 5
  20945106.728   -20862951.746 7 -14216048.367 7
  24154668.432    -2802519.112 6   -843979.516 6
  21866121.002   -16944394.830 7 -13063602.843 7
  25120133.885     7683121.565 5   6105385.752 2
  21877563.268    -6021257.395 7  -4657933.315 7
  23772370.861    -6317158.875 6  -2524481.428 4
 94  2 15 20 56  0.0020000  0  7 27 18 28 19 22 29 31
  23515423.541    -8164537.424 6  -6275659.468 5
  20944746.127   -20864847.157 7 -14217525.314 7
  24152093.822    -2816012.267 6   -854493.586 5
  21861976.400   -16966167.152 7 -13080568.282 7
  25141447.549     7795189.516 5   6192711.338 1
  21887895.979    -5966952.434 7  -4615617.810 7
  23760524.299    -6379454.608 6  -2573023.439 5
 94  2 15 20 56 30.0020000  0  7 27 18 28 19 22 29 31
  23504281.049    -8223066.517 6  -6321266.471 5
  20944462.650   -20866319.217 7 -14218672.364 6
  24149624.072    -2829027.249 6   -864635.094 2
  21857867.744   -16987759.320 7 -13097393.341 7
  25162791.291     7907326.308 5   6280090.513 1
  21898299.658    -5912294.907 7  -4573027.557 7
  23748717.494    -6441461.244 5  -2621340.240 5
 94  2 15 20 57  0.0020000  0  7 27 18 28 19 22 29 31
  23493162.635    -8281501.752 6  -6366800.311 5
  20944266.658   -20867381.553 7 -14219500.144 7
  24147230.096    -2841564.113 5   -874404.007 4
  21853789.385   -17009167.344 7 -13114074.920 7
  25184151.861     8019541.804 4   6367531.047 1
  21908769.494    -5857281.488 7  -4530160.021 7
  23736971.674    -6503167.851 5  -2669423.143 5
 94  2 15 20 57 30.0020000  0  7 27 18 28 19 22 29 31
  23482062.283    -8339843.604 6  -6412261.415 5
  20944133.830   -20868031.151 7 -14220006.324 7
  24144937.143    -2853625.376 5   -883802.336 6
  21849758.611   -17030389.969 7 -13130612.037 7
  25205515.057     8131844.197 5   6455039.328 1
  21919306.260    -5801889.781 7  -4486997.678 7
  23725290.150    -6564571.039 6  -2717269.715 5
 94  2 15 20 58  0.0020000  0  7 27 18 28 19 22 29 31
  23470975.650    -8398091.802 6  -6457649.535 6
  20944090.150   -20868271.461 7 -14220193.587 8
  24142733.119    -2865212.439 6   -892831.166 6
  21845753.807   -17051420.028 7 -13146999.086 7
  25226898.150     8244249.736 4   6542627.909 2
  21929923.314    -5746104.183 7  -4443528.470 7
  23713662.572    -6625663.683 6  -2764874.352 4
 94  2 15 20 58 30.0020000  0  7 27 18 28 19 22 29 31
  23459907.721    -8456232.490 5  -6502953.914 5
  20944124.197   -20868100.683 7 -14220060.527 7
  24140617.799    -2876318.511 6   -901485.224 6
  21841793.916   -17072243.958 7 -13163225.504 7
  25248315.721     8356774.844 5   6630309.702 2
  21940609.986    -5689907.610 7  -4399738.957 7
  23702099.799    -6686438.047 5  -2812230.952 5
 94  2 15 20 59  0.0020000  0  7 27 18 28 19 22 29 31
  23448870.986    -8514252.772 6  -6548164.443 5
  20944230.244   -20867520.253 7 -14219608.245 7
  24138596.705    -2886950.129 5   -909769.524 5
  21837869.494   -17092862.351 7 -13179291.770 7
  25269745.510     8469387.489 4   6718059.638 2
  21951381.721    -5633301.852 7  -4355630.643 7
  23690591.791    -6746904.588 5  -2859347.580 5
 94  2 15 20 59 30.0020000  0  7 27 18 28 19 22 29 31
  23437851.557    -8572160.295 6  -6593287.118 5
  20944424.143   -20866532.587 7 -14218838.629 7
  24136663.939    -2897104.176 5   -917681.698 1
  21833979.002   -17113285.829 7 -13195206.136 7
  25291188.213     8582068.434 3   6805862.877 1
  21962229.783    -5576313.099 7  -4311223.856 8
  23679141.025    -6807065.219 6  -2906225.974 5
 94  2 15 21  0  0.0020000  0  7 27 18 28 19 22 29 31
  23426862.127    -8629951.046 6  -6638318.782 5
  20944689.229   -20865133.741 7 -14217748.627 6
  24134824.791    -2906770.097 6   -925213.667 4
  21830129.416   -17133523.654 7 -13210975.831 7
  25312639.486     8694809.485 4   6893712.944 3
  21973146.447    -5518956.427 7  -4266530.394 7
  23667758.760    -6866913.390 6  -2952860.897 5
 94  2 15 21  0 30.0020000  0  7 27 18 28 19 22 29 31
  23415886.213    -8687612.126 6  -6683249.416 5
  20945033.471   -20863313.793 7 -14216330.471 7
  24133075.166    -2915931.476 6   -932352.411 5
  21826317.018   -17153583.133 7 -13226606.577 7
  25334106.174     8807608.780 5   6981608.363 3
  21984133.697    -5461225.926 7  -4221545.667 8
  23656424.643    -6926434.812 5  -2999241.219 4
 94  2 15 21  1  0.0020000  0  7 27 18 28 19 22 29 31
  23404938.861    -8745150.350 6  -6728084.301 5
  20945472.408   -20861057.024 7 -14214571.943 7
  24131426.853    -2924578.993 6   -939090.681 6
  21822528.049   -17173479.077 7 -13242109.893 7
  25355578.236     8920457.988 3   7069542.749 1
  21995187.166    -5403117.956 7  -4176266.777 7
  23645156.127    -6985629.098 5  -3045366.496 5
 94  2 15 21  1 30.0020000  0  7 27 18 28 19 22 29 31
  23394011.283    -8802568.216 6  -6772825.436 5
  20945983.580   -20858347.524 7 -14212460.632 7
  24129891.119    -2932701.202 5   -945419.616 6
  21818775.439   -17193209.859 7 -13257484.493 7
  25377082.268     9033375.687 5   7157530.475 3
  22006320.346    -5344627.028 7  -4130689.481 7
  23633959.666    -7044489.813 6  -3091231.927 6
 94  2 15 21  2  0.0020000  0  7 27 18 28 19 22 29 31
  23383096.377    -8859876.230 5  -6817480.939 5
  20946584.268   -20855176.131 7 -14209989.425 7
  24128443.893    -2940300.324 5   -951340.902 5
  21815045.400   -17212775.666 7 -13272730.540 7
  25398579.002     9146357.747 4   7245568.277 2
  22017526.197    -5285744.772 7  -4084807.269 8
  23622821.174    -7103035.563 6  -3136852.009 5
 94  2 15 21  2 30.0020000  0  7 27 18 28 19 22 29 31
  23372212.088    -8917087.841 6  -6862061.337 5
  20947276.283   -20851546.841 7 -14207161.417 7
  24127098.994    -2947393.964 6   -956868.391 4
  21811351.533   -17232174.323 7 -13287846.346 7
  25420082.807     9259383.782 5   7333640.408 1
  22028802.494    -5226471.696 7  -4038620.498 7
  23611740.010    -7161277.580 6  -3182235.365 4
 94  2 15 21  3  0.0020000  0  7 27 18 28 19 22 29 31
  23361343.596    -8974208.864 6  -6906571.199 5
  20948051.830   -20847456.630 7 -14203974.240 7
  24125843.455    -2953986.319 6   -962005.462 4
  21807704.752   -17251390.442 7 -13302819.921 7
  25441592.486     9372439.133 3   7421735.444 1
  22040159.807    -5166821.577 7  -3992139.941 7
  23600710.791    -7219216.873 5  -3227382.791 5
 94  2 15 21  3 30.0020000  0  7 27 18 28 19 22 29 31
  23350491.619    -9031248.452 6  -6951017.545 6
  20948916.916   -20842919.240 7 -14200438.603 7
  24124673.510    -2960091.542 6   -966762.770 5
  21804084.104   -17270421.268 7 -13317649.129 7
  25463107.283     9485516.807 5   7509847.850 2
  22051574.900    -5106810.105 7  -3945377.812 7
  23589743.424    -7276849.527 6  -3272291.347 5
 94  2 15 21  4  0.0020000  0  7 27 18 28 19 22 29 31
  23339654.064    -9088200.601 6  -6995395.748 6
  20949862.861   -20837942.719 7 -14196560.783 7
  24123606.049    -2965716.163 5   -971145.542 6
  21800490.275   -17289272.193 7 -13332338.135 7
  25484627.213     9598600.995 5   7597965.264 1
  22063063.236    -5046423.505 7  -3898323.370 7
  23578843.932    -7334169.616 6  -3316956.279 6
 94  2 15 21  4 30.0020000  0  7 27 18 28 19 22 29 31
  23328831.588    -9145048.837 6  -7039693.024 6
  20950890.025   -20832537.485 7 -14192348.909 6
  24122626.986    -2970864.550 5   -975157.151 6
  21796937.729   -17307937.703 7 -13346882.656 7
  25506152.486     9711695.187 3   7686090.494 1
  22074631.924    -4985668.943 7  -3850982.208 7
  23567995.947    -7391153.286 5  -3361359.066 6
 94  2 15 21  5  0.0020000  0  7 27 18 28 19 22 29 31
  23318037.619    -9201788.450 6  -7083905.652 6
  20952000.791   -20826709.506 7 -14187807.633 7
  24121742.361    -2975527.300 6   -978790.435 6
  21793429.439   -17326411.038 7 -13361277.444 7
  25527685.119     9824823.994 3   7774242.771 3
  22086256.080    -4924553.152 7  -3803359.575 7
  23557222.510    -7447791.335 6  -3405492.554 4
 94  2 15 21  5 30.0020000  0  7 27 18 28 19 22 29 31
  23307263.174    -9258416.789 6  -7128031.560 5
  20953187.838   -20820473.743 7 -14182948.581 7
  24120952.291    -2979702.693 6   -982044.013 5
  21789941.416   -17344707.951 7 -13375534.784 7
  25549218.713     9937986.926 4   7862421.603 1
  22097957.260    -4863073.853 7  -3755453.678 7
  23546512.533    -7504081.751 6  -3449355.211 5
 94  2 15 21  6  0.0020000  0  7 27 18 28 19 22 29 31
  23296508.330    -9314927.990 6  -7172066.186 5
  20954451.236   -20813833.362 7 -14177774.258 7
  24120246.908    -2983379.916 5   -984909.443 2
  21786498.557   -17362837.079 7 -13389661.354 7
  25570751.627    10051184.034 4   7950627.078 2
  22109722.064    -4801230.303 7  -3707263.973 7
  23535857.932    -7560030.510 6  -3492951.620 6
 94  2 15 21  6 30.0020000  0  7 27 18 28 19 22 29 31
  23285774.135    -9371327.872 6  -7216014.050 6
  20955794.775   -20806784.479 7 -14172281.621 7
  24119638.533    -2986566.225 5   -987392.279 5
  21783075.768   -17380795.329 7 -13403654.770 7
  25592304.729    10164433.490 4   8038873.268 3
  22121558.307    -4739046.294 7  -3658808.959 7
  23525277.580    -7615628.560 5  -3536274.695 6
 94  2 15 21  7  0.0020000  0  7 27 18 28 19 22 29 31
  23275062.947    -9427617.461 6  -7259876.008 6
  20957214.002   -20799311.219 7 -14166458.311 7
  24119126.900    -2989258.750 5   -989490.175 6
  21779687.572   -17398588.564 7 -13417519.608 7
  25613862.463    10277728.803 5   8127155.272 1
  22133459.721    -4676510.630 7  -3610079.890 7
  23514764.471    -7670876.908 6  -3579325.292 5
 94  2 15 21  7 30.0020000  0  7 27 18 28 19 22 29 31
  23264370.158    -9483795.019 6  -7303650.653 6
  20958722.705   -20791394.558 7 -14160289.473 7
  24118714.525    -2991458.533 6   -991204.261 6
  21776329.611   -17416216.090 7 -13431255.338 7
  25635430.361    10391053.951 5   8215460.546 2
  22145430.525    -4613603.479 7  -3561061.406 7
  23504313.752    -7725768.790 6  -3622098.173 4
 94  2 15 21  8  0.0020000  0  7 27 18 28 19 22 29 31
  23253698.455    -9539867.817 6  -7347343.679 6
  20960312.947   -20783022.890 7 -14153766.120 7
  24118381.025    -2993184.126 6   -992548.838 6
  21773015.877   -17433663.413 7 -13444850.644 7
  25657002.002    10504418.189 5   8303796.225 1
  22157470.916    -4550328.158 7  -3511756.009 7
  23493938.072    -7780313.423 5  -3664600.425 5
 94  2 15 21  8 30.0020000  0  7 27 18 28 19 22 29 31
  23243042.783    -9595858.115 6  -7390972.408 5
  20961993.150   -20774192.914 7 -14146885.627 7
  24118138.361    -2994448.918 6   -993534.347 5
  21769729.783   -17450917.798 7 -13458295.598 7
  25678581.744    10617806.873 5   8392150.958 1
  22169578.354    -4486689.430 7  -3462167.468 6
  23483628.728    -7834504.507 6  -3706827.130 6
 94  2 15 21  9  0.0020000  0  7 27 18 28 19 22 29 31
  23232402.064    -9651772.975 6  -7434542.360 5
  20963763.205   -20764906.975 7 -14139649.810 7
  24117992.979    -2995229.557 5   -994142.628 4
  21766488.119   -17467977.867 7 -13471589.135 7
  25700156.502    10731203.077 3   8480511.614 1
  22181763.736    -4422676.076 7  -3412287.008 7
  23473384.275    -7888346.916 6  -3748782.249 6
 94  2 15 21  9 30.0020000  0  6 27 18 28 19 29 31
  23221783.369    -9707618.472 6  -7478058.232 5
  20965618.947   -20755169.266 7 -14132061.992 7
  24117937.939    -2995511.060 6   -994362.000 5
  21763273.666   -17484853.194 7 -13484738.701 7
  22194011.588    -4358294.467 7  -3362119.550 7
  23463206.072    -7941841.779 6  -3790466.510 5
 94  2 15 21 10  0.0020000  0  6 27 18 28 19 29 31
  23211165.307    -9763397.450 6  -7521522.321 5
  20967551.775   -20744995.027 7 -14124134.012 7
  24117981.080    -2995290.192 6   -994189.898 5
  21760087.088   -17501563.337 7 -13497759.578 7
  22206329.869    -4293567.597 7  -3311683.096 7
  23453088.783    -7994991.359 6  -3831881.651 5
 94  2 15 21 10 30.0020000  0  6 27 18 28 19 29 31
  23200565.861    -9819101.305 6  -7564927.835 6
  20969572.197   -20734376.202 7 -14115859.620 7
  24118126.119    -2994545.437 6   -993609.542 6
  21756940.611   -17518112.451 7 -13510654.981 8
  22218717.228    -4228488.031 6  -3260971.811 7
  23443044.916    -8047780.736 6  -3873016.180 5
 94  2 15 21 11  0.0020000  0  6 27 18 28 19 29 31
  23189981.877    -9874694.233 6  -7608246.957 6
  20971674.322   -20723301.727 7 -14107230.159 7
  24118363.900    -2993264.675 6   -992611.502 6
  21753820.182   -17534516.450 7 -13523437.280 7
  22231167.268    -4163052.248 7  -3209982.921 7
  23433062.994    -8100209.312 6  -3913869.540 5
 94  2 15 21 11 30.0020000  0  6 27 18 28 19 29 31
  23179424.322    -9930154.697 6  -7651462.865 6
  20973874.471   -20711767.772 7 -14098242.650 7
  24118716.588    -2991456.042 6   -991202.168 5
  21750726.416   -17550766.386 7 -13536099.539 7
  22243690.705    -4097256.400 7  -3158713.513 7
  23423156.963    -8152262.176 6  -3954430.143 5
 94  2 15 21 12  0.0020000  0  6 27 18 28 19 29 31
  23168911.627    -9985473.147 6  -7694568.062 6
  20976156.963   -20699772.213 7 -14088895.476 7
  24119156.049    -2989118.585 5   -989380.724 6
  21747669.697   -17566836.497 7 -13548621.681 7
  22256281.572    -4031089.297 7  -3107154.774 7
  23413324.424    -8203925.329 6  -3994687.068 5
 94  2 15 21 12 30.0020000  0  6 27 18 28 19 29 31
  23158409.619   -10040656.363 6  -7737567.930 6
  20978524.291   -20687315.874 7 -14079189.265 7
  24119704.096    -2986246.352 5   -987142.648 5
  21744651.963   -17582726.563 7 -13561003.532 7
  22268945.525    -3964542.683 7  -3055300.330 7
  23403567.393    -8255199.221 6  -4034640.714 5
 94  2 15 21 13  0.0020000  0  6 27 18 28 19 29 31
  23147926.650   -10095708.417 6  -7780465.540 6
  20980984.611   -20674417.369 7 -14069138.478 7
  24120351.346    -2982842.536 5   -984490.309 5
  21741654.182   -17598444.527 7 -13573251.264 7
  22281678.463    -3897613.586 7  -3003147.861 7
  23393890.393    -8306077.592 6  -4074286.126 5
 94  2 15 21 13 30.0020000  0  6 27 18 28 19 29 31
  23137476.018   -10150656.246 6  -7823281.973 6
  20983515.221   -20661093.616 7 -14058756.339 7
  24121097.025    -2978918.274 6   -981432.436 5
  21738697.111   -17613984.170 7 -13585360.067 7
  22294491.244    -3830290.264 7  -2950688.178 6
  23384288.096    -8356559.853 6  -4113622.880 5
 94  2 15 21 14  0.0020000  0  6 27 18 28 19 29 31
  23127032.408   -10205505.440 6  -7866021.549 6
  20986131.580   -20647332.260 7 -14048033.213 7
  24121944.463    -2974470.743 6   -977966.861 6
  21735775.869   -17629349.808 7 -13597333.287 7
  22307379.025    -3762563.903 6  -2897914.470 7
  23374747.096    -8406646.329 6  -4152651.236 5
 94  2 15 21 14 30.0020000  0  6 27 18 28 19 29 31
  23116613.768   -10260257.921 6  -7908685.770 6
  20988838.838   -20633134.420 7 -14036969.958 6
  24122887.072    -2969520.256 6   -974109.376 5
  21732882.643   -17644551.357 7 -13609178.629 7
  22320343.096    -3694449.875 6  -2844838.634 7
  23365290.291    -8456345.072 6  -4191377.500 5
 94  2 15 21 15  0.0020000  0  6 27 18 28 19 29 31
  23106218.354   -10314910.102 6  -7951271.819 6
  20991620.408   -20618509.706 7 -14025574.075 7
  24123915.408    -2964095.512 6   -969882.273 5
  21730017.744   -17659581.112 7 -13620890.110 7
  22333371.369    -3625969.586 7  -2791477.439 7
  23355908.861    -8505661.969 6  -4229806.205 5
 94  2 15 21 15 30.0020000  0  6 27 18 28 19 29 31
  23095838.221   -10369450.818 6  -7993771.007 6
  20994493.557   -20603433.062 7 -14013826.039 7
  24125041.189    -2958188.595 5   -965279.528 5
  21727202.760   -17674422.024 7 -13632454.446 7
  22346471.853    -3557128.351 7  -2737834.985 7
  23346598.471    -8554605.742 6  -4267944.111 6
 94  2 15 21 16  0.0020000  0  6 27 18 28 19 29 31
  23085488.150   -10423876.975 6  -8036180.945 6
  20997446.963   -20587901.982 7 -14001723.890 7
  24126255.174    -2951793.147 5   -960296.060 5
  21724411.330   -17689071.639 7 -13643869.717 7
  22359628.314    -3487956.582 6  -2683934.953 7
  23337350.939    -8603181.244 6  -4305795.079 6
 94  2 15 21 16 30.0020000  0  7 27 18  2 28 19 29 31
  23075135.799   -10478192.111 6  -8078504.345 6
  21000487.283   -20571916.936 7 -13989268.016 7
  25414111.314          -0.82213
  24127566.564    -2944895.984 5   -954921.652 6
  21721658.799   -17703527.668 7 -13655134.149 8
  22372858.744    -3418473.803 7  -2629792.557 7
  23328182.385    -8651384.399 6  -4343355.945 5
 94  2 15 21 17  0.0020000  0  7 27 18  2 28 19 29 31
  23064826.596   -10532396.017 6  -8120741.104 6
  21003615.939   -20555464.865 7 -13976448.224 7
  25397272.049      -88528.839 3
  24128980.510    -2937479.635 5   -949142.699 5
  21718944.697   -17717797.324 7 -13666253.348 7
  22386141.221    -3348661.095 7  -2575393.129 6
  23319078.064    -8699207.915 6  -4380620.929 5
 94  2 15 21 17 30.0020000  0  7 27 18  2 28 19 29 31
  23054536.783   -10586505.606 6  -8162904.362 5
  21006837.041   -20538535.030 7 -13963256.140 7
  25380450.760     -176957.092 3    -34443.10411
  24130500.307    -2929536.309 6   -942953.094 5
  21716261.361   -17731892.494 7 -13677236.597 7
  22399486.760    -3278511.418 6  -2520731.089 6
  23310055.080    -8746650.968 6  -4417589.487 5
 94  2 15 21 18  0.0020000  0  7 27 18  2 28 19 29 31
  23044245.760   -10640522.927 6  -8204995.715 6
  21010152.127   -20521123.372 7 -13949688.616 7
  25363617.877     -265279.335 3   -103265.586 1
  24132107.080    -2921061.587 6   -936349.481 6
  21713615.768   -17745822.666 7 -13688091.242 7
  22412907.760    -3208014.511 7  -2465798.506 7
  23301106.229    -8793674.743 6  -4454231.292 6
 94  2 15 21 18 30.0020000  0  7 27 18  2 28 19 29 31
  23033996.096   -10694434.895 6  -8247004.992 6
  21013560.619   -20503214.015 7 -13935733.280 7
  25346819.635     -353497.454 3   -172006.839 2
  24133819.564    -2912054.890 6   -929331.220 5
  21710994.049   -17759579.237 7 -13698810.621 8
  22426393.080    -3137141.164 6  -2410572.568 7
  23292237.775    -8840253.432 6  -4490526.282 6
 94  2 15 21 19  0.0020000  0  7 27 18  2 28 19 29 31
  23023757.908   -10748245.082 6  -8288934.965 6
  21017059.611   -20484810.126 7 -13921392.596 7
  25330053.885     -441601.536 3   -240659.206 1
  24135630.424    -2902531.064 6   -921910.052 5
  21708409.400   -17773160.172 7 -13709393.162 8
  22439946.838    -3065878.265 7  -2355043.092 7
  23283464.924    -8886378.047 6  -4526467.487 5
 94  2 15 21 19 30.0020000  0  7 27 18  2 28 19 29 31
  23013530.135   -10801949.602 6  -8330782.640 6
  21020656.932   -20465922.762 7 -13906675.166 7
  25313326.158     -529578.546 3   -309212.625 1
  24137546.580    -2892473.485 6   -914072.965 5
  21705858.478   -17786561.450 7 -13719835.714 7
  22453588.721    -2994235.852 7  -2299217.886 7
  23274773.174    -8932033.344 6  -4562042.976 5
 94  2 15 21 20  0.0020000  0  7 27 18  2 28 19 29 31
  23003318.455   -10855548.579 6  -8372548.037 6
  21024341.346   -20446564.568 7 -13891590.849 7
  25296614.924     -617434.556 3   -377671.718 1
  24139567.666    -2881876.715 5   -905815.734 6
  21703338.697   -17799793.415 7 -13730146.311 7
  22467289.416    -2922223.699 7  -2243104.599 6
  23266172.799    -8977217.148 6  -4597251.034 5
 94  2 15 21 20 30.0020000  0  7 27 18  2 28 19 29 31
  22993152.416   -10909045.401 6  -8414233.866 6
  21028113.588   -20426746.817 7 -13876148.438 7
  25279919.104                          -0.57013
  24141682.111    -2870740.742 5   -897138.330 6
  21700856.486   -17812852.246 7 -13740321.979 7
  22481060.283    -2849856.066 6  -2186714.305 7
  23257664.807    -9021954.689 6  -4632111.372 6
 94  2 15 21 21  0.0020000  0  7 27 18  2 28 19 29 31
  22982998.330   -10962441.985 6  -8455841.564 6
  21031963.416   -20406485.845 7 -13860360.669 7
  25263242.119      -87581.181 1        -0.03511
  24143902.893    -2859061.792 6   -888037.871 6
  21698401.369   -17825753.706 7 -13750375.054 7
  22494900.674    -2777142.284 6  -2130054.248 7
  23249236.822    -9066257.161 6  -4666632.682 6
 94  2 15 21 21 30.0020000  0  7 27 18  2 28 19 29 31
  22972858.635   -11015731.824 6  -8497366.091 6
  21035905.213   -20385786.253 7 -13844231.114 7
  25246607.986     -175025.375 3    -68138.349 1
  24146222.338    -2846835.822 5   -878511.109 6
  21695976.807   -17838500.796 7 -13760307.852 7
  22508799.096    -2704100.755 7  -2073138.838 6
  23240876.502    -9110146.324 6  -4700831.971 6
 94  2 15 21 22  0.0020000  0  7 27 18  2 28 19 29 31
  22962727.557   -11068914.073 6  -8538806.763 6
  21039929.283   -20364645.842 7 -13827758.074 7
  25230008.455     -262333.974 3   -136171.046 1
  24148653.752    -2834085.635 5   -868575.877 5
  21693583.564   -17851091.474 7 -13770118.751 7
  22522757.150    -2630732.557 7  -2015968.903 6
  23232595.846    -9153640.580 6  -4734723.529 6
 94  2 15 21 22 30.0020000  0  7 27 18  2 28 19 29 31
  22952632.400   -11121995.574 6  -8580168.966 6
  21044032.189   -20343070.263 7 -13810945.945 7
  25213410.861     -349509.395 3   -204099.944 1
  24151180.572    -2820829.087 5   -858246.108 5
  21691215.455   -17863518.548 7 -13779802.159 7
  22536784.557    -2557034.003 7  -1958541.532 6
  23224395.838    -9196752.986 6  -4768317.532 5
 94  2 15 21 23  0.0020000  0  7 27 18  2 28 19 29 31
  22942549.689   -11174973.584 6  -8621450.527 6
  21048221.877   -20321053.424 7 -13793789.983 7
  25196843.705     -436555.899 5   -271928.353 1
  24153800.635    -2807069.559 5   -847524.369 5
  21688885.104   -17875781.934 7 -13789358.039 7
  22550875.229    -2482990.602 7  -1900845.428 6
  23216264.291    -9239478.420 6  -4801610.010 5
 94  2 15 21 23 30.0020000  0  7 27 18  2 28 19 29 31
  22932491.229   -11227852.900 6  -8662655.160 6
  21052499.627   -20298579.213 7 -13776277.620 7
  25180292.721     -523474.629 4   -339657.265 1
  24156512.353    -2792803.903 5   -836408.331 5
  21686578.502   -17887879.488 7 -13798784.699 7
  22565030.158    -2408598.005 6  -1842877.240 6
  23208208.268    -9281807.447 6  -4834593.596 6
 94  2 15 21 24  0.0020000  0  7 27 18  2 28 19 29 31
  22922439.502   -11280645.533 6  -8703792.267 6
  21056864.580   -20275649.618 7 -13758410.429 7
  25163782.455     -610261.676 3   -407283.582 1
  24159312.166    -2778041.094 5   -824904.874 5
  21684304.900   -17899819.042 7 -13808088.217 7
  22579251.471    -2333848.012 6  -1784630.564 6
  23200233.471    -9323723.449 6  -4867255.359 6
 94  2 15 21 24 30.0020000  0  7 27 18  2 28 19 29 31
  22912413.994   -11333350.706 6  -8744861.176 6
  21061312.564   -20252266.010 7 -13740189.438 7
  25147301.361     -696916.572 4   -474806.817 2
  24162224.783    -2762775.505 5   -813009.588 5
  21682063.244   -17911606.767 7 -13817273.433 7
  22593549.432    -2258750.427 7  -1726113.010 6
  23192334.838    -9365216.766 6  -4899587.747 5
 94  2 15 21 25  0.0020000  0  7 27 18  2 28 19 29 31
  22902397.322   -11385967.961 6  -8785861.561 6
  21065845.541   -20228437.994 7 -13721622.172 7
  25130830.564     -783452.746 5   -542237.577 4
  24165233.252    -2747005.910 6   -800721.639 4
  21679846.713   -17923265.368 7 -13826358.040 8
  22607894.080    -2183321.001 6  -1667336.916 6
  23184522.228    -9406296.157 6  -4931597.618 5
 94  2 15 21 25 30.0020000  0  7 27 18  2 28 19 29 31
  22892402.705   -11438496.182 6  -8826792.567 6
  21070468.400   -20204169.706 7 -13702711.838 7
  25114386.432     -869874.112 4   -609578.842 2
  24168326.713    -2730727.494 5   -788037.127 5
  21677656.596   -17934789.782 7 -13835338.101 7
  22622313.619    -2107566.560 6  -1608307.540 6
  23176783.252    -9446956.116 6  -4963280.628 6
 94  2 15 21 26  0.0020000  0  7 27 18  2 28 19 29 31
  22882427.736   -11490925.771 6  -8867646.750 6
  21075159.314   -20179475.801 7 -13683469.839 7
  25097952.768     -956178.714 5   -676829.162 2
  24171514.541    -2713940.031 6   -774956.051 5
  21675486.479   -17946169.558 7 -13844205.432 7
  22636798.088    -2031489.012 7  -1549026.415 6
  23169131.158    -9487199.733 6  -4994639.265 6
 94  2 15 21 26 30.0020000  0  7 27 18  2 28 19 29 31
  22872468.361   -11543256.753 6  -8908424.099 6
  21079947.502   -20154350.115 7 -13663891.391 7
  25081552.697    -1042358.508 4   -743982.148 4
  24174806.893    -2696639.239 5   -761474.867 5
  21673349.228   -17957399.183 7 -13852955.749 7
  22651335.752    -1955081.854 6  -1489488.437 6
  23161546.689    -9527017.478 6  -5025665.981 6
 94  2 15 21 27  0.0020000  0  7 27 18  2 28 19 29 31
  22862526.729   -11595509.091 6  -8949140.129 6
  21084810.338   -20128800.648 7 -13643982.722 7
  25065192.432    -1128418.412 5   -811041.722 3
  24178197.268    -2678838.814 6   -747604.444 6
  21671244.471   -17968472.152 7 -13861584.020 8
  22665937.603    -1878343.085 6  -1429692.042 6
  23154054.682    -9566400.720 6  -5056354.179 5
 94  2 15 21 27 30.0020000  0  7 27 18  2 28 19 29 31
  22852598.291   -11647691.843 6  -8989801.942 6
  21089751.799   -20102817.102 7 -13623735.837 7
  25048830.268    -1214359.301 5   -878008.486 4
  24181671.432    -2660552.346 5   -733355.205 5
  21669167.814   -17979379.881 7 -13870083.541 8
  22680594.986    -1801287.872 6  -1369649.077 6
  23146650.307    -9605327.676 6  -5086686.818 5
 94  2 15 21 28  0.0020000  0  7 27 18  2 28 19 29 31
  22842675.846   -11699813.622 6  -9030416.260 6
  21094780.354   -20076389.048 7 -13603142.539 7
  25032491.088    -1300172.406 5   -944875.787 4
  24185238.314    -2641796.855 5   -718740.574 6
  21667120.994   -17990129.084 7 -13878459.508 7
  22695319.486    -1723928.695 7  -1309369.263 6
  23139325.611    -9643786.148 6  -5116654.415 6
 94  2 15 21 28 30.0020000  0  7 27 18  2 28 19 29 31
  22832760.650   -11751884.795 6  -9070991.158 6
  21099898.674   -20049498.572 7 -13582188.929 7
  25016177.658    -1385853.413 5  -1011640.053 2
  24188905.557    -2622575.631 5   -703763.017 5
  21665105.619   -18000725.937 7 -13886716.772 7
  22710091.049    -1646276.601 6  -1248861.215 6
  23132100.619    -9681770.225 6  -5146252.354 6
 94  2 15 21 29  0.0020000  0  7 27 18  2 28 19 29 31
  22822867.268   -11803891.697 6  -9111515.963 6
  21105100.596   -20022151.791 7 -13560879.761 7
  24999908.611    -1471405.903 4  -1078304.205 5
  24192651.244    -2602882.778 5   -688417.901 5
  21663117.658   -18011172.932 7 -13894857.264 7
  22724922.174    -1568347.931 6  -1188137.615 6
  23124966.564    -9719290.631 6  -5175488.960 6
 94  2 15 21 29 30.0020000  0  7 27 18  2 28 19 29 31
  22812991.721   -11855825.514 6  -9151983.823 6
  21110389.369   -19994355.061 7 -13539219.966 7
  24983674.541    -1556834.963 4  -1144872.173 4
  24196489.416    -2582713.320 5   -672701.442 5
  21661154.189   -18021498.494 7 -13902903.124 7
  22739804.338    -1490156.455 6  -1127209.270 6
  23117900.674    -9756378.685 6  -5204388.678 6
 94  2 15 21 30  0.0020000  0  7 27 18  2 28 19 29 31
  22803121.314   -11907688.298 6  -9192396.338 6
  21115763.041   -19966125.687 7 -13517223.051 7
  24967429.072    -1642119.510 5  -1211327.510 5
  24200417.627    -2562060.535 5   -656608.323 5
  21659210.158   -18031713.648 7 -13910862.974 7
  22754736.549    -1411682.504 6  -1066060.766 6
  23110930.955    -9793052.062 6  -5232965.319 6
 94  2 15 21 30 30.0020000  0  7 27 18  2 28 19 29 31
  22793264.018   -11959467.912 6  -9232744.060 6
  21121213.838   -19937471.842 7 -13494895.389 7
  24951205.002    -1727265.373 3  -1277674.851 4
  24204445.143    -2540905.790 6   -640124.079 5
  21657287.229   -18041810.491 7 -13918730.644 8
  22769724.127    -1332906.789 6  -1004677.176 6
  23104024.736    -9829313.056 6  -5261220.596 6
 94  2 15 21 31  0.0020000  0  7 27 18  2 28 19 29 31
  22783426.158   -12011157.485 6  -9273021.598 6
  21126747.432   -19908407.591 7 -13472247.917 7
  24935044.174    -1812288.130 4  -1343926.209 4
  24208564.080    -2519250.712 5   -623249.934 5
  21655388.955   -18051787.698 7 -13926505.057 7
  22784781.807    -1253821.097 7   -943052.006 6
  23097198.025    -9865167.602 6  -5289159.134 6
 94  2 15 21 31 30.0020000  0  7 27 18  2 28 19 29 31
  22773605.424   -12062767.128 6  -9313236.877 6
  21132358.018   -19878926.783 7 -13449275.862 7
  24918872.791    -1897188.147 4  -1410081.914 4
  24212783.908    -2497103.961 5   -605992.693 5
  21653512.400   -18061645.556 7 -13934186.507 7
  22799888.877    -1174413.763 6   -881176.225 6
  23090452.885    -9900603.418 6  -5316771.403 6
 94  2 15 21 32  0.0020000  0  7 27 18  2 28 19 29 31
  22763805.861   -12114295.868 7  -9353389.084 6
  21138050.033   -19849022.807 7 -13425974.072 7
  24902753.791    -1981969.122 3  -1476144.965 2
  24217080.400    -2474468.566 5   -588354.736 5
  21651664.127   -18071360.253 7 -13941756.399 7
  22815068.252    -1094675.942 6   -819042.912 6
  23083806.049    -9935583.782 6  -5344028.794 6
 94  2 15 21 32 30.0020000  0  7 27 18  2 28 19 29 31
  22754017.728   -12165721.719 6  -9393461.139 6
  21143824.018   -19818674.877 7 -13402326.360 7
  24886646.377    -2066645.120 5  -1542126.145 4
  24221490.189    -2451333.483 5   -570327.378 5
  21649849.057   -18080902.862 7 -13949192.187 8
  22830293.432    -1014609.223 6   -756653.334 6
  23077233.947    -9970104.211 6  -5370927.824 6
 94  2 15 21 33  0.0020000  0  7 27 18  2 28 19 29 31
  22744250.158   -12217044.242 6  -9433452.682 6
  21149686.385   -19787875.494 7 -13378326.836 7
  24870563.994    -2151205.507 5  -1608017.269 4
  24225987.588    -2427701.345 6   -551912.668 5
  21648063.604   -18090281.688 7 -13956500.371 8
  22845597.080     -934225.465 6   -694016.705 6
  23070752.541   -10004163.874 6  -5397467.763 6
 94  2 15 21 33 30.0020000  0  7 27 18  2 28 19 29 31
  22734501.674   -12268274.302 6  -9473372.179 6
  21155632.229   -19756627.173 7 -13353977.494 7
  24854487.799    -2235637.853 5  -1673808.640 2
  24230580.197    -2403567.793 5   -533107.266 5
  21646304.924   -18099506.546 7 -13963688.565 7
  22860946.377     -853535.106 6   -631141.197 6
  23064362.775   -10037746.301 6  -5423635.835 6
 94  2 15 21 34  0.0020000  0  7 27 18  2 28 19 29 31
  22724774.463   -12319406.095 6  -9513215.109 6
  21161660.791   -19724928.993 7 -13329277.640 7
  24838443.822    -2319935.297 5  -1739494.869 2
  24235274.189    -2378917.964 5   -513899.631 5
  21644580.385   -18108573.357 7 -13970753.600 7
  22876360.377     -772541.301 6   -568029.210 6
  23058062.143   -10070859.740 6  -5449438.447 6
 94  2 15 21 34 30.0020000  0  7 27 18  2 28 19 29 31
  22715060.252   -12370443.786 6  -9552984.689 6
  21167777.221   -19692778.322 7 -13304225.190 7
  24822422.666    -2404086.096 5  -1805066.814 3
  24240053.502    -2353751.211 5   -494289.148 5
  21642884.400   -18117508.676 7 -13977716.181 7
  22891835.025     -691255.311 6   -504689.548 6
  23051836.393   -10103521.261 6  -5474888.959 6
 94  2 15 21 35  0.0020000  0  7 27 18  2 28 19 29 31
  22705364.643   -12421394.787 6  -9592686.750 6
  21173982.689   -19660177.274 7 -13278821.771 7
  24806446.603    -2488070.115 5  -1870508.782 3
  24244953.041    -2328065.586 5   -474274.407 5
  21641205.822   -18126333.111 7 -13984592.361 7
  22907356.408     -609683.133 6   -441126.872 6
  23045720.932   -10135706.181 6  -5499968.074 5
 94  2 15 21 35 30.0020000  0  7 27 18  2 28 19 29 31
  22695679.885   -12472263.796 6  -9632324.891 6
  21180268.986   -19627131.549 7 -13253071.866 7
  24790487.572    -2571894.423 5  -1935826.261 2
  24249935.041    -2301866.698 5   -453859.681 5
  21639547.502   -18135028.739 7 -13991368.164 7
  22922927.252     -527825.839 6   -377342.023 6
  23039684.775   -10167427.280 6  -5524685.728 6
 94  2 15 21 36  0.0020000  0  7 27 18  2 28 19 29 31
  22686020.244   -12523036.593 6  -9671888.091 6
  21186651.877   -19593626.209 7 -13226963.823 7
  24774566.478    -2655563.613 5  -2001022.824 3
  24255013.736    -2275165.444 5   -433053.498 5
  21637921.096   -18143575.233 7 -13998027.760 7
  22938558.549     -445674.798 6   -313328.336 6
  23033727.846   -10198697.068 6  -5549051.745 6
 94  2 15 21 36 30.0020000  0  7 27 18  2 28 19 29 31
  22676376.447   -12573717.645 6  -9711379.779 6
  21193110.564   -19559659.340 7 -13200496.154 7
  24758688.119    -2739066.650 5  -2066089.926 3
  24260189.564    -2247969.429 6   -411861.790 5
  21636329.385   -18151960.479 7 -14004561.699 7
  22954247.635     -363229.213 6   -249085.089 6
  23027872.572   -10229503.895 6  -5573057.013 6
 94  2 15 21 37  0.0020000  0  7 27 18  2 28 19 29 31
  22666749.838   -12624307.819 6  -9750800.643 6
  21199666.502   -19525229.288 7 -13173667.543 7
  24742825.744    -2822408.156 5  -2131031.145 3
  24265453.455    -2220276.578 5   -390282.956 4
  21634765.893   -18160148.993 7 -14010942.334 7
  22969995.939     -280476.888 6   -184602.845 6
  23022096.057   -10259836.776 6  -5596692.934 6
 94  2 15 21 37 30.0020000  0  7 27 18  2 28 19 29 31
  22657136.064   -12674799.198 6  -9790144.552 6
  21206303.986   -19490326.605 7 -13146470.658 7
  24726993.986    -2905602.577 5  -2195857.708 3
  24270822.846    -2192084.210 5   -368314.841 6
  21633242.619   -18168130.055 7 -14017161.317 7
  22985802.572     -197404.079 6   -119870.849 6
  23016419.400   -10289698.531 6  -5619961.757 6
 94  2 15 21 38  0.0020000  0  7 27 18  2 28 19 29 31
  22647551.674   -12725184.683 6  -9829405.942 6
  21213039.143   -19454939.534 7 -13118896.328 6
  24711193.057    -2988636.194 5  -2260558.954 2
  24276289.080    -2163372.701 5   -345942.260 5
  21631766.518   -18175921.778 7 -14023232.785 7
  23001679.268     -114004.479 6    -54884.242 6
  23010830.408   -10319052.095 6  -5642834.605 6
 94  2 15 21 38 30.0020000  0  8 27 18  2 28 19 16 29 31
  22637989.393   -12775473.619 7  -9868592.083 7
  21219862.752   -19419074.296 7 -13090949.416 7
  24695415.471    -3071499.272 4  -2325127.373 4
  24281854.385    -2134122.148 5   -323149.603 5
  21630317.189   -18183538.898 7 -14029168.179 7
  25610252.002          -0.72013
  23017607.666      -30276.290 6     10358.413 6
  23005348.424   -10347886.201 6  -5665302.674 6
 94  2 15 21 39  0.0020000  0  8 27 18  2 28 19 16 29 31
  22628437.213   -12825652.563 6  -9907692.548 6
  21226780.408   -19382728.426 7 -13062627.956 7
  24679690.799    -3154199.666 5  -2389568.966 3
  24287527.268    -2104330.370 5   -299935.223 5
  21628897.346   -18190992.175 7 -14034975.904 7
  25598775.658      -60341.243 4        -0.41311
  23033609.143       53781.623 6     75858.024 6
  22999957.502   -10376199.651 6  -5687365.041 6
 94  2 15 21 39 30.0020000  0  8 27 18  2 28 19 16 29 31
  22618908.299   -12875715.795 6  -9946702.829 6
  21233784.228   -19345903.974 7 -13033933.584 7
  24663961.939    -3236730.735 4  -2453878.639 3
  24293297.619    -2073996.895 6   -276298.792 5
  21627504.432   -18198296.475 7 -14040667.553 7
  25587362.244     -120303.186 3    -46723.927 2
  23049664.541      138162.487 6    141609.229 6
  22994672.424   -10403989.550 6  -5709019.424 6
 94  2 15 21 40  0.0030000  0  8 27 18  2 28 19 16 29 31
  22609400.069   -12925680.721 6  -9985636.491 6
  21240884.765   -19308613.865 7 -13004876.362 6
  24648299.601    -3319080.945 5  -2518047.382 4
  24299166.179    -2043128.587 5   -252245.516 5
  21626141.335   -18205455.137 7 -14046245.717 7
  25576030.827     -179884.453 4    -93150.839 2
  23065777.968      222856.384 6    207604.392 6
  22989475.905   -10431248.429 6  -5730260.089 6
 94  2 15 21 40 30.0030000  0  8 27 18  2 28 19 16 29 31
  22599913.522   -12975536.517 6 -10024485.133 6
  21248069.655   -19270858.466 7 -12975456.589 7
  24632669.499    -3401243.777 5  -2582070.143 4
  24305142.280    -2011740.220 6   -227787.097 6
  21624812.585   -18212453.077 7 -14051698.639 7
  25564760.968     -239070.003 4   -139269.443 2
  23081948.905      307857.450 6    273838.916 6
  22984396.835   -10457988.389 6  -5751096.346 6
 94  2 15 21 41  0.0030000  0  8 27 18  2 28 19 16 29 31
  22590453.296   -13025280.163 6 -10063246.407 6
  21255344.187   -19232642.287 7 -12945677.750 7
  24617075.257    -3483214.839 5  -2645943.516 5
  24311209.554    -1979845.407 5   -202934.001 5
  21623516.437   -18219279.440 7 -14057017.873 7
  25553579.827     -297823.874 4   -185051.630 2
  23098190.765      393155.924 7    340305.174 6
  22979399.569   -10484211.459 6  -5771529.874 6
 94  2 15 21 41 30.0030000  0  8 27 18  2 28 19 16 29 31
  22581006.186   -13074920.568 6 -10101927.223 6
  21262700.733   -19193967.106 7 -12915541.252 7
  24601512.976    -3564983.380 5  -2709659.051 5
  24317376.468    -1947439.381 5   -177682.591 6
  21622248.483   -18225935.614 7 -14062204.510 8
  25542486.999     -356136.683 4   -230490.159 2
  23114481.452      478755.469 6    407006.028 6
  22974513.304   -10509903.591 6  -5791549.665 6
 94  2 15 21 42  0.0030000  0  8 27 18  2 28 19 16 29 31
  22571577.929   -13124446.295 6 -10140518.689 6
  21270148.858   -19154827.076 7 -12885042.536 6
  24586003.726    -3646532.760 5  -2773203.834 3
  24323642.335    -1914514.126 5   -152026.570 5
  21621014.788   -18232420.368 7 -14067257.545 7
  25531479.093     -414001.562 3   -275579.626 2
  23130829.991      564673.145 6    473954.789 6
  22969724.327   -10535062.316 6  -5811153.802 6
 94  2 15 21 42 30.0030000  0  8 27 18  2 28 19 16 29 31
  22562177.561   -13173834.024 6 -10179002.628 6
  21277689.827   -19115209.952 7 -12854172.072 7
  24570517.671    -3727857.867 5  -2836573.882 5
  24330005.921    -1881060.936 5   -125959.152 5
  21619814.022   -18238721.046 7 -14072167.151 7
  25520539.421     -471418.189 3   -320319.868 1
  23147234.694      650926.548 6    541165.133 5
  22965033.999   -10559703.857 6  -5830354.966 6
 94  2 15 21 43  0.0030000  0  8 27 18  2 28 19 16 29 31
  22552811.468   -13223084.904 6 -10217379.910 6
  21285316.538   -19075123.249 7 -12822935.689 7
  24555098.171    -3808958.633 5  -2899769.112 2
  24336478.312    -1847072.020 5    -99474.347 5
  21618651.507   -18244841.580 7 -14076936.398 7
  25509696.171     -528411.189 3   -364729.921 1
  23163717.179      737519.803 6    608640.281 5
  22960447.624   -10583817.414 6  -5849144.727 6
 94  2 15 21 43 30.0030000  0  8 27 18  2 28 19 16 29 31
  22543463.538   -13272192.438 6 -10255645.502 7
  21293027.671   -19034563.458 7 -12791330.681 7
  24539700.022    -3889852.256 5  -2962802.970 4
  24343045.913    -1812552.277 5    -72575.802 5
  21617516.155   -18250801.556 7 -14081580.540 8
  25498933.780     -585012.572 3   -408834.942 1
  23180258.663      824453.229 6    676380.532 6
  22955961.694   -10607398.256 6  -5867519.349 6
 94  2 15 21 44  0.0030000  0  8 27 18  2 28 19 16 29 31
  22534138.444   -13321141.741 6 -10293787.802 7
  21300849.710   -18993523.892 7 -12759351.796 7
  24524346.491    -3970544.193 5  -3025679.677 3
  24349720.179    -1777497.583 6    -45260.515 5
  21616414.007   -18256585.057 7 -14086087.166 8
  25488244.749     -641211.124 5   -452625.942 1
  23196869.593      911713.261 6    744375.265 6
  22951571.093   -10630453.900 6  -5885484.745 6
 94  2 15 21 44 30.0030000  0  8 27 18  2 28 19 16 29 31
  22524860.304   -13369951.354 6 -10331821.234 7
  21308743.679   -18952010.384 7 -12727003.630 7
  24509026.710    -4051048.254 6  -3088409.991 4
  24356483.812    -1741926.283 5    -17542.642 5
  21615347.257   -18262192.719 7 -14090456.779 7
  25477622.124     -697006.633 5   -496102.958 1
  23213531.421      999275.249 6    812605.276 5
  22947289.202   -10652976.468 6  -5903034.740 6
 94  2 15 21 45  0.0030000  0  8 27 18  2 28 19 16 29 31
  22515599.030   -13418623.951 6 -10369747.926 7
  21316731.772   -18910016.858 7 -12694281.410 7
  24493731.280    -4131361.288 5  -3150991.489 4
  24363355.468    -1705840.102 5     10576.403 5
  21614312.952   -18267630.346 7 -14094693.881 7
  25467078.562     -752373.335 5   -539245.767 2
  23230245.491     1087125.461 6    881059.914 5
  22943101.952   -10674939.475 6  -5920148.769 6
 94  2 15 21 45 30.0030000  0  8 27 18  2 28 19 16 29 31
  22506359.733   -13467158.292 7 -10407566.849 6
  21324821.038   -18867533.063 7 -12661177.169 7
  24478495.007    -4211477.704 5  -3213419.757 4
  24370319.062    -1669240.557 6     39095.528 5
  21613316.608   -18272883.818 7 -14098787.481 8
  25456640.522     -807271.280 4   -582023.349 1
  23247014.241     1175272.567 6    949745.822 6
  22939030.929   -10696349.006 6  -5936831.473 6
 94  2 15 21 46  0.0030000  0  8 27 18  2 28 19 16 29 31
  22497145.866   -13515566.797 7 -10445287.708 6
  21332995.858   -18824555.143 7 -12627687.916 7
  24463278.460    -4291384.634 5  -3275684.786 5
  24377382.491    -1632117.067 5     68022.886 5
  21612353.069   -18277931.914 7 -14102721.062 8
  25446293.952     -861684.348 3   -624423.130 1
  23263849.827     1263736.258 6   1018678.479 6
  22935065.046   -10717202.370 6  -5953080.825 6
 94  2 15 21 46 30.0030000  0  8 27 18  2 28 19 16 29 31
  22487960.991   -13563848.704 6 -10482909.937 6
  21341268.077   -18781088.808 7 -12593818.058 7
  24448111.194    -4371068.077 5  -3337775.700 4
  24384539.507    -1594472.122 5     97356.595 5
  21611435.319   -18282768.892 7 -14106490.154 8
  25436011.929     -915611.488 3   -666444.238 1
  23280755.015     1352543.803 6   1087879.070 6
  22931200.577   -10737496.854 6  -5968894.671 6
 94  2 15 21 47  0.0030000  0  8 27 18  2 28 19 16 29 31
  22478798.647   -13611994.624 7 -10520426.199 6
  21349633.202   -18737141.881 7 -12559573.721 7
  24432996.132    -4450539.386 5  -3399701.292 4
  24391814.062    -1556302.814 6    127098.900 5
  21610554.577   -18287399.592 7 -14110098.499 7
  25425828.007     -969068.457 3   -708099.056 1
  23297719.015     1441703.517 6   1157354.088 6
  22927438.429   -10757251.044 6  -5984287.496 6
 94  2 15 21 47 30.0030000  0  8 27 18  2 28 19 16 29 31
  22469667.874   -13660005.694 7 -10557837.357 7
  21358082.436   -18692719.369 7 -12524958.827 7
  24417907.530    -4529810.434 5  -3461470.858 4
  24399178.749    -1517599.949 6    157256.944 5
  21609715.327   -18291817.688 7 -14113541.160 7
  25415747.897    -1022084.701 3   -749410.392 1
  23314760.991     1531218.618 6   1227105.998 6
  22923784.741   -10776465.278 6  -5999259.598 7
 94  2 15 21 48  0.0030000  0  8 27 18  2 28 19 16 29 31
  22460559.116   -13707882.141 6 -10595143.645 7
  21366625.960   -18647823.832 7 -12489975.298 7
  24402858.554    -4608884.597 5  -3523087.037 2
  24406643.640    -1478356.156 6    187836.553 5
  21608914.804   -18296027.317 7 -14116821.390 7
  25405762.382    -1074680.153 3   -790393.828 1
  23331852.515     1621067.753 6   1297118.230 6
  22920235.569   -10795132.309 7  -6013805.296 6
 94  2 15 21 48 30.0030000  0  8 27 18  2 28 19 16 29 31
  22451465.046   -13755611.998 6 -10632335.696 7
  21375262.530   -18602458.992 7 -12454626.092 7
  24387851.421    -4687767.817 5  -3584554.409 4
  24414213.671    -1438577.731 5    218832.643 5
  21608144.515   -18300047.238 7 -14119953.821 8
  25395829.686    -1126850.932 3   -831046.233 1
  23349014.554     1711213.929 6   1367361.879 5
  22916788.171   -10813255.204 6  -6027926.999 6
 94  2 15 21 49  0.0030000  0  8 27 18  2 28 19 16 29 31
  22442410.851   -13803205.674 7 -10669421.624 7
  21383980.921   -18556625.565 7 -12418911.774 7
  24372882.796    -4766468.772 5  -3645879.757 4
  24421880.507    -1398265.289 5    250244.965 5
  21607412.015   -18303904.109 7 -14122959.162 8
  25385965.546    -1178600.201 1   -871370.333 1
  23366207.788     1801624.476 6   1437811.568 5
  22913443.561   -10830832.050 7  -6041623.230 6
 94  2 15 21 49 30.0030000  0  7 27 18  2 28 19 29 31
  22433380.937   -13850671.530 6 -10706407.959 7
  21392795.452   -18510317.097 7 -12382827.286 7
  24357946.913    -4844961.409 5  -3707042.787 5
  24429664.288    -1357405.579 5    282083.636 5
  21606711.241   -18307595.636 7 -14125835.667 7
  23383469.804     1892292.322 6   1508461.769 5
  22910197.351   -10847854.493 6  -6054887.424 6
 94  2 15 21 50  0.0030000  0  8 27 18  2 28 19 16 29 31
  22424379.038   -13898004.131 6 -10743290.476 7
  21401698.757   -18463526.166 7 -12346366.844 7
  24343060.077    -4923224.693 5  -3768027.094 5
  24437533.405    -1316013.186 5    314337.466 5
  21606039.022   -18311114.934 7 -14128577.970 7
  25366541.593          -0.66913
  23400767.241     1983222.919 6   1579316.654 6
  22907063.538   -10864325.861 6  -6067722.222 6
 94  2 15 21 50 30.0030000  0  8 27 18  2 28 19 16 29 31
  22415395.382   -13945200.649 7 -10780066.955 6
  21410696.585   -18416251.509 7 -12309529.482 7
  24328210.562    -5001241.807 5  -3828819.535 5
  24445513.327    -1274101.411 5    346995.957 5
  21605398.999   -18314459.297 7 -14131183.963 7
  25356938.132      -50362.799 3
  23418116.491     2074431.860 6   1650388.446 5
  22904039.491   -10880243.699 6  -6080125.728 6
 94  2 15 21 51  0.0030000  0  8 27 18  2 28 19 16 29 31
  22406436.194   -13992266.879 7 -10816741.880 6
  21419789.202   -18368484.395 7 -12272308.396 7
  24313400.265    -5079002.373 5  -3889412.081 5
  24453591.983    -1231667.663 5    380061.178 5
  21604802.280   -18317606.101 7 -14133636.012 8
  25347452.358     -100256.807 2
  23435545.202     2165957.185 6   1721706.812 5
  22901111.913   -10895597.420 6  -6092089.600 6
 94  2 15 21 51 30.0030000  0  8 27 18  2 28 19 16 29 31
  22397505.272   -14039199.281 7 -10853312.548 7
  21428971.030   -18320218.345 7 -12234698.521 7
  24298647.155    -5156510.807 5  -3949808.175 5
  24461756.624    -1188717.795 5    413528.595 5
  21604250.429   -18320533.457 7 -14135917.050 8
  25338060.905     -149685.586 3        -0.02911
  23453014.811     2257811.299 6   1793281.345 5
  22898300.038   -10910382.361 6  -6103610.280 6
 94  2 15 21 52  0.0030000  0  8 27 18  2 28 19 16 29 31
  22388597.741   -14085990.081 7 -10889772.895 7
  21438250.304   -18271458.884 7 -12196704.178 7
  24283944.366    -5233789.713 5  -4010025.405 5
  24470033.577    -1145266.302 5    447386.879 5
  21603734.796   -18323237.781 7 -14138024.311 8
  25328735.515     -198648.995 4    -38153.230 1
  23470564.483     2349999.252 6   1865115.958 6
  22895596.007   -10924593.996 6  -6114684.244 6
 94  2 15 21 52 30.0030000  0  8 27 18  2 28 19 16 29 31
  22379725.468   -14132635.778 7 -10926120.161 6
  21447621.874   -18222203.482 7 -12158323.378 7
  24269292.405    -5310837.182 5  -4070062.313 5
  24478395.499    -1101300.205 5    481646.151 5
  21603264.210   -18325730.621 7 -14139966.775 7
  25319512.929     -247145.767 4    -75942.852 1
  23488167.960     2442521.446 6   1937211.113 5
  22893008.030   -10938221.793 6  -6125303.276 6
 94  2 15 21 53  0.0030000  0  8 27 18  2 28 19 16 29 31
  22370874.186   -14179142.045 6 -10962358.773 7
  21457091.913   -18172452.658 7 -12119556.531 7
  24254667.179    -5387671.193 5  -4129932.870 4
  24486863.569    -1056807.713 5    516315.642 5
  21602826.413   -18328024.821 7 -14141754.451 7
  25310361.186     -295181.081 3   -113372.910 1
  23505839.460     2535360.758 6   2009553.324 5
  22890528.202   -10951269.761 6  -6135470.527 6
 94  2 15 21 53 30.0030000  0  8 27 18  2 28 19 16 29 31
  22362045.726   -14225503.536 6 -10998484.601 7
  21466645.163   -18122221.662 7 -12080415.546 7
  24240089.312    -5464301.763 5  -4189644.893 5
  24495432.436    -1011791.922 5    551392.870 5
  21602423.538   -18330129.984 7 -14143394.808 8
  25301317.163     -342738.839 3   -150430.834 2
  23523555.749     2628487.839 6   2082119.756 5
  22888155.311   -10963743.605 6  -6145190.326 6
 94  2 15 21 54  0.0030000  0  8 27 18  2 28 19 16 29 31
  22353258.147   -14271721.000 7 -11034498.179 7
  21476293.788   -18071514.651 7 -12040903.627 7
  24225536.421    -5540718.190 5  -4249190.031 5
  24504086.515     -966254.512 5    586876.527 5
  21602055.983   -18332056.595 7 -14144896.070 8
  25292330.218     -389820.701 2   -187117.994 1
  23541330.491     2721895.263 6   2154904.670 6
  22885884.015   -10975643.975 6  -6154463.307 6
 94  2 15 21 54 30.0030000  0  7 27 18  2 28 19 29 31
  22344487.382   -14317782.875 6 -11070390.556 7
  21486037.944   -18020318.944 7 -12001010.873 8
  24211043.733    -5616906.183 5  -4308557.162 5
  24512858.569     -920175.184 5    622782.478 5
  21601724.796   -18333802.585 7 -14146256.572 8
  23559162.436     2815582.445 6   2227907.565 5
  22883732.718   -10986958.908 7  -6163280.134 6
 94  2 15 21 55  0.0030000  0  8 27 18  2 28 19 16 29 31
  22335752.077   -14363686.083 7 -11106159.264 7
  21495875.366   -17968637.761 7 -11960739.861 7
  24196595.812    -5692867.871 6  -4367747.958 5
  24521730.335     -873549.543 5    659114.148 4
  21601431.874   -18335349.550 7 -14147461.982 7
  25274705.468          -0.91213
  23577045.749     2909558.886 6   2301135.819 5
  22881692.030   -10997687.786 6  -6171640.262 6
 94  2 15 21 55 30.0030000  0  8 27 18  2 28 19 16 29 31
  22327050.069   -14409424.430 7 -11141799.494 7
  21505795.390   -17916481.990 7 -11920099.034 7
  24182184.804    -5768591.659 6  -4426753.426 5
  24530710.124     -826388.249 5    695863.157 5
  21601176.827   -18336685.297 7 -14148502.782 7
  25266006.241      -45649.057 3
  23594986.976     3003829.278 6   2374593.202 5
  22879758.054   -11007831.576 6  -6179544.500 6
 94  2 15 21 56  0.0030000  0  8 27 18  2 28 19 16 29 31
  22318378.468   -14455000.040 6 -11177312.958 7
  21515813.819   -17863852.326 7 -11879088.936 7
  24167820.413    -5844069.106 5  -4485566.885 5
  24539784.554     -778692.925 5    733028.363 5
  21600959.710   -18337818.679 7 -14149385.920 8
  25257411.312      -90823.448 4
  23612976.562     3098398.735 5   2448283.576 5
  22877937.382   -11017399.886 6  -6187000.278 6
 94  2 15 21 56 30.0030000  0  8 27 18  2 28 19 16 29 31
  22309738.382   -14500421.439 7 -11212706.241 7
  21525916.976   -17810757.616 7 -11837716.475 7
  24153501.944    -5919300.617 5  -4544188.730 5
  24548961.929     -730467.618 5    770606.502 5
  21600780.827   -18338747.639 7 -14150109.778 8
  25248922.069     -135513.561 4        -0.33112
  23631032.554     3193275.050 6   2522213.038 5
  22876231.202   -11026393.069 6  -6194007.933 6
 94  2 15 21 57  0.0030000  0  8 27 18  2 28 19 16 29 31
  22301127.765   -14545691.065 7 -11247981.236 7
  21536103.843   -17757195.411 7 -11795979.716 7
  24139232.179    -5994270.362 5  -4602606.614 5
  24558235.546     -681728.668 5    808584.892 5
  21600639.288   -18339473.452 7 -14150675.330 8
  25240506.663     -179715.872 4    -34443.643 1
  23649140.858     3288459.584 6   2596382.723 5
  22874626.726   -11034815.098 6  -6200570.509 6
 94  2 15 21 57 30.0030000  0  8 27 18  2 28 19 16 29 31
  22292539.882   -14590806.384 6 -11283136.004 7
  21546389.280   -17703157.576 7 -11753872.359 7
  24125017.061    -6068977.800 5  -4660820.091 5
  24567606.343     -632487.799 5    846954.382 5
  21600540.577   -18340013.172 7 -14151095.871 8
  25232190.796     -223446.670 3    -68519.564 2
  23667323.710     3383934.904 6   2670778.982 5
  22873133.358   -11042652.941 6  -6206677.890 6
 94  2 15 21 58  0.0030000  0  8 27 18  2 28 19 16 29 31
  22283978.608   -14635777.132 7 -11318178.127 7
  21556762.413   -17648635.117 7 -11711387.354 7
  24110847.694    -6143436.938 5  -4718840.100 5
  24577067.257     -582763.482 5    885700.579 5
  21600466.765   -18340386.705 7 -14151386.923 8
  25223949.312     -266710.182 3   -102231.380 1
  23685537.405     3479694.288 6   2745396.527 5
  22871762.647   -11049896.257 6  -6212322.022 6
 94  2 15 21 58 30.0030000  0  8 27 18  2 28 19 16 29 31
  22275449.061   -14680610.375 7 -11353113.102 7
  21567236.226   -17593618.103 7 -11668516.975 7
  24096721.577    -6217654.614 5  -4776671.956 5
  24586622.741     -532566.762 5    924814.850 5
  21600427.983   -18340595.348 7 -14151549.500 8
  25215817.147     -309499.660 4   -135573.816 2
  23703817.187     3575726.668 6   2820226.869 5
  22870487.280   -11056536.430 6  -6217496.175 6
 94  2 15 21 59  0.0030000  0  8 27 18  2 28 19 16 29 31
  22266949.296   -14725290.020 7 -11387928.405 7
  21577809.327   -17538102.495 7 -11625258.106 7
  24082644.460    -6291629.346 6  -4834314.494 5
  24596263.249     -481897.399 5    964297.456 5
  21600422.085   -18340631.181 7 -14151577.412 8
  25207766.546     -351803.018 4   -168537.405 2
  23722133.116     3672020.202 5   2895260.767 5
  22869341.257   -11062567.392 6  -6222195.594 6
 94  2 15 21 59 30.0030000  0  8 27 18  2 28 19 16 29 31
  22258466.710   -14769824.197 7 -11422630.337 7
  21588465.257   -17482101.724 7 -11581621.185 7
  24068615.085    -6365377.582 5  -4891780.545 5
  24605988.999     -430753.327 5   1004149.944 4
  21600449.429   -18340482.919 7 -14151461.878 8
  25199811.483     -393610.364 5   -201114.550 2
  23740513.054     3768572.122 6   2970495.838 5
  22868311.265   -11067992.344 6  -6226422.782 7
 94  2 15 22  0  0.0030000  0  8 27 18  2 28 19 16 29 31
  22250024.780   -14814225.986 7 -11457229.115 7
  21599207.976   -17425631.760 7 -11537618.651 7
  24054627.577    -6438899.662 6  -4949070.374 5
  24615815.296     -379131.163 5   1044374.983 4
  21600515.507   -18340140.796 7 -14151195.266 7
  25191935.671     -434928.633 4   -233310.599 2
  23758932.046     3865383.620 6   3045933.218 5
  22867382.327   -11072840.144 6  -6230200.263 6
 94  2 15 22  0 30.0030000  0  8 27 18  2 28 19 16 29 31
  22241593.968   -14858511.528 7 -11491737.310 7
  21610034.202   -17368721.219 7 -11493272.809 7
  24040679.632    -6512199.980 5  -5006187.375 5
  24625735.499     -327019.702 5   1084981.275 4
  21600624.647   -18339593.506 7 -14150768.815 7
  25184175.015     -475773.797 4   -265138.007 3
  23777406.116     3962445.655 5   3121565.914 5
  22866572.132   -11077129.588 6  -6233542.715 6
 94  2 15 22  1  0.0030000  0  8 27 18  2 28 19 16 29 31
  22233188.647   -14902676.853 7 -11526151.800 7
  21620947.343   -17311391.836 7 -11448600.598 7
  24026759.944    -6585279.840 5  -5063132.638 5
  24635749.405     -274410.900 6   1125975.140 5
  21600769.483   -18338833.214 7 -14150176.377 7
  25176485.405     -516152.782 3   -296602.139 4
  23795930.522     4059763.427 5   3197397.795 5
  22865857.999   -11080862.879 6  -6236451.731 6
 94  2 15 22  1 30.0030000  0  8 27 18  2 28 19 16 29 31
  22224810.257   -14946714.926 7 -11560467.156 7
  21631934.616   -17253638.729 7 -11403598.223 7
  24012898.163    -6658130.476 5  -5119899.233 5
  24645853.522     -221287.812 5   1167369.751 5
  21600953.007   -18337862.170 7 -14149419.743 7
  25168878.976     -556070.844 3   -327707.116 4
  23814497.319     4157355.046 6   3273443.082 5
  22865260.780   -11084037.508 6  -6238925.427 6
 94  2 15 22  2  0.0030000  0  8 27 18  2 28 19 16 29 31
  22216451.218   -14990625.900 7 -11594683.458 7
  21643002.101   -17195465.187 7 -11358268.228 7
  23999081.804    -6730745.617 5  -5176482.361 5
  24656057.241     -167650.736 5   1209164.825 5
  21601174.186   -18336697.017 7 -14148511.819 7
  25161389.030     -595519.768 3   -358446.511 2
  23833120.179     4255218.252 6   3349699.989 5
  22864760.147   -11086650.947 6  -6240961.858 6
 94  2 15 22  2 30.0030000  0  8 27 18  2 28 19 16 29 31
  22208119.757   -15034396.672 7 -11628790.507 7
  21654154.897   -17136862.704 7 -11312604.003 7
  23985315.804    -6803121.387 6  -5232878.957 5
  24666362.851     -113499.648 5   1251360.453 5
  21601431.452   -18335345.469 7 -14147458.666 8
  25153971.366     -634472.011 3   -388798.891 2
  23851791.038     4353354.639 5   3426169.773 5
  22864374.093   -11088687.674 7  -6242548.890 6
 94  2 15 22  3  0.0030000  0  8 27 18  2 28 19 16 29 31
  22199829.858   -15078001.485 7 -11662768.239 7
  21665395.296   -17077804.214 7 -11266584.445 7
  23971590.257    -6875242.355 6  -5289077.031 5
  24676765.944      -58840.327 5   1293952.040 5
  21601721.515   -18333826.285 7 -14146274.874 8
  25146652.108     -672904.357 3   -418746.197 2
  23870514.515     4451763.404 6   3502851.751 5
  22864094.577   -11090145.903 6  -6243685.153 6
 94  2 15 22  3 30.0030000  0  8 27 18  2 28 19 16 29 31
  22191556.179   -15121448.729 7 -11696623.218 7
  21676726.749   -17018263.688 7 -11220189.274 7
  23957909.819    -6947113.057 6  -5345080.073 5
  24687268.108       -3682.962 5   1336931.835 3
  21602036.655   -18332142.032 7 -14144962.490 8
  25139461.022     -710801.757 3   -448276.607 3
  23889299.108     4550436.971 6   3579740.168 5
  22863927.351   -11091024.499 6  -6244369.726 6
 94  2 15 22  4  0.0030000  0  8 27 18  2 28 19 16 29 31
  22183320.866   -15164742.073 7 -11730358.253 7
  21688150.421   -16958229.608 7 -11173409.520 7
  23944271.757    -7018748.931 5  -5400900.148 5
  24697860.624       51963.641 5   1380292.812 4
  21602393.429   -18330284.039 7 -14143514.695 8
  25132331.749     -748164.748 3   -477390.614 1
  23908124.061     4649363.139 5   3656825.339 5
  22863874.530   -11091310.959 6  -6244592.895 6
 94  2 15 22  4 30.0030000  0  8 27 18  2 28 19 16 29 31
  22175110.546   -15207881.849 7 -11763973.591 7
  21699666.538   -16897697.795 7 -11126241.906 7
  23930680.194    -7090164.209 5  -5456548.322 5
  24708528.772      108084.464 5   1424023.281 5
  21602778.819   -18328242.562 7 -14141923.920 8
  25125314.991     -785012.579 3   -506103.227 2
  23926992.944     4748527.802 5   3734096.302 5
  22863932.030   -11091002.969 6  -6244352.912 6
 94  2 15 22  5  0.0030000  0  8 27 18  2 28 19 16 29 31
  22166925.038   -15250888.086 7 -11797484.937 7
  21711277.046   -16836676.376 7 -11078692.796 7
  23917141.718    -7161373.812 6  -5512036.247 5
  24719298.476      164656.987 5   1468105.769 4
  21603204.991   -18326011.473 7 -14140185.408 8
  25118402.733     -821373.846 3   -534436.682 2
  23945899.460     4847917.821 6   3811542.954 3
  22864100.577   -11090100.507 6  -6243649.637 6
 94  2 15 22  5 30.0030000  0  8 27 18  2 28 19 16 29 31
  22158769.366   -15293772.432 7 -11830901.277 7
  21722982.655   -16775182.408 7 -11030775.454 7
  23903628.913    -7232380.091 5  -5567365.754 5
  24730146.765      221678.242 5   1512537.877 5
  21603670.179   -18323569.766 7 -14138282.790 8
  25111576.522     -857274.312 4   -562411.059 2
  23964865.312     4947535.922 6   3889167.375 4
  22864384.866   -11088599.109 6  -6242479.728 7
 94  2 15 22  6  0.0030000  0  8 27 18  2 28 19 16 29 31
  22150632.155   -15336531.398 7 -11864219.918 7
  21734766.921   -16713237.879 7 -10982507.035 7
  23890160.835    -7303158.449 6  -5622517.645 5
  24741081.077      279150.287 5   1557321.223 5
  21604173.765   -18320924.126 7 -14136221.263 7
  25104832.999     -892728.685 5   -590037.788 2
  23983851.116     5047379.345 5   3966967.283 5
  22864783.671   -11086507.056 6  -6240849.529 7
 94  2 15 22  6 30.0030000  0  8 27 18  2 28 19 16 29 31
  22142520.179   -15379162.289 7 -11897438.767 7
  21746638.241   -16650861.880 7 -10933902.411 7
  23876740.522    -7373679.219 6  -5677468.843 5
  24752106.562      337073.895 5   1602456.417 5
  21604710.155   -18318083.689 7 -14134007.927 6
  25098158.483     -927732.530 4   -617313.479 3
  24002896.937     5147456.264 5   4044949.121 5
  22865295.304   -11083842.420 6  -6238773.182 1
 94  2 15 22  7  0.0030000  0  8 27 18  2 28 19 16 29 31
  22134435.858   -15421655.541 7 -11930550.336 7
  21758585.679   -16588068.457 7 -10884972.500 7
  23863376.437    -7443926.284 6  -5732206.771 5
  24763210.288      395456.649 5   1647949.430 1
  21605288.210   -18315061.824 7 -14131653.230 7
  25091587.116     -962279.364 4   -644233.093 3
  24021990.038     5247776.674 5   4123120.741 1
  22865900.952   -11080619.238 6  -6236261.591 6
 94  2 15 22  7 30.0030000  0  8 27 18  2 28 19 16 29 31
  22126376.062   -15463987.253 7 -11963536.067 8
  21770617.179   -16524864.646 7 -10835722.833 7
  23850065.429    -7513888.394 6  -5786722.646 5
  24774414.624      454318.414 5   1693815.691 2
  21605891.101   -18311868.871 7 -14129165.214 8
  25085113.296     -996342.807 4   -670776.031 2
  24041123.593     5348343.800 5   4201484.583 1
  22866627.202   -11076843.071 6  -6233319.113 6
 94  2 15 22  8  0.0030000  0  8 27 18  2 28 19 16 29 31
  22118355.397   -15506146.388 7 -11996387.334 7
  21782720.561   -16461252.965 7 -10786155.328 7
  23836796.905    -7583579.124 6  -5841027.033 5
  24785712.257      513665.428 5   1740060.093 3
  21606537.960   -18308507.840 7 -14126546.233 8
  25078723.483    -1029895.161 3   -696920.703 2
  24060309.788     5449162.943 5   4280044.851 5
  22867452.851   -11072508.169 6  -6229941.242 6
 94  2 15 22  8 30.0030000  0  8 27 18  2 28 19 16 29 31
  22110364.569   -15548122.103 7 -12029095.661 7
  21794905.647   -16397226.762 7 -10736264.841 7
  23823575.327    -7653029.183 5  -5895143.902 5
  24797096.093      573488.244 5   1786675.200 2
  21607210.382   -18304967.608 7 -14123787.617 8
  25072435.108    -1062932.461 3   -722664.046 2
  24079556.960     5550236.094 5   4358803.038 5
  22868381.187   -11067609.620 6  -6226124.161 6
 94  2 15 22  9  0.0030000  0  8 27 18  2 28 19 16 29 31
  22102411.421   -15589924.680 7 -12061669.057 7
  21807167.061   -16332777.362 7 -10686044.579 7
  23810406.561    -7722259.160 5  -5949089.308 5
  24808569.772      633782.299 5   1833657.578 3
  21607922.499   -18301242.964 7 -14120885.298 8
  25066245.171    -1095457.887 3   -748008.493 2
  24098828.147     5651541.793 5   4437742.347 5
  22869427.858   -11062135.050 6  -6221858.241 6
 94  2 15 22  9 30.0030000  0  8 27 18  2 28 19 16 29 31
  22094486.569   -15631564.841 7 -12094115.917 7
  21819514.046   -16267882.594 7 -10635477.255 7
  23797273.522    -7791272.544 6  -6002865.935 5
  24820138.249      694552.978 5   1881011.271 5
  21608667.226   -18297310.256 7 -14117820.841 8
  25060145.444    -1127471.880 3   -772954.452 3
  24118149.022     5753074.388 5   4516858.523 2
  22870576.601   -11056061.903 6  -6217125.908 6
 94  2 15 22 10  0.0030000  0  8 27 18  2 28 19 16 29 31
  22086588.921   -15673053.095 7 -12126444.403 7
  21831950.952   -16202537.611 7 -10584559.134 7
  23784175.257    -7860072.345 6  -6056476.104 5
  24831786.897      755789.479 5   1928727.937 5
  21609459.397   -18293155.991 7 -14114583.747 7
  25054154.858    -1158998.236 3   -797520.392 2
  24137517.913     5854834.524 6   4596152.041 3
  22871850.288   -11049387.812 6  -6211925.300 6
 94  2 15 22 10 30.0030000  0  8 27 18  2 28 19 16 29 31
  22078722.163   -15714402.981 7 -12158665.059 8
  21844478.116   -16136734.231 7 -10533283.841 7
  23771129.819    -7928641.266 6  -6109906.400 5
  24843524.608      817479.590 5   1976798.096 3
  21610289.304   -18288795.239 7 -14111185.749 8
  25048242.952    -1190050.576 3   -821717.005 2
  24156914.218     5956807.848 5   4675611.615 5
  22873231.491   -11042112.404 6  -6206256.136 6
 94  2 15 22 11  0.0030000  0  8 27 18  2 28 19 16 29 31
  22070876.538   -15755625.408 7 -12190786.415 8
  21857080.163   -16070475.858 7 -10481653.971 7
  23758128.351    -7996961.596 6  -6163142.967 5
  24855357.718      879625.782 4   2025223.641 2
  21611151.905   -18284242.898 7 -14107638.473 8
  25042424.499    -1220618.075 4   -845535.781 1
  24176365.405     6058996.698 5   4755239.167 5
  22874737.132   -11034222.382 7  -6200108.051 6
 94  2 15 22 11 30.0030000  0  8 27 18  2 28 19 16 29 31
  22063056.749   -15796711.454 7 -12222801.498 8
  21869770.749   -16003781.296 7 -10429684.225 7
  23745177.851    -8065047.338 6  -6216196.735 5
  24867265.733      942216.608 5   2073995.569 4
  21612052.960   -18279511.701 7 -14103951.813 8
  25036697.741    -1250703.220 5   -868978.722 2
  24195845.030     6161410.127 5   4835041.564 5
  22876353.280   -11025735.187 6  -6193494.654 6
 94  2 15 22 12  0.0030000  0  8 27 18  2 28 19 16 29 31
  22055266.663   -15837649.469 7 -12254701.235 8
  21882545.780   -15936660.762 7 -10377382.568 7
  23732269.257    -8132896.667 6  -6269066.291 5
  24879255.499     1005249.969 4   2123112.393 5
  21612979.913   -18274621.102 7 -14100140.944 8
  25031078.429    -1280287.810 5   -892031.602 1
  24215381.304     6264056.089 5   4915025.275 2
  22878077.202   -11016661.670 6  -6186424.360 7
 94  2 15 22 12 30.0030000  0  8 27 18  2 28 19 16 29 31
  22047498.897   -15878449.016 7 -12286493.089 8
  21895399.827   -15869119.933 7 -10324753.423 7
  23719403.749    -8200502.348 6  -6321745.987 5
  24891342.257     1068730.456 5   2172577.651 3
  21613941.452   -18269581.833 7 -14096214.238 8
  25025540.085    -1309351.480 5   -914678.567 2
  24234972.749     6366928.387 5   4995185.456 3
  22879917.530   -11006992.800 6  -6178890.155 7
 94  2 15 22 13  0.0030000  0  8 27 18  2 28 19 16 29 31
  22039768.952   -15919090.738 7 -12318161.932 8
  21908334.491   -15801159.965 7 -10271797.652 7
  23706578.765    -8267871.439 6  -6374241.317 5
  24903503.171     1132664.637 5   2222396.414 5
  21614928.288   -18264366.421 7 -14092150.284 8
  25020114.835    -1337890.567 5   -936916.816 1
  24254589.140     6470033.914 5   5075527.239 4
  22881873.608   -10996731.807 6  -6170894.522 6
 94  2 15 22 13 30.0030000  0  8 27 18  2 28 19 16 29 31
  22032066.444   -15959565.821 6 -12349700.951 7
  21921341.710   -15732780.532 7 -10218515.024 7
  23693808.796    -8334994.980 6  -6426545.334 5
  24915757.046     1197057.559 5   2272572.656 5
  21615968.351   -18258955.149 7 -14087933.714 8
  25014775.522    -1365916.453 5   -958755.138 2
  24274254.147     6573369.328 5   5156048.086 5
  22883931.077   -10985881.191 7  -6162439.501 6
 94  2 15 22 14  0.0030000  0  8 27 18  2 28 19 16 29 31
  22024402.507   -15999886.429 7 -12381119.568 7
  21934438.233   -15663965.122 7 -10164892.684 7
  23681082.936    -8401838.151 6  -6478630.871 5
  24928107.569     1261910.964 5   2323107.662 5
  21617035.468   -18253330.307 7 -14083550.715 8
  25009551.772    -1393421.903 4   -980187.944 1
  24293963.827     6676937.308 5   5236750.260 5
  22886117.515   -10974412.505 6  -6153502.822 6
 94  2 15 22 14 30.0030000  0  8 27 18  2 28 19 16 29 31
  22016751.202   -16040053.910 7 -12412418.884 8
  21947616.554   -15594703.046 7 -10110922.286 7
  23668414.999    -8468398.071 6  -6530495.702 5
  24940525.663     1327207.831 5   2373988.232 3
  21618151.468   -18247471.246 7 -14078985.228 7
  25004413.179    -1420425.331 4  -1001229.574 2
  24313704.819     6780739.112 5   5317634.690 1
  22888414.890   -10962321.925 6  -6144081.593 6
 94  2 15 22 15  0.0030000  0  8 27 18  2 28 19 16 29 31
  22009142.858   -16080052.088 7 -12443586.302 7
  21960885.679   -15524983.249 7 -10056595.214 7
  23655813.819    -8534676.725 6  -6582141.344 5
  24953039.038     1392947.195 5   2425213.676 2
  21619312.452   -18241375.861 7 -14074235.588 8
  24999358.983    -1446940.921 4  -1021891.048 2
  24333507.319     6884775.872 5   5398702.113 2
  22890833.804   -10949619.369 6  -6134183.477 7
 94  2 15 22 15 30.0030000  0  8 27 18  2 28 19 16 29 31
  22001559.296   -16119887.950 7 -12474627.187 7
  21974242.194   -15454810.536 7 -10001915.231 7
  23643248.179    -8600665.381 6  -6633561.027 5
  24965630.960     1459135.006 5   2476788.542 4
  21620510.038   -18235064.983 7 -14069318.043 8
  24994407.108    -1472954.082 4  -1042161.025 1
  24353355.093     6989058.770 5   5479961.342 5
  22893365.491   -10936307.207 6  -6123810.322 6
 94  2 15 22 16  0.0030000  0  8 27 18  2 28 19 16 29 31
  21994009.124   -16159560.415 7 -12505540.795 8
  21987682.952   -15384186.848 7  -9946883.838 7
  23630758.202    -8666375.992 6  -6684764.028 6
  24978312.421     1525759.591 5   2528703.731 4
  21621747.507   -18228556.771 7 -14064246.715 8
  24989555.780    -1498453.675 4  -1062030.801 2
  24373245.718     7093581.472 5   5561407.400 5
  22896014.593   -10922406.083 6  -6112978.271 6
 94  2 15 22 16 30.0030000  0  8 27 18  2 28 19 16 29 31
  21986499.491   -16199047.867 7 -12536310.233 8
  22001203.116   -15313124.113 7  -9891510.336 7
  23618294.999    -8731833.697 6  -6735769.984 6
  24991067.905     1592832.448 5   2580968.265 3
  21623023.022   -18221862.083 7 -14059030.071 8
  24984799.077    -1523446.963 5  -1081506.095 1
  24393174.663     7198326.780 5   5643026.963 4
  22898769.319   -10907941.637 6  -6101707.253 6
 94  2 15 22 17  0.0030000  0  8 27 18  2 28 19 16 29 31
  21979023.108   -16238343.579 7 -12566930.243 7
  22014804.780   -15241641.054 7  -9835809.285 7
  23605885.468    -8797034.939 6  -6786576.087 6
  25003925.046     1660373.386 5   2633597.533 4
  21624327.561   -18214995.459 7 -14053679.466 8
  24980146.226    -1547916.433 5  -1100573.150 2
  24413147.765     7303278.387 5   5724807.288 3
  22901625.476   -10892912.416 6  -6089996.133 6
 94  2 15 22 17 30.0030000  0  8 27 18  2 28 19 16 29 31
  21971577.616   -16277457.670 7 -12597408.731 7
  22028488.460   -15169745.700 7  -9779786.975 7
  23593512.749    -8861982.887 6  -6837184.835 6
  25016864.304     1728372.606 5   2686583.889 2
  21625669.593   -18207938.504 7 -14048180.559 8
  24975601.397    -1571845.303 5  -1119218.985 2
  24433153.390     7408420.843 5   5806736.265 3
  22904598.913   -10877307.102 6  -6077836.161 6
 94  2 15 22 18  0.0030000  0  8 27 18  2 28 19 16 29 31
  21964164.413   -16316389.934 6 -12627745.546 8
  22042246.007   -15097427.940 7  -9723435.519 7
  23581213.429    -8926685.970 6  -6887602.778 6
  25029894.108     1796818.904 5   2739918.620 5
  21627058.616   -18200669.089 7 -14042516.084 8
  24971139.569    -1595237.380 5  -1137446.568 2
  24453195.999     7513734.628 5   5888798.833 5
  22907677.671   -10861115.823 6  -6065219.574 6
 94  2 15 22 18 30.0030000  0  8 27 18  2 28 19 16 29 31
  21956792.530   -16355152.450 7 -12657950.099 8
  22056090.663   -15024690.066 7  -9666756.698 7
  23568948.226    -8991152.873 6  -6937836.659 6
  25042992.210     1865707.094 4   2793597.664 5
  21628478.351   -18193181.338 7 -14036681.475 8
  24966784.296    -1618109.402 4  -1155268.913 3
  24473271.616     7619211.603 5   5970988.522 5
  22910874.304   -10844323.715 7  -6052134.792 6
 94  2 15 22 19  0.0030000  0  8 27 18  2 28 19 16 29 31
  21949447.257   -16393756.405 7 -12688031.083 7
  22070013.343   -14951520.723 7  -9609741.699 6
  23556721.804    -9055372.202 6  -6987877.648 6
  25056199.686     1935022.124 5   2847609.317 4
  21629947.429   -18185472.519 7 -14030674.598 8
  24962532.593    -1640457.758 3  -1172683.187 4
  24493372.882     7724862.245 5   6053313.497 5
  22914184.061   -10826915.029 6  -6038569.545 7
 94  2 15 22 19 30.0030000  0  8 27 18  2 28 19 16 29 31
  21942132.811   -16432206.264 7 -12717991.989 7
  22084019.733   -14877914.623 7  -9552386.339 7
  23544548.593    -9119347.523 6  -7037728.479 6
  25069461.007     2004737.114 5   2901932.633 4
  21631455.702   -18177543.739 7 -14024496.346 7
  24958373.468    -1662301.162 4  -1189704.020 2
  24513520.679     7830688.604 3   6135775.389 3
  22917615.624   -10808896.711 7  -6024529.310 7
 94  2 15 22 20  0.0030000  0  8 27 18  2 28 19 16 29 31
  21934851.046   -16470483.824 7 -12747818.634 8
  22098112.765   -14803866.391 7  -9494686.481 7
  23532422.187    -9183060.525 6  -7087374.892 6
  25082807.421     2074862.317 5   2956575.601 2
  21633006.116   -18169415.368 7 -14018162.544 7
  24954314.538    -1683652.775 4  -1206341.626 2
  24533698.390     7936709.948 5   6218389.235 1
  22921158.741   -10790264.184 6  -6010010.426 6
 94  2 15 22 20 30.0030000  0  8 27 18  2 28 19 16 29 31
  21927597.124   -16508581.070 7 -12777504.780 8
  22112279.538   -14729388.118 7  -9436651.522 7
  23520350.140    -9246488.504 6  -7136799.227 6
  25096225.671     2145411.986 5   3011549.347 2
  21634589.569   -18161101.434 7 -14011684.135 8
  24950338.897    -1704517.992 4  -1222600.221 3
  24553899.874     8042928.358 5   6301156.652 2
  22924822.804   -10771014.492 6  -5995010.666 6
 94  2 15 22 21  0.0030000  0  8 27 18  2 28 19 16 29 31
  21920382.194   -16546493.521 7 -12807046.926 7
  22126534.640   -14654494.408 7  -9378292.851 7
  23508341.858    -9309621.788 6  -7185993.919 6
  25109729.561     2216387.805 5   3066855.157 5
  21636205.608   -18152599.020 7 -14005058.866 8
  24946462.194    -1724876.666 3  -1238464.117 3
  24574153.015     8149342.680 5   6384076.786 5
  22928603.694   -10751159.214 6  -5979539.014 6
 94  2 15 22 21 30.0030000  0  8 27 18  2 28 19 16 29 31
  21913200.624   -16584228.099 7 -12836450.442 7
  22140863.968   -14579201.206 7  -9319622.895 7
  23496375.749    -9372468.901 6  -7234965.634 6
  25123320.335     2287794.329 5   3122496.544 3
  21637860.249   -18143910.278 7 -13998288.433 8
  24942691.429    -1744719.974 3  -1253926.424 3
  24594444.452     8255956.572 5   6467152.379 4
  22932490.538   -10730709.707 6  -5963604.309 6
 94  2 15 22 22  0.0030000  0  8 27 18  2 28 19 16 29 31
  21906050.679   -16621791.628 7 -12865720.705 7
  22155267.952   -14503514.261 7  -9260646.098 7
  23484472.061    -9435042.800 6  -7283724.451 6
  25136983.483     2359651.097 5   3178488.826 2
  21639549.116   -18135028.735 7 -13991367.759 8
  24939007.874    -1764033.121 4  -1268975.605 2
  24614756.015     8362777.820 3   6550389.439 4
  22936497.046   -10709667.139 6  -5947207.497 6
 94  2 15 22 22 30.0030000  0  8 27 18  2 28 19 16 29 31
  21898933.179   -16659198.329 7 -12894868.739 7
  22169742.687   -14427439.012 7  -9201366.747 7
  23472605.757    -9497357.336 6  -7332281.183 6
  25150748.890     2431948.330 5   3234824.282 1
  21641274.226   -18125941.261 7 -13984286.607 8
  24935438.491    -1782803.278 4  -1283601.667 3
  24635126.991     8469796.447 5   6633780.364 2
  22940608.577   -10688047.914 6  -5930361.349 6
 94  2 15 22 23  0.0030000  0  8 27 18  2 28 19 16 29 31
  21891846.343   -16696447.076 7 -12923893.693 7
  22184292.054   -14350963.240 7  -9141775.302 7
  23460802.913    -9559424.569 6  -7380645.188 6
  25164588.585     2504681.500 5   3291499.409 2
  21643043.327   -18116639.463 7 -13977038.423 8
  24931977.265    -1801012.612 5  -1297790.744 3
  24655534.179     8577024.224 5   6717334.321 2
  22944836.491   -10665855.886 6  -5913068.850 6
 94  2 15 22 23 30.0030000  0  8 27 18  2 28 19 16 29 31
  21884788.999   -16733532.593 7 -12952791.485 7
  22198929.101   -14274078.210 7  -9081864.950 7
  23449047.077    -9621240.584 6  -7428813.448 6
  25178512.202     2577849.716 5   3348513.578 1
  21644857.804   -18107122.716 7 -13969622.756 8
  24928625.655    -1818672.460 5  -1311551.629 2
  24675978.710     8684456.157 5   6801047.401 1
  22949165.546   -10643081.509 6  -5895322.578 6
 94  2 15 22 24  0.0030000  0  8 27 18  2 28 19 16 29 31
  21877759.952   -16770448.778 7 -12981557.273 7
  22213640.640   -14196779.717 7  -9021632.423 7
  23437326.866    -9682784.738 6  -7476769.840 6
  25192527.608     2651442.122 5   3405858.220 2
  21646709.476   -18097382.280 7 -13962032.812 8
  24925365.452    -1835794.022 5  -1324893.058 1
  24696451.351     8792069.981 5   6884902.168 1
  22953610.577   -10619721.767 7  -5877120.143 6
 94  2 15 22 24 30.0030000  0  8 27 18  2 28 19 16 29 31
  21870773.366   -16807187.868 7 -13010185.114 7
  22228428.296   -14119071.610 7  -8961080.706 7
  23425675.554    -9744041.730 6  -7524502.477 6
  25206600.890     2725444.221 3   3463522.242 1
  21648609.171   -18087410.013 7 -13954262.221 8
  24922202.718    -1852390.184 5  -1337825.107 3
  24716962.421     8899857.534 5   6968892.202 3
  22958168.679   -10595770.382 6  -5858456.720 6
 94  2 15 22 25  0.0030000  0  8 27 18  2 28 19 16 29 31
  21863816.132   -16843746.111 7 -13038672.036 7
  22243285.788   -14040957.582 7  -8900212.695 7
  23414075.397    -9805019.428 6  -7572017.498 6
  25220763.116     2799850.440 3   3521501.079 1
  21650549.905   -18077208.264 7 -13946312.798 8
  24919148.460    -1868488.175 5  -1350368.955 2
  24737504.929     9007811.107 4   7053011.673 5
  22962843.608   -10571217.475 7  -5839324.556 6
 94  2 15 22 25 30.0030000  0  8 27 18  2 28 19 16 29 31
  21856893.226   -16880120.739 7 -13067015.856 7
  22258231.351   -13962439.347 7  -8839029.702 7
  23402517.929    -9865711.865 6  -7619310.216 6
  25234992.796     2874654.469 3   3579789.852 2
  21652537.085   -18066768.634 7 -13938178.009 7
  24916164.679    -1884104.271 4  -1362537.288 2
  24758090.132     9115935.443 5   7137264.267 3
  22967627.812   -10546059.392 6  -5819720.838 6
 94  2 15 22 26  0.0030000  0  8 27 18  2 28 19 16 29 31
  21850004.819   -16916316.480 7 -13095220.292 7
  22273243.171   -13883518.019 7  -8777532.646 7
  23391022.991    -9926136.967 6  -7666394.619 6
  25249310.022     2949848.763 5   3638382.775 2
  21654563.733   -18056092.548 7 -13929858.966 8
  24913277.077    -1899250.920 3  -1374339.854 2
  24778693.265     9224241.825 5   7221658.667 1
  22972533.093   -10520303.210 7  -5799651.071 6
 94  2 15 22 26 30.0030000  0  8 27 18  2 28 19 16 29 31
  21843153.546   -16952326.730 7 -13123280.204 8
  22288343.788   -13804195.013 7  -8715722.548 7
  23379569.280    -9986325.153 6  -7713294.423 6
  25263688.452     3025433.908 5   3697280.253 2
  21656640.476   -18045194.234 7 -13921366.764 8
  24910487.226    -1913918.673 3  -1385769.281 3
  24799337.780     9332735.439 3   7306199.052 1
  22977546.140   -10493947.584 6  -5779114.198 6
 94  2 15 22 27  0.0030000  0  8 27 18  2 28 19 16 29 31
  21836336.280   -16988142.053 7 -13151188.221 8
  22303515.921   -13724462.852 7  -8653593.664 6
  23368156.624   -10046281.940 6  -7760013.917 6
  25278151.593     3101411.169 3   3756483.226 2
  21658756.733   -18034088.452 7 -13912712.883 8
  24907801.780    -1928077.532 4  -1396802.149 2
  24820028.124     9441415.916 3   7390884.868 3
  22982673.382   -10466998.373 6  -5758114.828 6
 94  2 15 22 27 30.0030000  0  8 27 18  2 28 19 16 29 31
  21829559.757   -17023762.180 7 -13178944.122 7
  22318761.991   -13644330.641 7  -8591153.056 6
  23356794.679   -10105993.477 6  -7806542.309 6
  25292673.179     3177779.579 3   3815990.939 1
  21660902.929   -18022783.204 7 -13903903.578 8
  24905218.085    -1941695.438 4  -1407413.517 2
  24840726.491     9550284.005 3   7475716.876 5
  22987917.812   -10439460.064 7  -5736656.370 6
 94  2 15 22 28  0.0030000  0  8 27 18  2 28 19 16 29 31
  21822817.108   -17059170.095 7 -13206534.678 8
  22334091.507   -13563785.584 7  -8528390.729 7
  23345484.077   -10165453.088 6  -7852874.370 6
  25307284.421     3254547.332 5   3875809.932 2
  21663095.421   -18011286.469 7 -13894945.076 8
  24902718.999    -1954748.919 4  -1417584.997 2
  24861490.968     9659327.752 5   7560685.908 5
  22993268.686   -10411327.071 7  -5714734.550 6
 94  2 15 22 28 30.0030000  0  8 27 18  2 28 19 16 29 31
  21816127.155   -17094361.356 7 -13233956.392 8
  22349494.233   -13482830.879 7  -8465309.191 6
  23334217.163   -10224644.075 6  -7898997.143 6
  25321978.147     3331715.418 4   3935940.883 3
  21665311.288   -17999615.507 7 -13885850.814 8
  24900355.601    -1967228.040 3  -1427308.987 2
  24882280.796     9768529.804 5   7645778.241 5
  22998737.952   -10382598.919 7  -5692348.974 6
 94  2 15 22 29  0.0030000  0  8 27 18  2 28 19 16 29 31
  21809466.155   -17129342.398 7 -13261214.333 8
  22364979.624   -13401467.993 7  -8401909.595 7
  23323008.335   -10283539.805 6  -7944889.829 6
  25336737.788     3409294.120 5   3996391.788 5
  21667565.749   -17987765.807 7 -13876617.286 8
  24898086.976    -1979140.686 4  -1436591.562 2
  24903078.866     9877889.845 5   7730993.670 3
  23004319.640   -10353277.761 7  -5669501.302 6
 94  2 15 22 29 30.0030000  0  8 27 18  2 28 19 16 29 31
  21802845.171   -17164118.272 7 -13288312.381 7
  22380541.569   -13319698.205 7  -8338192.939 7
  23311863.757   -10342125.710 6  -7990541.110 6
  25351569.147     3487285.641 5   4057164.368 4
  21669861.616   -17975724.956 7 -13867234.787 7
  24895929.171    -1990511.467 4  -1445451.887 2
  24923921.726     9987412.955 4   7816336.141 3
  23010010.186   -10323364.525 6  -5646192.293 6
 94  2 15 22 30  0.0030000  0  8 27 18  2 28 19 16 29 31
  21796269.116   -17198702.785 7 -13315261.313 8
  22396180.054   -13237526.108 7  -8274162.795 7
  23300761.507   -10400419.037 6  -8035964.408 6
  25366482.288     3565683.843 5   4118253.757 4
  21672192.890   -17963488.821 7 -13857700.115 7
  24893842.819    -2001362.978 3  -1453907.610 2
  24944793.804    10097091.799 4   7901800.037 1
  23015806.140   -10292870.626 6  -5622430.827 6
 94  2 15 22 30 30.0030000  0  8 27 18  2 28 19 16 29 31
  21789719.452   -17233122.538 7 -13342081.873 8
  22411889.257   -13154976.422 7  -8209838.421 7
  23289728.218   -10458422.435 6  -8081161.800 6
  25381494.968     3644487.631 5   4179659.240 2
  21674560.327   -17951042.075 7 -13848001.331 7
  24891878.913    -2011701.209 3  -1461963.382 2
  24965696.710    10206935.165 5
  23021725.468   -10261799.006 6  -5598219.182 6
 94  2 15 22 31  0.0030000  0  8 27 18  2 28 19 16 29 31
  21783197.233   -17267399.770 7 -13368791.374 8
  22427668.882   -13072065.884 7  -8145232.868 7
  23278746.812   -10516154.633 6  -8126147.841 6
  25396562.186     3723685.522 5   4241371.826 2
  21676971.538   -17938359.357 7 -13838118.694 8
  24889999.452    -2021538.099 3  -1469628.470 2
  24986637.436    10316943.681 5
  23027743.616   -10230163.023 6  -5573567.803 6
 94  2 15 22 31 30.0030000  0  8 27 18  2 28 19 16 29 31
  21776703.358   -17301529.997 7 -13395386.353 8
  22443511.077   -12988797.483 7  -8080348.479 6
  23267812.538   -10573634.888 6  -8170937.588 6
  25411695.874     3803258.871 4   4303376.990 1
  21679433.233   -17925428.456 7 -13828042.682 8
  24888227.968    -2030878.068 4  -1476906.385 2
  25007600.476    10427114.569 5        -0.29013
  23033874.335   -10197949.495 6  -5548466.330 6
 94  2 15 22 32  0.0030000  0  8 27 18  2 28 19 16 29 31
  21770236.468   -17335508.243 7 -13421862.861 8
  22459417.819   -12905174.762 6  -8015187.982 7
  23256913.452   -10630872.923 6  -8215538.586 6
  25426923.265     3883211.844 5   4365677.941 1
  21681942.561   -17912246.974 7 -13817771.399 8
  24886560.108    -2039717.759 5  -1483794.454 3
  25028580.507    10537436.241 3     85964.423 4
  23040118.741   -10165140.950 7  -5522901.243 6
 94  2 15 22 32 30.0030000  0  7 27 18  2 28 19 16 31
  21763800.202   -17369309.160 6 -13448201.230 8
  22475401.913   -12821183.246 7  -7949740.096 7
  23246071.218   -10687851.130 6  -8259937.143 6
  25442221.929     3963543.615 4   4428274.067 1
  21684498.968   -17898808.143 7 -13807299.570 8
  24884973.788    -2048044.926 5  -1490283.110 4
  23046475.241   -10131719.894 6  -5496858.878 6
 94  2 15 22 33  0.0030000  0  7 27 18  2 28 19 16 31
  21757409.226   -17402904.655 7 -13474379.541 8
  22491462.741   -12736807.363 7  -7883992.721 6
  23235276.647   -10744563.115 6  -8304128.245 6
  25457578.265     4044238.594 4   4491153.238 2
  21687101.858   -17885125.353 7 -13796637.647 8
  24883480.585    -2055862.180 5  -1496374.499 4
  23052953.983   -10097683.288 6  -5470336.833 6
 94  2 15 22 33 30.0030000  0  8 27 18  2 28 19 16 29 31
  21751062.382   -17436286.248 7 -13500391.139 8
  22507587.241   -12652041.595 7  -7817941.552 7
  23224542.569   -10800995.299 6  -8348101.320 6
  25472987.921     4125296.584 4   4554315.218 2
  21689749.601   -17871225.327 7 -13785806.452 8
  24882097.780    -2063163.042 5  -1502063.456 3
  25091745.374      110764.745 3
  23059552.358   -10063029.397 6  -5443333.782 6
 94  2 15 22 34  0.0030000  0  8 27 18  2 28 19 16 29 31
  21744747.483   -17469450.151 7 -13526233.117 8
  22523798.124   -12566890.907 7  -7751590.427 7
  23213862.726   -10857130.998 6  -8391843.399 6
  25488462.874     4206724.548 3   4617765.527 1
  21692435.155   -17857116.112 7 -13774812.262 7
  24880798.976    -2069934.582 4  -1507340.005 3
  25112841.429      221668.736 3
  23066253.132   -10027791.340 6  -5415875.579 6
 94  2 15 22 34 30.0030000  0  8 27 18  2 28 19 16 29 31
  21738478.866   -17502396.387 7 -13551905.508 8
  22540074.405   -12481352.168 7  -7684936.929 6
  23203227.444   -10912964.803 6  -8435350.194 6
  25504033.241     4288506.430 3   4681491.647 2
  21695153.702   -17842815.244 7 -13763668.732 7
  24879606.499    -2076172.814 4  -1512200.942 3
  25133978.640      332709.073 5     43274.50111
  23073066.515    -9991988.957 7  -5387977.587 6
 94  2 15 22 35  0.0030000  0  8 27 18  2 28 19 16 29 31
  21732248.757   -17535136.151 7 -13577416.981 8
  22556424.202   -12395433.067 7  -7617987.044 6
  23192665.843   -10968501.004 6  -8478625.105 6
  25519670.624     4370647.939 3   4745497.934 2
  21697911.085   -17828329.133 7 -13752380.837 7
  24878531.374    -2081882.822 3  -1516650.308 3
  25155124.499      443878.322 5    129899.737 1
  23079986.499    -9955632.175 6  -5359647.604 6
 94  2 15 22 35 30.0030000  0  8 27 18  2 28 19 16 29 31
  21726060.311   -17567671.174 7 -13602768.913 8
  22572841.499   -12309142.377 7  -7550747.630 7
  23182153.679   -11023743.054 6  -8521670.784 6
  25535374.726     4453161.317 3   4809793.992 1
  21700707.311   -17813645.738 7 -13740939.223 7
  24877552.108    -2087059.260 4  -1520683.865 3
  25176316.062      555180.328 5    216628.404 1
  23087009.436    -9918723.103 6  -5330887.279 6
 94  2 15 22 36  0.0030000  0  8 27 18  2 28 19 16 29 31
  21719906.601   -17599990.882 7 -13627953.104 8
  22589332.265   -12222482.354 7  -7483220.409 7
  23171698.788   -11078698.568 6  -8564493.217 6
  25551146.429     4536034.007 4   4874370.088 1
  21703537.679   -17798755.408 7 -13729336.358 8
  24876667.640    -2091707.506 4  -1524305.901 4
  25197524.452      666618.835 5    303463.361 2
  23094141.929    -9881254.423 6  -5301690.891 6
 94  2 15 22 36 30.0030000  0  8 27 18  2 28 19 16 29 31
  21713796.327   -17632108.355 7 -13652979.655 7
  22605897.304   -12135443.486 7  -7415397.975 7
  23161289.226   -11133385.344 6  -8607106.188 6
  25566989.194     4619262.451 5   4939223.372 1
  21706410.046   -17783654.258 7 -13717569.218 8
  24875874.366    -2095834.969 5  -1527522.111 4
  25218753.538      778194.711 3    390405.439 1
  23101377.171    -9843202.312 6  -5272039.863 6
 94  2 15 22 37  0.0030000  0  8 27 18  2 28 19 16 29 31
  21707722.054   -17664028.276 7 -13677852.276 8
  22622532.030   -12048037.346 7  -7347289.338 7
  23150926.671   -11187811.228 6  -8649515.920 6
  25582891.015     4702845.677 3   5004353.191 1
  21709331.358   -17768321.751 7 -13705621.809 8
  24875198.140    -2099441.209 5  -1530332.191 2
  25240019.897      889912.656 2
  23108737.952    -9804557.340 6  -5241926.884 6
 94  2 15 22 37 30.0030000  0  7 27 18  2 28 19 16 31
  21701687.765   -17695745.119 7 -13702566.689 8
  22639229.319   -11960268.403 7  -7278898.027 6
  23140626.179   -11241983.430 6  -8691727.952 6
  25598863.476     4786792.661 4   5069766.347 1
  21712291.804   -17752744.132 7 -13693483.415 8
  24874606.382    -2102515.806 5  -1532727.986 3
  23116198.929    -9765319.516 6  -5211351.961 6
 94  2 15 22 38  0.0030000  0  7 27 18  2 28 19 16 31
  21695686.843   -17727274.648 7 -13727135.107 7
  22655998.593   -11872144.423 7  -7210230.052 6
  23130360.561   -11295900.256 6  -8733741.020 6
  25614924.046     4871108.892 4   5135467.320 1
  21715301.562   -17736923.052 7 -13681155.305 8
  24874116.194    -2105061.484 5  -1534711.645 2
  23123779.296    -9725489.658 6  -5180315.683 6
 94  2 15 22 38 30.0030000  0  6 27 18  2 19 16 31
  21689720.585   -17758623.168 7 -13751562.475 8
  22672839.030   -11783673.435 7  -7141291.685 6
  23120158.343   -11349553.023 6  -8775548.330 6
  21718363.741   -17720858.098 7 -13668637.167 7
  24873748.616    -2107073.348 5  -1536279.322 2
  23131470.491    -9685073.459 6  -5148822.510 6
 94  2 15 22 39  0.0030000  0  6 27 18  2 19 16 31
  21683791.647   -17789767.880 7 -13775831.071 8
  22689731.710   -11694865.558 7  -7072090.831 6
  23109997.382   -11402921.627 6  -8817134.201 6
  21721459.811   -17704553.007 7 -13655931.899 7
  24873465.093    -2108548.160 5  -1537428.526 2
  23139266.937    -9644087.234 6  -5116885.209 6
 94  2 15 22 39 30.0030000  0  6 27 18  2 19 16 31
  21677906.772   -17820694.400 7 -13799929.617 8
  22706699.046   -11605709.928 7  -7002618.977 6
  23099898.522   -11455994.365 6  -8858489.539 6
  21724608.358   -17688020.187 7 -13643049.171 7
  24873270.819    -2109485.144 3  -1538158.680 2
  23147178.444    -9602534.927 7  -5084506.760 6
 94  2 15 22 40  0.0030000  0  6 27 18  2 19 16 31
  21672063.811   -17851404.573 7 -13823859.599 8
  22723733.272   -11516202.922 6  -6932873.321 6
  23089850.421   -11508771.042 6  -8899614.169 6
  21727798.319   -17671278.309 7 -13630003.527 7
  24873211.226    -2109909.710 5  -1538489.507 2
  23155186.905    -9560428.464 6  -5051696.548 6
 94  2 15 22 40 30.0030000  0  6 27 18  2 19 16 31
  21666264.819   -17881885.102 7 -13847610.607 8
  22740831.382   -11426329.848 6  -6862842.408 6
  23079871.210   -11561254.254 6  -8940510.130 6
  21731024.522   -17654325.540 7 -13616793.568 7
  24873207.905    -2109833.347 3  -1538429.992 3
  23163305.632    -9517781.040 6  -5018464.801 6
 94  2 15 22 41  0.0030000  0  6 27 18  2 19 16 31
  21660506.319   -17912125.332 7 -13871174.404 8
  22758005.382   -11336089.342 6  -6792525.184 7
  23069937.358   -11613459.097 6  -8981189.181 6
  21734289.390   -17637154.925 7 -13603413.872 7
  24873323.351    -2109271.715 3  -1537992.395 2
  23171526.858    -9474592.141 6  -4984811.092 6
 94  2 15 22 41 30.0030000  0  6 27 18  2 19 16 31
  21654799.757   -17942134.395 7 -13894558.058 8
  22775253.671   -11245484.136 7  -6721923.773 6
  23060048.429   -11665401.901 6  -9021664.038 6
  21737600.538   -17619758.747 7 -13589858.376 8
  24873513.272    -2108227.943 4  -1537179.104 2
  23179843.897    -9430847.416 6  -4950724.302 6
 94  2 15 22 42  0.0030000  0  6 27 18  2 19 16 31
  21649129.249   -17971928.567 7 -13917774.260 8
  22792558.772   -11154533.700 7  -6651053.374 6
  23050221.765   -11717079.217 6  -9061932.025 6
  21740958.476   -17602129.655 7 -13576121.401 8
  24873808.194    -2106710.129 5  -1535996.377 2
  23188280.413    -9386542.783 6  -4916201.226 6
 94  2 15 22 42 30.0030000  0  6 27 18  2 19 16 31
  21643499.147   -18001512.882 7 -13940826.947 8
  22809924.507   -11063261.582 6  -6579932.319 6
  23040431.101   -11768490.106 6  -9101992.405 6
  21744348.507   -17584273.737 7 -13562207.703 7
  24874192.827    -2104709.034 5  -1534437.104 1
  23196819.163    -9341671.986 6  -4881236.969 6
 94  2 15 22 43  0.0030000  0  6 27 18  2 19 16 31
  21637910.390   -18030879.373 7 -13963709.906 8
  22827358.311   -10971667.449 7  -6508560.311 6
  23030692.632   -11819629.839 6  -9141841.497 6
  21747788.788   -17566197.032 7 -13548121.955 7
  24874661.827    -2102202.832 5  -1532484.280 1
  23205466.069    -9296211.984 6  -4845813.578 6
 94  2 15 22 43 30.0030000  0  6 27 18  2 19 16 31
  21632365.718   -18060038.093 7 -13986430.972 8
  22844850.819   -10879743.208 6  -6436931.095 6
  23021027.679   -11870477.751 6  -9181463.188 6
  21751271.522   -17547894.327 7 -13533860.083 7
  24875247.968    -2099163.997 5  -1530116.369 1
  23214232.999    -9250162.658 6  -4809931.021 6
 94  2 15 22 44  0.0030000  0  6 27 18  2 19 16 31
  21626848.436   -18088992.002 7 -14008992.445 8
  22862403.280   -10787483.617 6  -6365040.574 6
  23011401.304   -11921022.399 6  -9220848.583 6
  21754793.132   -17529378.543 7 -13519432.179 7
  24875932.530    -2095602.344 5  -1527341.030 2
  23223107.694    -9203535.082 7  -4773597.860 6
 94  2 15 22 44 30.0030000  0  6 27 18  2 19 16 31
  21621386.171   -18117719.767 7 -14031377.671 8
  22880030.671   -10694863.993 7  -6292869.501 6
  23001839.522   -11971276.444 6  -9260007.523 6
  21758367.015   -17510637.145 7 -13504828.483 7
  24876700.554    -2091502.677 3  -1524146.512 2
  23232089.929    -9156329.544 6  -4736814.313 6
 94  2 15 22 45  0.0030000  0  6 27 18  2 19 16 31
  21615959.351   -18146231.118 7 -14053594.300 8
  22897728.741   -10601874.121 6  -6220409.908 6
  22992338.226   -12021240.518 6  -9298940.498 6
  21761977.819   -17491649.871 7 -13490033.193 7
  24877592.921    -2086859.206 3  -1520528.240 2
  23241179.819    -9108554.645 7  -4699587.150 6
 94  2 15 22 45 30.0030000  0  6 27 18  2 19 16 31
  21610575.608   -18174529.738 7 -14075645.149 8
  22915491.679   -10508525.632 7  -6147670.888 6
  22982878.218   -12070910.077 6  -9337643.993 6
  21765636.327   -17472397.064 7 -13475031.003 7
  24878568.796    -2081673.434 4  -1516487.396 1
  23250371.851    -9060224.941 6  -4661927.629 6
 94  2 15 22 46  0.0030000  0  6 27 18  2 19 16 31
  21605232.108   -18202603.181 7 -14097520.536 7
  22933325.413   -10414827.467 7  -6074659.390 6
  22973479.405   -12120300.542 6  -9376130.013 6
  21769356.460   -17452887.565 7 -13459828.785 7
  24879619.905    -2075963.516 2  -1512038.135 1
  23259676.132    -9011345.910 6  -4623840.094 6
 94  2 15 22 46 30.0030000  0  6 27 18  2 19 16 31
  21599930.569   -18230453.893 7 -14119222.343 8
  22951215.897   -10320792.536 7  -6001385.487 6
  22964136.866   -12169423.445 6  -9414407.535 6
  21773119.218   -17433114.177 7 -13444420.942 7
  24880847.897    -2069710.297 4  -1507165.474 1
  23269083.702    -8961924.240 6  -4585329.677 6
 94  2 15 22 47  0.0030000  0  6 27 18  2 19 16 31
  21594673.374   -18258098.051 7 -14140763.237 8
  22969173.179   -10226449.035 7  -5927871.166 6
  22954836.382   -12218274.497 6  -9452473.207 6
  21776929.101   -17413100.466 7 -13428825.861 7
  24882133.905    -2062931.629 3  -1501883.404 1
  23278588.608    -8911970.812 6  -4546405.005 6
 94  2 15 22 47 30.0030000  0  6 27 18  2 19 16 31
  21589453.882   -18285520.968 7 -14162131.718 8
  22987180.554   -10131806.455 6  -5854123.756 6
  22945597.194   -12266858.967 6  -9490331.195 6
  21780773.163   -17392870.507 7 -13413062.266 8
  24883529.468    -2055648.404 5  -1496208.219 1
  23288194.999    -8861477.965 6  -4507059.889 6
 94  2 15 22 48  0.0030000  0  6 27 18  2 19 16 31
  21584279.077   -18312719.070 7 -14183325.009 8
  23005243.296   -10036858.741 6  -5780138.594 6
  22936398.874   -12315180.624 6  -9527984.357 6
  21784659.968   -17372444.133 7 -13397145.601 8
  24885001.569    -2047874.437 4  -1490150.607 1
  23297903.983    -8810450.499 6  -4467298.255 6
 94  2 15 22 48 30.0030000  0  6 27 18  2 19 16 31
  21579146.515   -18339689.191 7 -14204340.647 8
  23023369.116    -9941599.083 6  -5705910.344 6
  22927253.944   -12363226.019 6  -9565422.265 7
  21788590.655   -17351806.275 7 -13381064.162 8
  24886584.429    -2039603.213 5  -1483705.566 1
  23307718.132    -8758874.496 6  -4427109.177 6
 94  2 15 22 49  0.0030000  0  6 27 18  2 19 16 31
  21574059.554   -18366425.424 7 -14225174.064 8
  23041560.843    -9846033.982 7  -5631444.118 6
  22918169.249   -12410992.948 6  -9602643.188 7
  21792555.585   -17330953.165 7 -13364815.013 8
  24888238.788    -2030867.121 5  -1476898.204 1
  23317639.593    -8706749.587 6  -4386492.353 6
 94  2 15 22 49 30.0030000  0  6 27 18  2 19 16 31
  21569018.460   -18392913.584 7 -14245814.145 8
  23059804.929    -9750150.812 6  -5556730.033 6
  22909124.538   -12458487.866 6  -9639652.135 7
  21796569.640   -17309872.676 7 -13348388.652 8
  24890000.647    -2021662.050 5  -1469725.475 1
  23327660.015    -8654076.202 6  -4345448.166 6
 94  2 15 22 50  0.0030000  0  6 27 18  2 19 16 31
  21564018.522   -18419158.760 7 -14266264.897 8
  23078109.858    -9653946.693 6  -5481765.819 6
  22900140.343   -12505706.611 6  -9676445.910 6
  21800629.108   -17288542.001 7 -13331767.357 8
  24891837.296    -2011972.440 5  -1462175.076 2
  23337792.577    -8600859.019 6  -4303980.235 6
 94  2 15 22 50 30.0030000  0  6 27 18  2 19 16 31
  21559075.507   -18445161.607 7 -14286526.835 8
  23096475.202    -9557440.707 6  -5406566.383 6
  22891203.444   -12552647.378 6  -9713023.068 6
  21804738.601   -17266945.929 7 -13314939.252 7
  24893770.054    -2001785.753 4  -1454237.466 1
  23348020.601    -8547087.484 6  -4262080.351 6
 94  2 15 22 51  0.0030000  0  6 27 18  2 19 16 31
  21554171.265   -18470921.920 7 -14306599.763 8
  23114898.077    -9460637.595 6  -5331135.488 6
  22882328.522   -12599317.988 6  -9749389.714 6
  21808897.280   -17245085.921 7 -13297905.473 7
  24895807.765    -1991100.979 5  -1445911.656 2
  23358360.413    -8492770.632 6  -4219755.539 5
 94  2 15 22 51 30.0030000  0  6 27 18  2 19 16 31
  21549314.085   -18496459.881 7 -14326499.437 8
  23133371.077    -9363539.691 6  -5255474.862 6
  22873494.554   -12645730.298 6  -9785555.100 6
  21813104.483   -17222979.871 7 -13280679.969 7
  24897940.804    -1979905.892 5  -1437188.227 2
  23368798.163    -8437915.909 6  -4177011.612 6
 94  2 15 22 52  0.0030000  0  6 27 18  2 19 16 31
  21544493.327   -18521788.503 7 -14346235.988 8
  23151904.671    -9266153.912 6  -5179589.874 6
  22864720.101   -12691873.469 6  -9821510.760 6
  21817355.413   -17200633.298 7 -13263267.050 7
  24900166.687    -1968195.014 5  -1428062.884 2
  23379340.483    -8382514.546 6  -4133841.726 6
 94  2 15 22 52 30.0030000  0  6 27 18  2 19 16 31
  21539713.319   -18546913.867 7 -14365814.166 8
  23170489.280    -9168483.857 6  -5103483.403 6
  22855976.561   -12737753.596 6  -9857261.441 6
  21821651.085   -17178055.913 7 -13245674.278 8
  24902494.593    -1955981.641 5  -1418545.998 2
  23389984.772    -8326576.580 6  -4090253.756 6
 94  2 15 22 53  0.0030000  0  6 27 18  2 19 16 31
  21534965.577   -18571844.518 7 -14385240.619 8
  23189133.069    -9070506.715 6  -5027137.666 6
  22847303.772   -12783365.504 6  -9892803.143 6
  21825994.319   -17155257.381 7 -13227909.176 7
  24904899.257    -1943275.134 5  -1408644.859 4
  23400726.030    -8270114.887 6  -4046257.616 5
 94  2 15 22 53 30.0030000  0  6 27 18  2 19 16 31
  21530261.694   -18596571.322 7 -14404508.224 8
  23207837.132    -8972218.376 6  -4950549.412 6
  22838680.085   -12828689.631 6  -9928120.585 7
  21830369.562   -17132245.706 7 -13209977.999 7
  24907418.718    -1930069.175 4  -1398354.550 3
  23411572.382    -8213128.603 6  -4001852.743 6
 94  2 15 22 54  0.0030000  0  6 27 18  2 19 16 31
  21525597.843   -18621070.815 7 -14423598.704 8
  23226605.812    -8873622.045 6  -4873721.150 6
  22830108.546   -12873722.397 6  -9963211.000 7
  21834793.882   -17109004.481 7 -13191867.952 7
  24910032.015    -1916373.183 5  -1387682.350 3
  23422517.077    -8155620.353 6  -3957041.136 6
 94  2 15 22 54 30.0030000  0  6 27 18  2 19 16 31
  21520983.390   -18645330.463 7 -14442502.332 8
  23245432.710    -8774722.000 6  -4796656.231 6
  22821593.577   -12918468.087 6  -9998077.705 7
  21839261.616   -17085532.602 7 -13173578.174 8
  24912729.163    -1902195.455 5  -1376634.803 2
  23433560.936    -8097600.205 6  -3911830.643 6
 94  2 15 22 55  0.0030000  0  6 27 18  2 19 16 31
  21516414.757   -18669337.664 7 -14461209.211 8
  23264297.171    -8675529.469 6  -4719363.444 6
  22813133.812   -12962932.117 6 -10032724.942 7
  21843767.569   -17061843.155 7 -13155118.854 8
  24915514.757    -1887535.345 5  -1365211.351 1
  23444693.413    -8039064.612 6  -3866218.506 6
 94  2 15 22 55 30.0030000  0  6 27 18  2 19 16 31
  21511898.944   -18693078.104 7 -14479708.214 8
  23283226.210    -8576070.516 6  -4641863.034 5
  22804728.679   -13007129.841 6 -10067164.659 7
  21848321.991   -17037925.149 7 -13136481.461 7
  24918405.147    -1872394.756 5  -1353413.516 3
  23455929.718    -7980011.872 6  -3820203.405 6
 94  2 15 22 56  0.0030000  0  6 27 18  2 19 16 31
  21507428.218   -18716554.430 7 -14498001.444 8
  23302202.312    -8476347.232 6  -4564156.647 6
  22796365.999   -13051067.366 6 -10101401.614 7
  21852915.835   -17013767.020 7 -13117656.935 8
  24921369.366    -1856780.975 5  -1341246.947 2
  23467270.499    -7920443.573 6  -3773786.570 6
 94  2 15 22 56 30.0030000  0  6 27 18  2 19 16 31
  21503014.851   -18739765.585 7 -14516088.037 8
  23321225.741    -8376357.238 6  -4486242.418 6
  22788050.179   -13094741.854 6 -10135433.625 7
  21857557.062   -16989369.866 7 -13098646.142 8
  24924435.280    -1840682.250 5  -1328702.511 3
  23478700.249    -7860366.904 6  -3726973.604 6
 94  2 15 22 57  0.0030000  0  6 27 18  2 19 16 31
  21498648.991   -18762704.777 7 -14533962.695 8
  23340311.093    -8276091.583 6  -4408113.418 6
  22779789.757   -13138144.023 6 -10169253.418 7
  21862245.983   -16964711.867 7 -13079432.117 7
  24927597.710    -1824094.177 5  -1315776.774 2
  23490230.226    -7799780.094 6  -3679763.143 6
 94  2 15 22 57 30.0030000  0  6 27 18  2 19 16 31
  21494331.452   -18785383.529 7 -14551634.422 8
  23359441.397    -8175545.181 6  -4329765.668 6
  22771585.632   -13181264.609 6 -10202853.804 7
  21866992.624   -16939775.368 7 -13060001.082 7
  24930833.257    -1807017.887 5  -1302470.607 4
  23501857.585    -7738687.370 6  -3632158.431 6
 94  2 15 22 58  0.0030000  0  6 27 18  2 19 16 31
  21490062.640   -18807807.354 7 -14569107.506 8
  23378626.874    -8074707.617 6  -4251190.997 6
  22763440.913   -13224093.751 6 -10236227.075 7
  21871794.155   -16914567.513 7 -13040358.580 8
  24934186.140    -1789446.515 5  -1288778.687 3
  23513579.546    -7677081.660 6  -3584154.002 6
 94  2 15 22 58 30.0030000  0  6 27 18  2 19 16 31
  21485847.358   -18829982.888 7 -14586387.107 9
  23397872.358    -7973580.957 6  -4172391.063 6
  22755339.710   -13266636.819 6 -10269377.436 7
  21876643.327   -16889094.446 7 -13020509.418 7
  24937614.249    -1771379.722 5  -1274700.680 3
  23525402.226    -7614954.454 6  -3535743.263 6
 94  2 15 22 59  0.0030000  0  6 27 18  2 19 16 31
  21481669.921   -18851931.874 7 -14603490.188 8
  23417178.436    -7872173.936 6  -4093372.687 5
  22747299.194   -13308893.118 6 -10302304.352 7
  21881533.515   -16863368.168 7 -13000462.980 7
  24941150.515    -1752820.449 5  -1260238.943 4
  23537328.765    -7552292.322 6  -3486915.651 6
 94  2 15 22 59 30.0030000  0  6 27 18  2 19 16 31
  21477538.077   -18873653.389 7 -14620416.020 8
  23436518.015    -7770491.263 6  -4014139.565 5
  22739307.655   -13350860.052 6 -10335005.780 6
  21886477.929   -16837406.611 7 -12980233.175 8
  24944775.319    -1733760.620 5  -1245387.162 4
  23549356.351    -7489093.880 6  -3437670.121 6
 94  2 15 23  0  0.0030000  0  6 27 18  2 19 16 31
  21473447.851   -18895147.810 7 -14637164.888 8
  23455920.405    -7668546.361 6  -3934702.040 6
  22731380.530   -13392542.312 6 -10367485.388 7
  21891457.069   -16811229.995 7 -12959835.781 8
  24948503.085    -1714206.147 4  -1230149.920 4
  23561473.866    -7425369.523 6  -3388014.835 6
 94  2 15 23  0 30.0030000  0  6 27 18  2 19 16 31
  21469395.991   -18916412.776 7 -14653734.963 8
  23475365.468    -7566347.616 6  -3855066.696 6
  22723504.835   -13433934.677 6 -10399739.110 7
  21896482.265   -16784833.372 7 -12939266.978 7
  24952321.061    -1694169.444 5  -1214536.947 4
  23573700.296    -7361142.776 6  -3337968.053 6
